[[{"header":{"parameterUnit":"m.s-1","parameterCategory":1,"la1":30.6,"la2":29.2853,"lo1":-89.7004,"lo2":-87.6739,"dy":0.0162,"dx":0.0183,"nx":112,"ny":82,"refTime":"2023-09-01T06:00:00:Z","depth":0,"parameterNumber":2,"parameterNumberName":"U-component_of_WINDS"},"data":[0.0,0.0,0.0,0.0,0.0,0.0,0.0,0.0,0.0,0.0,0.0,0.0,0.0,0.0,0.0,0.0,0.0,0.0,0.0,0.0,0.0,0.0,0.0,0.0,0.0,0.0,0.0,0.0,0.0,0.0,0.0,0.0,0.0,0.0,0.0,0.0,0.0,0.0,0.0,0.0,0.0,0.0,0.0,0.0,0.0,0.0,0.0,0.0,0.0,0.0,0.0,0.0,0.0,0.0,0.0,0.0,0.0,0.0,0.0,0.0,0.0,0.0,0.0,0.0,0.0,0.0,0.0,0.0,0.0,0.0,0.0,0.0,0.0,0.0,0.0,0.0,0.0,0.0,0.0,0.0,0.0,0.0,0.0,0.0,0.0,0.0,0.0,0.0,0.0,0.0,-2.2362,-2.3761,-2.6606,-2.8321,-2.8083,-2.796,-2.6277,-2.2544,0.0,0.0,0.0,0.0,0.0,0.0,0.0,0.0,0.0,0.0,0.0,0.0,0.0,0.0,0.0,0.0,0.0,0.0,0.0,0.0,0.0,0.0,0.0,0.0,0.0,0.0,0.0,0.0,0.0,0.0,0.0,0.0,0.0,0.0,0.0,0.0,0.0,0.0,0.0,0.0,0.0,0.0,0.0,0.0,0.0,0.0,0.0,0.0,0.0,0.0,0.0,0.0,0.0,0.0,0.0,0.0,0.0,0.0,0.0,0.0,0.0,0.0,0.0,0.0,0.0,0.0,0.0,0.0,0.0,0.0,0.0,0.0,0.0,0.0,0.0,0.0,0.0,0.0,0.0,0.0,0.0,0.0,0.0,0.0,0.0,0.0,0.0,0.0,0.0,0.0,0.0,0.0,0.0,0.0,0.0,0.0,0.0,0.0,0.0,0.0,0.0,0.0,0.0,0.0,-2.2363,-2.5106,-2.636,-2.7219,-2.7702,-2.6719,-2.5149,-2.2945,0.0,0.0,0.0,0.0,0.0,0.0,0.0,0.0,0.0,0.0,0.0,0.0,0.0,0.0,0.0,0.0,0.0,0.0,0.0,0.0,0.0,0.0,0.0,0.0,0.0,0.0,0.0,0.0,0.0,0.0,0.0,0.0,0.0,0.0,0.0,0.0,0.0,0.0,0.0,0.0,0.0,0.0,0.0,0.0,0.0,0.0,0.0,0.0,0.0,0.0,0.0,0.0,0.0,0.0,0.0,0.0,0.0,0.0,0.0,0.0,0.0,0.0,0.0,0.0,0.0,0.0,0.0,0.0,0.0,0.0,0.0,0.0,0.0,0.0,0.0,0.0,0.0,0.0,0.0,0.0,0.0,0.0,0.0,0.0,0.0,0.0,0.0,0.0,0.0,0.0,0.0,0.0,0.0,0.0,0.0,0.0,0.0,0.0,0.0,0.0,0.0,0.0,0.0,-2.1289,-2.2594,-2.4482,-2.5575,-2.628,-2.6592,-2.6299,-2.5051,-2.266,-2.1384,0.0,0.0,0.0,0.0,0.0,0.0,0.0,0.0,0.0,0.0,0.0,0.0,0.0,0.0,0.0,0.0,0.0,0.0,0.0,0.0,0.0,0.0,0.0,0.0,0.0,0.0,0.0,0.0,0.0,0.0,0.0,0.0,0.0,0.0,0.0,0.0,0.0,0.0,0.0,0.0,0.0,0.0,0.0,0.0,0.0,0.0,0.0,0.0,0.0,0.0,0.0,0.0,0.0,0.0,0.0,0.0,0.0,0.0,0.0,0.0,0.0,0.0,0.0,0.0,0.0,0.0,0.0,0.0,0.0,0.0,0.0,0.0,0.0,0.0,0.0,0.0,0.0,0.0,0.0,0.0,0.0,0.0,0.0,0.0,0.0,0.0,0.0,0.0,0.0,0.0,0.0,0.0,0.0,0.0,0.0,0.0,0.0,0.0,0.0,0.0,0.0,0.0,-2.2275,-2.2988,-2.3848,-2.4834,-2.5421,-2.5566,-2.5615,-2.4643,-2.237,-2.0991,0.0,0.0,0.0,0.0,0.0,0.0,0.0,0.0,0.0,0.0,0.0,0.0,0.0,0.0,0.0,0.0,0.0,0.0,0.0,0.0,0.0,0.0,0.0,0.0,0.0,0.0,0.0,0.0,0.0,0.0,0.0,0.0,0.0,0.0,0.0,0.0,0.0,0.0,0.0,0.0,0.0,0.0,0.0,0.0,0.0,0.0,0.0,0.0,0.0,0.0,0.0,0.0,0.0,0.0,0.0,0.0,0.0,0.0,0.0,0.0,0.0,0.0,0.0,0.0,0.0,0.0,0.0,0.0,0.0,0.0,0.0,0.0,0.0,0.0,0.0,0.0,0.0,0.0,0.0,0.0,0.0,0.0,0.0,0.0,0.0,0.0,0.0,0.0,0.0,0.0,0.0,0.0,0.0,0.0,0.0,0.0,0.0,0.0,0.0,0.0,0.0,0.0,-2.2353,-2.3437,-2.4287,-2.4453,-2.4678,-2.5135,-2.4098,-2.3057,-2.226,-2.0147,0.0,0.0,0.0,0.0,0.0,0.0,0.0,0.0,0.0,0.0,0.0,0.0,0.0,0.0,0.0,0.0,0.0,0.0,0.0,0.0,0.0,0.0,0.0,0.0,0.0,0.0,0.0,0.0,0.0,0.0,0.0,0.0,0.0,0.0,0.0,0.0,0.0,0.0,0.0,0.0,0.0,0.0,0.0,0.0,0.0,0.0,0.0,0.0,0.0,0.0,0.0,0.0,0.0,0.0,0.0,0.0,0.0,0.0,0.0,0.0,0.0,0.0,0.0,0.0,0.0,0.0,0.0,0.0,0.0,0.0,0.0,0.0,0.0,0.0,0.0,0.0,0.0,0.0,0.0,0.0,0.0,0.0,0.0,0.0,0.0,0.0,0.0,0.0,0.0,0.0,0.0,0.0,0.0,0.0,0.0,0.0,0.0,0.0,0.0,0.0,0.0,0.0,-2.187,-2.2978,-2.351,-2.3867,-2.4092,-2.4258,-2.3748,-2.2625,-2.0796,0.0,0.0,0.0,0.0,0.0,0.0,0.0,0.0,0.0,0.0,0.0,0.0,0.0,0.0,0.0,0.0,0.0,0.0,0.0,0.0,0.0,0.0,0.0,0.0,0.0,0.0,0.0,0.0,0.0,0.0,0.0,0.0,0.0,0.0,0.0,0.0,0.0,0.0,0.0,0.0,0.0,0.0,0.0,0.0,0.0,0.0,0.0,0.0,0.0,0.0,0.0,0.0,0.0,0.0,0.0,0.0,0.0,0.0,0.0,0.0,0.0,0.0,0.0,0.0,0.0,0.0,0.0,0.0,0.0,0.0,0.0,0.0,0.0,0.0,0.0,0.0,0.0,0.0,0.0,0.0,0.0,0.0,0.0,0.0,0.0,0.0,0.0,0.0,0.0,0.0,0.0,0.0,0.0,0.0,0.0,0.0,0.0,0.0,0.0,0.0,0.0,0.0,-2.033,-2.1624,-2.2563,-2.2843,-2.3142,-2.3361,-2.3361,-2.2861,-2.1821,-2.0084,0.0,0.0,0.0,0.0,0.0,0.0,0.0,0.0,0.0,0.0,0.0,0.0,0.0,0.0,0.0,0.0,0.0,0.0,0.0,0.0,0.0,0.0,0.0,0.0,0.0,0.0,0.0,0.0,0.0,0.0,0.0,0.0,0.0,0.0,0.0,0.0,0.0,0.0,0.0,0.0,0.0,0.0,0.0,0.0,0.0,0.0,0.0,0.0,0.0,0.0,0.0,0.0,0.0,0.0,0.0,0.0,0.0,0.0,0.0,0.0,0.0,0.0,0.0,0.0,0.0,0.0,0.0,0.0,0.0,0.0,0.0,0.0,0.0,0.0,0.0,0.0,0.0,0.0,0.0,0.0,0.0,0.0,0.0,0.0,0.0,0.0,0.0,0.0,0.0,0.0,0.0,0.0,0.0,0.0,0.0,0.0,0.0,0.0,0.0,0.0,0.0,0.0,-2.056,-2.1665,-2.2397,-2.2397,-2.2397,-2.2397,-2.2397,-2.1296,-2.0504,0.0,0.0,0.0,0.0,0.0,0.0,0.0,0.0,0.0,0.0,0.0,0.0,0.0,0.0,0.0,0.0,0.0,0.0,0.0,0.0,0.0,0.0,0.0,0.0,0.0,0.0,0.0,0.0,0.0,0.0,0.0,0.0,0.0,0.0,0.0,0.0,0.0,0.0,0.0,0.0,0.0,0.0,0.0,0.0,0.0,0.0,0.0,0.0,0.0,0.0,0.0,0.0,0.0,0.0,0.0,0.0,0.0,0.0,0.0,0.0,0.0,0.0,0.0,0.0,0.0,0.0,0.0,0.0,0.0,0.0,0.0,0.0,0.0,0.0,0.0,0.0,0.0,0.0,0.0,0.0,0.0,0.0,0.0,0.0,0.0,0.0,0.0,0.0,0.0,0.0,0.0,0.0,0.0,0.0,0.0,0.0,0.0,0.0,0.0,0.0,0.0,0.0,0.0,-2.1093,-2.1911,-2.2397,-2.2397,-2.2397,-2.2397,-2.2397,-2.1433,-2.0426,-1.9506,0.0,0.0,0.0,0.0,0.0,0.0,0.0,0.0,0.0,0.0,0.0,0.0,0.0,0.0,0.0,0.0,0.0,0.0,0.0,0.0,0.0,0.0,0.0,0.0,0.0,0.0,0.0,0.0,0.0,0.0,0.0,0.0,0.0,0.0,0.0,0.0,0.0,0.0,0.0,0.0,0.0,0.0,0.0,0.0,0.0,0.0,0.0,0.0,0.0,0.0,0.0,0.0,0.0,0.0,0.0,0.0,0.0,0.0,0.0,0.0,0.0,0.0,0.0,0.0,0.0,0.0,0.0,0.0,0.0,0.0,0.0,0.0,0.0,0.0,0.0,0.0,0.0,0.0,0.0,0.0,0.0,0.0,0.0,0.0,0.0,0.0,0.0,0.0,0.0,0.0,0.0,0.0,0.0,0.0,0.0,0.0,0.0,0.0,0.0,0.0,0.0,0.0,-2.0962,-2.1717,-2.2132,-2.2132,-2.2132,-2.2132,-2.2132,-2.1438,-2.0416,-1.9026,0.0,0.0,0.0,0.0,0.0,0.0,0.0,0.0,0.0,0.0,0.0,0.0,0.0,0.0,0.0,0.0,0.0,0.0,0.0,0.0,0.0,0.0,0.0,0.0,0.0,0.0,0.0,0.0,0.0,0.0,0.0,0.0,0.0,0.0,0.0,0.0,0.0,0.0,0.0,0.0,0.0,0.0,0.0,0.0,0.0,0.0,0.0,0.0,0.0,0.0,0.0,0.0,0.0,0.0,0.0,0.0,0.0,0.0,0.0,0.0,0.0,0.0,0.0,0.0,0.0,0.0,0.0,0.0,0.0,0.0,0.0,0.0,0.0,0.0,0.0,0.0,0.0,0.0,0.0,0.0,0.0,0.0,0.0,0.0,0.0,0.0,0.0,0.0,0.0,0.0,0.0,0.0,0.0,0.0,0.0,0.0,0.0,0.0,0.0,0.0,0.0,0.0,-2.0485,-2.1243,-2.165,-2.1687,-2.1696,-2.1696,-2.1696,-2.1346,-2.0424,-1.8855,0.0,0.0,0.0,0.0,0.0,0.0,0.0,0.0,0.0,0.0,0.0,0.0,0.0,0.0,0.0,0.0,0.0,0.0,0.0,0.0,0.0,0.0,0.0,0.0,0.0,0.0,0.0,0.0,0.0,0.0,0.0,0.0,0.0,0.0,0.0,0.0,0.0,0.0,0.0,0.0,0.0,0.0,0.0,0.0,0.0,0.0,0.0,0.0,0.0,0.0,0.0,0.0,0.0,0.0,0.0,0.0,0.0,0.0,0.0,0.0,-2.0543,-1.9701,0.0,0.0,0.0,0.0,0.0,0.0,0.0,0.0,0.0,0.0,0.0,0.0,0.0,0.0,0.0,0.0,0.0,0.0,0.0,0.0,0.0,0.0,0.0,0.0,0.0,0.0,0.0,0.0,0.0,0.0,0.0,0.0,0.0,0.0,0.0,0.0,0.0,0.0,0.0,0.0,-2.1199,-2.131,-2.1374,-2.1659,-2.1696,-2.1696,-2.1696,-2.1346,-2.0524,-1.9197,-1.7286,0.0,0.0,0.0,0.0,0.0,0.0,0.0,0.0,0.0,0.0,0.0,0.0,0.0,0.0,0.0,0.0,0.0,0.0,0.0,0.0,0.0,0.0,0.0,0.0,0.0,0.0,0.0,0.0,0.0,0.0,0.0,0.0,0.0,0.0,0.0,0.0,0.0,0.0,0.0,0.0,0.0,0.0,0.0,0.0,0.0,0.0,0.0,0.0,0.0,0.0,0.0,0.0,0.0,0.0,0.0,0.0,0.0,0.0,0.0,-2.263,-2.1906,0.0,0.0,0.0,0.0,0.0,0.0,0.0,0.0,0.0,0.0,0.0,0.0,0.0,0.0,0.0,0.0,0.0,0.0,0.0,0.0,0.0,0.0,0.0,0.0,0.0,0.0,0.0,0.0,0.0,0.0,0.0,0.0,0.0,0.0,0.0,0.0,0.0,0.0,0.0,0.0,-2.0967,-2.1284,-2.1449,-2.1668,-2.1696,-2.1508,-2.1087,-2.0846,-2.0,-1.8268,-1.6919,0.0,0.0,0.0,0.0,0.0,0.0,0.0,0.0,0.0,0.0,0.0,0.0,0.0,0.0,0.0,0.0,0.0,0.0,0.0,0.0,0.0,0.0,0.0,0.0,0.0,0.0,0.0,0.0,0.0,0.0,0.0,0.0,0.0,0.0,0.0,0.0,0.0,0.0,0.0,0.0,0.0,0.0,0.0,0.0,0.0,0.0,0.0,0.0,0.0,0.0,0.0,0.0,0.0,-2.5287,-2.5614,-2.4583,-2.5218,-2.5321,-2.5006,-2.5432,-2.484,-2.3553,-2.3079,0.0,0.0,0.0,0.0,0.0,0.0,0.0,0.0,0.0,0.0,0.0,0.0,0.0,0.0,0.0,0.0,0.0,0.0,0.0,0.0,0.0,0.0,0.0,0.0,-2.3477,-2.3114,-2.0542,0.0,0.0,0.0,0.0,0.0,0.0,0.0,0.0,0.0,0.0,0.0,-2.0323,-2.1083,-2.1604,-2.1687,-2.1696,-2.132,-2.0393,-2.0294,-1.9332,-1.7126,-1.6562,-1.5551,0.0,0.0,0.0,0.0,0.0,0.0,0.0,0.0,0.0,0.0,0.0,0.0,0.0,0.0,0.0,0.0,0.0,0.0,0.0,0.0,0.0,0.0,0.0,0.0,0.0,0.0,0.0,0.0,0.0,0.0,0.0,0.0,-2.3567,-2.4393,0.0,0.0,0.0,0.0,0.0,0.0,0.0,0.0,0.0,0.0,0.0,0.0,0.0,-2.3602,-2.3756,-2.5099,-2.5116,-2.3847,-2.6397,-2.7004,-2.5976,-2.7503,-2.8171,-2.8143,-2.8559,0.0,-2.4165,-2.4771,0.0,0.0,0.0,0.0,0.0,0.0,0.0,0.0,0.0,0.0,0.0,0.0,0.0,0.0,0.0,0.0,0.0,0.0,0.0,0.0,0.0,0.0,-2.49,-2.4525,-2.4336,-2.3985,0.0,-2.1806,-2.0817,-2.0523,-1.9549,0.0,0.0,0.0,0.0,0.0,0.0,0.0,-1.9912,-2.0695,-2.1328,-2.165,-2.1696,-2.132,-2.0393,-2.0294,-1.9315,-1.7079,-1.6381,-1.5461,-1.4088,-1.346,0.0,0.0,0.0,0.0,0.0,0.0,0.0,0.0,0.0,0.0,0.0,0.0,0.0,0.0,0.0,0.0,0.0,0.0,0.0,0.0,0.0,0.0,0.0,0.0,0.0,0.0,0.0,0.0,0.0,-2.2748,-2.4148,-2.3152,-2.3799,-2.364,0.0,0.0,0.0,0.0,0.0,0.0,0.0,0.0,0.0,-2.2751,-2.3703,-2.4063,-2.3851,-2.5892,-2.6235,-2.4867,-2.6568,-2.7012,-2.6415,-2.6965,-2.7655,-2.8308,-2.8482,-2.8157,-2.7369,-2.6798,-2.6237,-2.5629,0.0,0.0,0.0,0.0,-2.4383,-2.4762,-2.5098,-2.4944,-2.4662,-2.492,0.0,0.0,0.0,0.0,0.0,0.0,0.0,0.0,0.0,0.0,-2.579,-2.5354,-2.5593,-2.5729,-2.4973,-2.3692,-2.2409,0.0,-2.0995,-2.0466,-1.9622,0.0,0.0,0.0,0.0,-2.0136,-2.0539,-2.1055,-2.1485,-2.1668,-2.1696,-2.1087,-1.9567,-1.9476,-1.8533,-1.6418,-1.5906,-1.5359,-1.4633,-1.4015,-1.3627,0.0,0.0,0.0,0.0,0.0,0.0,0.0,0.0,0.0,0.0,0.0,0.0,0.0,0.0,0.0,0.0,0.0,0.0,0.0,0.0,0.0,0.0,0.0,0.0,0.0,0.0,0.0,0.0,-2.3445,-2.4074,-2.2395,-2.3786,-2.3859,0.0,0.0,0.0,0.0,0.0,0.0,-2.2012,-2.174,-2.1993,-2.2893,-2.4115,-2.4474,-2.3969,-2.6175,-2.6584,-2.5352,-2.6333,-2.6553,-2.6276,-2.6285,-2.6848,-2.7735,-2.7735,-2.8283,-2.9092,-2.8277,-2.7884,-2.7672,-2.613,-2.5855,-2.6187,-2.5588,-2.5599,-2.5884,-2.6307,-2.617,-2.5838,-2.5901,-2.5095,-2.3972,-2.3095,0.0,0.0,0.0,0.0,-2.3942,-2.4961,-2.581,-2.6338,-2.6064,-2.6524,-2.6852,-2.6071,-2.5064,-2.3904,0.0,-2.219,-2.1851,-2.0842,0.0,0.0,0.0,0.0,-2.0741,-2.0934,-2.119,-2.132,-2.132,-2.1087,-2.0266,-1.8565,-1.8427,-1.7647,-1.5812,-1.5585,-1.5311,-1.4914,-1.4429,-1.4021,-1.3613,0.0,0.0,0.0,0.0,0.0,0.0,0.0,0.0,0.0,0.0,0.0,0.0,0.0,0.0,0.0,0.0,0.0,0.0,0.0,0.0,0.0,0.0,0.0,0.0,0.0,0.0,0.0,0.0,0.0,-2.3495,-2.5184,0.0,0.0,0.0,0.0,-2.252,-2.2012,-2.2192,-2.3425,-2.3799,-2.4218,-2.4958,-2.5062,-2.5084,-2.5053,-2.5203,-2.5048,-2.4672,-2.5618,-2.5842,-2.5572,-2.6513,-2.7021,-2.7073,-2.7073,-2.7082,-2.722,-2.8618,-2.8956,-2.8614,-2.8406,-2.8093,-2.781,-2.8038,-2.8144,-2.8052,-2.7367,-2.691,-2.658,-2.6608,-2.5856,-2.4694,-2.3881,-2.3551,0.0,0.0,-2.4217,-2.5088,-2.5528,-2.6045,-2.6484,-2.6865,-2.6788,-2.6506,-2.6073,-2.5669,-2.5086,0.0,-2.2677,-2.1577,-2.1163,0.0,-2.0796,-2.0003,-2.0585,-2.0952,-2.0594,-2.043,-2.0393,-2.0393,-1.9521,-1.8519,-1.7466,-1.7372,-1.6829,-1.5477,-1.5665,-1.5378,-1.4576,-1.4516,-1.4186,-1.3613,-1.3307,0.0,0.0,0.0,0.0,0.0,0.0,0.0,0.0,0.0,0.0,0.0,0.0,0.0,0.0,0.0,0.0,0.0,0.0,0.0,0.0,0.0,0.0,0.0,0.0,0.0,0.0,0.0,0.0,-2.3544,-2.4925,0.0,-2.2859,-2.2564,-2.2692,-2.3178,-2.3425,-2.3925,-2.4796,-2.4759,-2.4905,-2.5344,-2.5162,-2.5024,-2.4811,-2.4811,-2.4576,-2.4254,-2.4426,-2.4393,-2.4265,-2.4424,-2.4941,-2.5806,-2.5806,-2.6225,-2.7065,-2.7586,-2.8215,-2.8879,-2.9402,-2.949,-2.922,-2.8009,-2.7591,-2.7416,-2.6046,-2.5636,-2.5717,-2.5768,-2.5381,-2.4672,-2.3643,-2.2722,-2.2225,-2.3204,-2.3776,-2.4401,-2.577,-2.6475,-2.6758,-2.6641,-2.6766,-2.6664,-2.5975,-2.5455,-2.5015,-2.4624,-2.3755,-2.2834,-2.1898,-2.1599,-2.1284,-2.0769,-2.0924,-2.1154,-2.1248,-2.1238,-2.1177,-2.1177,-2.0862,-2.0266,-1.9293,-1.8444,-1.75,-1.6425,-1.5677,-1.513,-1.4816,-1.4623,-1.4335,-1.3935,-1.3454,-1.2935,0.0,0.0,0.0,0.0,0.0,0.0,0.0,0.0,0.0,0.0,0.0,0.0,0.0,0.0,0.0,0.0,0.0,0.0,0.0,0.0,0.0,0.0,0.0,0.0,0.0,-2.3861,-2.4659,-2.3384,-2.4833,-2.513,-2.3061,-2.3398,-2.3947,-2.4379,-2.5015,-2.5571,-2.6003,-2.593,-2.582,-2.5696,-2.5491,-2.5033,-2.4195,-2.408,-2.3783,-2.3168,-2.2762,-2.2566,-2.2552,-2.2244,-2.2779,-2.3899,-2.3899,-2.4571,-2.5729,-2.6031,-2.6696,-2.7558,-2.8542,-2.8877,-2.8632,-2.73,-2.6682,-2.6363,-2.4847,-2.4367,-2.4463,-2.4376,-2.4199,-2.3856,-2.3121,-2.2287,-2.1873,-2.3001,-2.3265,-2.3592,-2.5478,-2.6008,-2.6071,-2.6366,-2.6484,-2.6475,-2.6045,-2.5537,-2.5137,-2.503,-2.447,-2.3649,-2.2565,-2.2244,-2.1961,-2.1585,-2.1401,-2.1475,-2.1833,-2.1491,-2.1221,-2.1221,-2.0907,-2.0395,-1.9673,-1.8917,-1.7928,-1.661,-1.5984,-1.5325,-1.4579,-1.4516,-1.4335,-1.3948,-1.346,-1.3034,-1.2725,0.0,0.0,0.0,0.0,0.0,0.0,0.0,0.0,0.0,0.0,0.0,0.0,0.0,0.0,0.0,0.0,0.0,0.0,0.0,0.0,0.0,0.0,0.0,-2.2513,-2.2947,-2.3186,-2.3201,-2.5154,-2.5893,-2.4327,-2.5301,-2.6039,-2.6047,-2.6632,-2.6991,-2.6991,-2.7283,-2.7005,-2.6047,-2.601,-2.5125,-2.3379,-2.3139,-2.2439,-2.1344,-2.0808,-2.0553,-2.054,-2.0266,-2.0652,-2.1544,-2.1544,-2.2104,-2.3084,-2.4023,-2.4419,-2.4583,-2.5948,-2.6258,-2.5973,-2.5906,-2.56,-2.5064,-2.3937,-2.3269,-2.2903,-2.2612,-2.2501,-2.2459,-2.2442,-2.2442,-2.246,-2.2826,-2.2724,-2.2857,-2.4648,-2.4642,-2.4514,-2.5971,-2.6015,-2.582,-2.6279,-2.5986,-2.5586,-2.5333,-2.4686,-2.3926,-2.3023,-2.2895,-2.2757,-2.2327,-2.1934,0.0,-2.2208,-2.1128,-2.0339,-2.0339,-1.9476,-1.8744,-1.8311,-1.8619,-1.7959,-1.5971,-1.6477,-1.587,-1.3701,-1.4153,-1.4186,-1.3626,-1.3333,-1.3227,-1.3227,0.0,0.0,0.0,0.0,0.0,0.0,0.0,0.0,0.0,0.0,0.0,0.0,0.0,0.0,0.0,0.0,0.0,0.0,0.0,0.0,0.0,-1.8926,-2.084,-2.1845,-2.3654,-2.4949,-2.5191,-2.5981,-2.642,-2.6208,-2.6296,-2.6464,-2.6705,-2.6888,-2.6991,-2.6991,-2.6852,-2.6537,-2.6032,-2.5783,-2.4757,-2.2816,-2.272,-2.1936,-2.0483,-2.0329,-2.0259,-2.0253,-2.0113,-2.0265,-2.0526,-2.0526,-2.0646,-2.0936,-2.101,-2.0876,-2.1036,-2.4724,-2.5979,-2.556,-2.4364,-2.2935,-2.168,-2.2129,-2.2282,-2.2307,-2.2443,-2.2164,-2.1721,-2.1409,-2.0783,-2.0351,-2.1253,-2.1409,-2.1689,-2.3272,-2.4134,-2.4693,-2.5125,-2.5731,-2.6162,-2.5957,-2.5625,-2.5391,-2.5333,-2.4753,-2.3944,-2.2917,-2.2852,-2.2666,-2.1961,-2.176,0.0,-2.1842,-2.1527,-2.132,-2.132,-2.1087,-2.0748,-2.0342,-1.9538,-1.8446,-1.6985,-1.5962,-1.5019,-1.401,-1.3873,-1.3866,-1.3968,-1.3633,-1.3487,0.0,0.0,0.0,0.0,0.0,0.0,0.0,0.0,0.0,0.0,0.0,0.0,0.0,0.0,0.0,0.0,0.0,0.0,0.0,0.0,0.0,0.0,-1.9063,-2.0726,-2.1539,-2.3785,-2.5505,-2.5959,-2.6303,-2.6632,-2.6961,-2.6822,-2.6786,-2.6976,-2.7115,-2.7137,-2.6998,-2.6815,-2.6493,-2.6032,-2.5209,-2.396,-2.2151,-2.1555,-2.0482,-1.8971,-1.8852,-1.8798,-1.8798,-1.8798,-1.9054,-1.9437,-1.9437,-1.9693,-2.0049,-1.9655,-1.9394,0.0,0.0,0.0,0.0,0.0,-2.1357,-2.0454,-2.0809,-2.0941,-2.0907,-2.1115,-2.0814,-2.0346,-2.0248,-1.9776,-1.9457,-2.0202,-2.0348,-2.0592,-2.2215,-2.2902,-2.3337,-2.3954,-2.4794,-2.5263,-2.4731,-2.4599,-2.4607,-2.4648,-2.4063,0.0,-2.2805,-2.276,-2.2668,-2.2188,-2.1886,-2.1796,-2.2096,-2.1886,-2.1696,-2.1696,-2.1696,-2.1522,-2.1145,-2.0104,0.0,0.0,0.0,-1.4969,-1.4124,-1.376,0.0,0.0,0.0,-1.3828,-1.3828,0.0,0.0,0.0,-1.3913,-1.4041,0.0,0.0,0.0,0.0,0.0,0.0,0.0,0.0,0.0,0.0,0.0,0.0,0.0,0.0,0.0,0.0,-1.9411,-2.0843,-2.1389,-2.3324,-2.4959,-2.5637,-2.6069,-2.6438,-2.6765,-2.6896,-2.6918,-2.6838,-2.7107,-2.7055,-2.6583,-2.6568,0.0,0.0,0.0,-2.2891,-2.1209,-1.9929,-1.8682,-1.7335,-1.7109,-1.7001,-1.7001,-1.7001,-1.7518,-1.8343,-1.8343,-1.8856,-1.9712,-1.9106,-1.8825,-1.8768,-1.8724,-1.9037,-1.9573,-2.0096,-2.0366,-2.0313,-1.9837,0.0,0.0,-1.9264,-1.906,-1.8847,-1.9177,-1.9279,-1.9338,-1.9676,-1.9551,-1.9665,-2.1283,-2.1293,-2.1213,-2.2535,-2.3382,-2.3723,-2.3056,-2.3178,-2.3381,-2.3422,-2.2817,-2.233,-2.2428,-2.2602,-2.2684,-2.2592,-2.2096,-2.1959,-2.249,-2.2086,-2.1696,-2.1696,0.0,0.0,-2.1145,-2.0307,-1.9072,-1.7429,-1.639,-1.5291,-1.409,-1.3773,-1.3814,-1.4082,-1.4088,-1.4088,-1.4088,-1.4088,-1.4088,-1.4095,-1.4349,-1.4335,0.0,0.0,0.0,0.0,0.0,0.0,0.0,0.0,0.0,0.0,0.0,0.0,0.0,0.0,0.0,-1.6614,-1.832,-1.9824,-2.0287,-2.1527,-2.2654,-2.3556,-2.4713,-2.5413,-2.5226,-2.6322,-2.6619,-2.5646,-2.5628,-2.5084,-2.3911,-2.3825,-2.355,-2.2953,-2.2525,-2.1488,-1.9789,-1.9327,-1.8413,-1.7077,0.0,0.0,-1.7001,-1.7001,-1.713,-1.726,-1.726,-1.7389,-1.7543,-1.7065,-1.6513,-1.6127,-1.735,-1.7807,-1.7721,-1.7827,-1.8144,-1.8536,-1.8728,-1.8836,-1.8928,-1.9191,-1.906,-1.8847,-1.9177,-1.9279,0.0,-1.9404,-1.9323,-1.9405,-1.9732,-2.0385,-2.0952,-2.1272,-2.2089,-2.2624,-2.2035,-2.1923,-2.1948,-2.1733,-2.1113,-2.0593,-2.0691,-2.1933,-2.2708,-2.1986,-2.1965,-2.1991,-2.1886,-2.1786,-2.1696,-2.1696,-2.1696,-2.1522,-2.1145,-2.0272,-1.9102,-1.773,-1.5836,-1.4446,-1.3713,-1.3908,-1.4028,-1.4088,-1.4088,-1.4088,-1.4088,-1.4088,-1.4088,-1.4088,-1.4142,-1.4142,0.0,0.0,0.0,0.0,0.0,0.0,0.0,0.0,0.0,0.0,0.0,-1.5217,-1.5147,0.0,-1.6613,-1.6969,-1.8072,-1.9014,-1.9391,-1.9968,-2.0994,-2.247,-2.3275,-2.3779,-2.3944,-2.46,-2.4834,-2.417,-2.417,-2.376,-2.2826,-2.2595,-2.232,-2.1891,-2.1059,-2.0178,-1.9183,-1.8539,-1.7827,-1.7001,-1.7001,-1.7001,-1.7001,-1.7001,-1.7001,-1.7001,-1.7001,-1.7001,-1.6969,-1.6506,-1.5898,-1.5283,-1.5994,-1.6508,-1.6919,-1.7148,-1.7692,-1.8373,-1.827,-1.8396,-1.8599,-1.8928,-1.8811,-1.8606,-1.8935,-1.903,-1.9067,-1.9228,-1.9162,-1.903,-1.903,-1.9433,-1.9788,-1.9469,-2.0211,-2.0744,-1.9784,-1.9899,-2.0103,-1.9878,-1.9406,-1.9166,-1.96,-2.0981,-2.1789,-2.1239,-2.1588,-2.1919,-2.1919,-2.1785,-2.1696,-2.1696,-2.1696,-2.1604,-2.1438,-1.9936,-1.8245,-1.6448,-1.5334,-1.4609,-1.4315,-1.4302,-1.4302,-1.4302,-1.4162,-1.4088,-1.4088,-1.4088,-1.4088,-1.4088,-1.4088,-1.4088,0.0,0.0,0.0,0.0,0.0,0.0,0.0,-1.3843,-1.3712,-1.3803,-1.4347,-1.4945,-1.5317,-1.5939,-1.6743,-1.7642,-1.8116,-1.8466,-1.8745,-1.888,-1.9503,-2.1181,-2.1707,-2.2105,-2.2586,-2.2891,-2.2923,-2.2705,-2.2661,-2.2337,-2.1695,-2.1339,-2.1065,-2.0785,-1.959,-1.8818,-1.8667,-1.7735,-1.7163,-1.7001,-1.7001,-1.7001,-1.7001,-1.7001,-1.7001,-1.7001,-1.7001,-1.6953,-1.684,-1.6468,-1.5865,-1.516,-1.5131,-1.5705,-1.646,-1.6545,-1.7268,-1.8107,-1.7842,-1.7856,-1.8109,-1.8636,-1.8525,-1.8269,-1.8591,-1.8694,-1.8752,-1.9016,-1.8899,-1.8694,-1.8643,-1.8651,-1.8477,-1.7974,-1.8489,-1.8803,-1.7683,-1.7887,-1.8243,-1.8088,-1.7809,-1.7755,-1.8449,-1.9497,-2.0322,-2.0503,-2.1266,-2.183,-2.2008,-2.183,-2.1696,-2.1696,-2.1553,-2.1275,-2.0862,-1.9167,-1.7236,-1.5199,-1.5095,-1.5068,-1.5015,-1.4736,-1.4603,-1.4603,-1.4322,-1.4168,-1.4168,-1.4115,-1.4088,-1.4088,-1.4088,-1.4088,-1.1506,-1.1231,-1.1163,-1.1562,-1.1529,-1.1704,0.0,-1.3677,-1.4486,-1.4909,-1.5445,-1.5876,-1.6145,-1.6597,-1.7168,-1.7911,-1.8089,-1.8282,-1.8724,-1.8455,-1.8271,-1.8515,-2.0044,-2.1025,-2.0858,-2.1979,-2.2331,-2.1252,-2.0971,-2.0297,-1.8903,-1.8666,-1.8424,-1.8098,-1.7582,-1.7369,-1.7571,-1.7017,-1.6829,-1.7001,-1.7001,-1.7001,-1.7001,-1.7001,-1.7001,-1.7001,-1.7001,-1.677,-1.6387,-1.6334,-1.5763,-1.5037,-1.5739,-1.5993,-1.5771,-1.4864,-1.5098,-1.5958,-1.6643,-1.6988,-1.7312,-1.8434,-1.8372,-1.7933,-1.8255,-1.8357,-1.8364,-1.8401,-1.8379,-1.8308,-1.8067,-1.8024,-1.796,-1.7676,-1.7711,-1.7633,-1.6932,-1.6891,-1.6829,-1.651,-1.6231,-1.6157,-1.6447,-1.7185,-1.8334,-2.0068,-2.1311,-2.1963,-2.1776,-2.1741,-2.1696,-2.1696,-2.0943,-1.9749,-1.7924,-1.7569,-1.6811,-1.5456,-1.5351,-1.5237,-1.5022,-1.4975,-1.4961,-1.4961,-1.4623,-1.4476,-1.4469,-1.4215,-1.4088,-1.4088,-1.4088,-1.4088,-1.1439,-1.1283,-1.1098,-1.0702,-1.0776,-1.1014,-1.1466,-1.2032,-1.2534,-1.2947,-1.3389,-1.4043,-1.5008,-1.5602,-1.6338,-1.7636,-1.7992,-1.8159,-1.8358,-1.8212,-1.7992,-1.7712,-1.8457,-1.908,-1.9136,-1.9645,-1.9778,-1.9287,-1.9198,-1.8766,-1.7841,-1.7593,-1.7351,-1.7114,-1.691,-1.6856,-1.6958,-1.6894,-1.691,-1.7001,-1.6872,-1.6807,-1.6807,-1.6807,-1.6807,-1.6797,-1.6662,-1.6582,-1.6676,-1.6676,-1.6546,-1.6366,-1.6612,-1.6545,-1.6239,-1.5821,-1.631,-1.7201,-1.7173,-1.7398,-1.7796,-1.8142,-1.8035,-1.7838,-1.7977,-1.8021,-1.8057,-1.8247,-1.8167,-1.7972,-1.7875,-1.7735,-1.7497,-1.7112,-1.6884,-1.6656,-1.6238,-1.6163,-1.6129,-1.6001,-1.5879,-1.5832,-1.5927,-1.6723,-1.7785,-1.9201,-2.0348,-2.1221,-2.1642,-2.1696,-2.1696,-2.1696,-2.1365,-2.0529,-1.9155,-1.8519,-1.7678,-1.6579,-1.612,-1.5838,-1.5709,-1.5547,-1.5452,-1.5452,-1.5019,-1.4776,-1.4776,-1.5248,-1.5432,-1.5432,-1.6036,-1.6294,-1.1489,-1.1071,-1.0489,-0.9841,-1.0084,-1.0459,-1.0391,-1.0874,-1.1395,-1.1585,-1.1913,-1.25,-1.3613,-1.4544,-1.5559,-1.6989,-1.7703,-1.8143,-1.8342,-1.8249,-1.8036,-1.7614,-1.7597,-1.7733,-1.7912,-1.7985,-1.7992,-1.7992,-1.7933,-1.7744,-1.7394,-1.7141,-1.6899,-1.6736,-1.6725,-1.663,-1.6565,-1.6732,-1.6813,-1.6813,-1.6646,-1.6565,-1.6565,-1.6565,-1.6533,-1.652,-1.6285,-1.6304,-1.6434,-1.6594,-1.6708,-1.6857,-1.7076,-1.7008,-1.6756,-1.7016,-1.7364,-1.7648,-1.7418,-1.7574,-1.7836,-1.78,-1.7757,-1.7684,-1.7684,-1.7684,-1.7728,-1.7969,-1.7867,-1.7636,-1.7588,-1.7404,-1.706,-1.6597,-1.6258,-1.6028,-1.5832,-1.5784,-1.5784,-1.5784,-1.5784,-1.5784,-1.5784,-1.6393,-1.7318,-1.8611,-1.943,-2.0348,-2.1553,-2.1696,-2.1597,-2.132,-2.132,-2.0952,-1.9977,-1.8972,-1.8102,-1.7466,-1.6636,-1.6359,-1.6676,-1.6511,-1.6483,-1.6706,-1.6254,-1.5963,-1.5918,-1.6522,-1.6814,-1.6822,-1.7573,-1.7933,-1.1169,-1.0032,-0.8581,-0.8847,-0.941,-0.9859,-0.9662,-1.0938,-1.213,-1.2082,-1.2231,-1.2405,-1.2457,-1.386,-1.5218,-1.5913,-1.7098,-1.8211,-1.9033,-1.8692,-1.8247,-1.7961,-1.763,-1.7492,-1.7503,-1.7663,-1.7728,-1.7728,-1.7529,-1.7394,-1.7378,-1.7141,-1.6899,-1.6736,-1.6725,-1.6554,-1.6328,-1.6334,-1.6334,-1.6334,-1.6328,-1.6328,-1.6328,-1.6328,-1.6199,-1.6028,-1.6023,-1.5693,-1.5299,-1.5784,-1.578,-1.5512,-1.6866,-1.7242,-1.7084,-1.7931,-1.7234,-1.5985,-1.6777,-1.688,-1.6773,-1.7527,-1.7604,-1.7301,-1.7301,-1.7301,-1.7301,-1.7308,-1.7308,-1.7254,-1.708,-1.6845,-1.6548,-1.6272,-1.6028,-1.5832,-1.5784,-1.5784,-1.5784,-1.5784,-1.5784,-1.5784,-1.5784,-1.5832,-1.6527,-1.8511,-1.8842,-1.953,-2.1463,-2.1696,-2.1365,-2.0439,-2.0339,-1.9931,-1.8926,-1.7924,-1.7419,-1.7692,-1.677,-1.6723,-1.7894,-1.7933,-1.8249,-1.8977,-1.873,-1.8463,-1.8203,-1.7958,-1.7834,-1.7877,-1.7885,-1.8061,-1.081,-1.0075,-0.92,-0.8775,-0.8958,-0.9181,-0.8954,-0.939,-0.9772,-0.9668,-0.9655,-1.0095,-1.1658,-1.2767,-1.4132,-1.6266,-1.6684,-1.714,-1.8456,-1.7794,-1.7278,-1.7725,-1.7801,-1.7784,-1.7626,-1.744,-1.7471,-1.7887,-1.7675,-1.7613,-1.777,-1.7348,-1.7431,-1.8034,-1.7788,-1.8036,-1.8802,-1.8369,-1.8056,-1.7816,-1.6625,-1.5989,-1.5833,-1.5682,-1.5505,-1.5478,-1.5316,-1.5313,-1.5462,-1.6127,-1.6461,-1.6726,-1.8374,-1.8395,-1.7636,-1.8591,-1.8015,-1.6862,-1.7371,-1.7468,-1.7394,-1.7465,-1.7374,-1.7279,-1.7279,-1.7279,-1.7279,-1.7279,-1.7279,-1.7279,-1.72,-1.7012,-1.6784,-1.6548,-1.6265,-1.6076,-1.6076,-1.6076,-1.6076,-1.6076,-1.6076,-1.6028,-1.5832,-1.5784,-1.6473,-1.8511,-1.9894,-2.0952,-2.1597,-2.1696,-2.1597,-2.1275,-2.1221,-2.0853,-1.9886,-1.888,-1.8102,-1.7738,-1.6711,-1.6775,-1.8226,-1.781,-1.8066,-1.9125,-1.8655,-1.8256,-1.8029,-1.8619,-1.8836,-1.8715,-1.9478,-1.988,-1.0355,-0.9783,-0.9215,-0.8778,-0.8843,-0.8939,-0.8677,-0.8706,-0.8713,-0.8417,-0.8234,-0.8729,-1.0608,-1.1316,-1.2609,-1.5628,-1.5811,-1.6292,-1.8225,-1.7744,-1.7347,-1.7972,-1.814,-1.8174,-1.8019,-1.7725,-1.7644,-1.7952,-1.7821,-1.7804,-1.7963,-1.7688,-1.7995,-1.9025,-1.8781,-1.9167,-2.0104,-1.9286,-1.8405,-1.7565,-1.6555,-1.5871,-1.5518,-1.5389,-1.5212,-1.4931,-1.4826,-1.4977,-1.5352,-1.5946,-1.6475,-1.7126,-1.842,-1.8391,-1.7688,-1.8337,-1.8059,-1.7308,-1.7567,-1.764,-1.7611,-1.7352,-1.7279,-1.7279,-1.7279,-1.7279,-1.7279,-1.7279,-1.7279,-1.7279,-1.7279,-1.7153,-1.6979,-1.6777,-1.6548,-1.6359,-1.6359,-1.6359,-1.6359,-1.6359,-1.6272,-1.617,-1.5981,-1.6157,-1.6897,-1.8557,-2.0167,-2.132,-2.1651,-2.1696,-2.1632,-2.1485,-2.1511,-2.105,-1.9997,-1.9167,-1.8375,-1.753,-1.6718,-1.6841,-1.8143,-1.7728,-1.8148,-1.9548,-1.9144,-1.8982,-1.9067,-1.9639,-1.9869,-1.9887,-2.0503,-2.0848,-1.0009,-0.9195,-0.8636,-0.8902,-0.9147,-0.9166,-0.8728,-0.8863,-0.8951,-0.8331,-0.8232,-0.8561,-0.9439,-0.9838,-1.1042,-1.4203,-1.4604,-1.5534,-1.8206,-1.8312,-1.8218,-1.8512,-1.8507,-1.8507,-1.8442,-1.8261,-1.8082,-1.7952,-1.8022,-1.8022,-1.8033,-1.8033,-1.8552,-1.9668,-1.9649,-1.9843,-2.0364,-1.9132,-1.7669,-1.5965,-1.6189,-1.6035,-1.5496,-1.5743,-1.5399,-1.4592,-1.4603,-1.4764,-1.504,-1.5351,-1.5918,-1.6607,-1.7167,-1.7326,-1.7333,-1.7372,-1.7326,-1.7279,-1.7279,-1.7279,-1.7279,-1.7279,-1.7279,-1.7279,-1.7279,-1.7279,-1.7279,-1.7279,-1.7279,-1.7279,-1.7279,-1.7153,-1.7026,-1.6979,-1.6831,-1.6629,-1.6629,-1.6629,-1.6629,-1.6629,-1.6407,-1.6224,-1.617,-1.6777,-1.7552,-1.8565,-1.955,-2.0548,-2.1516,-2.1659,-2.1504,-2.1117,-2.1071,-2.0528,-1.9247,-1.8754,-1.8105,-1.7087,-1.6652,-1.6854,-1.7755,-1.7743,-1.8468,-2.0087,-2.0111,-2.0406,-2.1029,-2.0792,-2.0834,-2.107,-2.0875,-2.0917,-1.0056,-0.966,-0.9331,-0.9407,-0.9483,-0.9447,-0.9235,-0.9094,-0.8851,-0.8501,-0.892,-0.9678,-1.0597,-1.1333,-1.2391,-1.4334,-1.3726,-1.4031,-1.7015,-1.6532,-1.626,-1.7319,-1.7437,-1.699,-1.5954,-1.652,-1.705,-1.7227,-1.8053,-1.8613,-1.8804,-1.8565,-1.8908,-1.9966,-2.043,-2.1133,-2.2282,-2.171,-2.0873,-1.9689,-1.9361,-1.8678,-1.7825,-1.7796,-1.7124,-1.5958,-1.5805,-1.5591,-1.5332,-1.6039,-1.6284,-1.6442,-1.7854,-1.7971,-1.7372,-1.8149,-1.7924,-1.7279,-1.7279,-1.7279,-1.7279,-1.7279,-1.7279,-1.7279,-1.7279,-1.7279,-1.7279,-1.7279,-1.7279,-1.7279,-1.7279,-1.7239,-1.72,-1.7026,-1.6932,-1.6885,-1.6885,-1.6885,-1.6885,-1.6885,-1.6501,-1.613,-1.5933,-1.6062,-1.6527,-1.7552,-1.83,-1.9348,-2.1045,-2.1273,-2.1117,-2.0714,-2.0668,-1.9976,-1.8232,-1.7993,-1.7301,-1.5873,-1.5487,-1.5994,-1.7529,-1.7043,-1.7472,-1.8983,-1.8713,-1.8583,-1.86,-1.9192,-1.9434,-1.9371,-2.0094,-2.0463,-1.0001,-0.9347,-0.8822,-0.8822,-0.8778,-0.8669,-0.8351,-0.8892,-0.9298,-0.8889,-0.9454,-1.0369,-1.1354,-1.128,-1.1714,-1.3749,-1.2827,-1.2726,-1.5379,-1.5109,-1.5017,-1.5998,-1.6073,-1.5749,-1.4973,-1.551,-1.6193,-1.6969,-1.8053,-1.8801,-1.906,-1.895,-1.9328,-2.0513,-2.0719,-2.1143,-2.1959,-2.2299,-2.1821,-2.0547,-2.0335,-1.9671,-1.8745,-1.86,-1.7804,-1.6493,0.0,-1.6179,-1.5967,-1.6271,-1.6621,-1.6994,-1.7837,-1.7875,-1.757,-1.7977,-1.7785,-1.7279,-1.7279,-1.7279,-1.7279,-1.7279,-1.7279,-1.7279,-1.7279,-1.7279,-1.7279,-1.7279,-1.7279,-1.7279,-1.7279,-1.7279,-1.7286,-1.7153,-1.7106,-1.7106,-1.7106,-1.7106,-1.7113,-1.7026,-1.7106,-1.6911,-1.6116,-1.6346,-1.676,-1.7082,-1.7402,-1.8063,-1.9273,-2.0254,-2.0525,-1.9749,-1.9662,-1.887,-1.6842,-1.6915,-1.6457,-1.5121,-1.5144,-1.5619,-1.6543,-1.6194,-1.6521,-1.7722,-1.7531,-1.7553,-1.7844,-1.8247,-1.8607,-1.8984,-1.9103,-1.942,-0.9835,-0.8747,-0.7793,-0.7776,-0.7674,-0.7432,-0.6991,-0.8535,-0.9848,-0.93,-0.9938,-1.0874,-1.1715,-1.063,-1.0388,-1.281,-1.1913,-1.1635,-1.3649,-1.3937,-1.4125,-1.4577,-1.46,-1.4581,-1.4385,-1.4493,-1.5125,-1.6539,-1.7776,-1.8587,-1.9012,-1.9024,-1.9599,-2.0848,-2.0526,-2.0456,-2.0785,-2.1868,-2.1744,-2.0415,-2.0563,-2.0171,-1.931,-1.9066,-1.8222,-1.6914,-1.6806,-1.6811,-1.687,-1.6592,-1.7013,-1.7816,-1.7529,-1.7548,-1.7721,-1.7388,-1.7304,-1.7274,-1.7311,-1.7257,-1.7181,-1.7171,-1.7138,-1.7138,-1.7044,-1.7091,-1.7138,-1.7138,-1.7232,-1.7279,-1.7279,-1.7279,-1.7279,-1.7279,-1.7279,-1.7279,-1.7279,-1.7279,-1.7239,-1.7019,-1.7613,-1.7738,-1.6407,-1.6911,-1.7294,-1.6788,-1.6791,-1.6892,-1.7082,-1.8845,-1.9638,-1.8462,-1.8337,-1.754,-1.5582,-1.5826,-1.5659,-1.4671,-1.5127,-1.5418,-1.5313,-1.5347,-1.5748,-1.6501,-1.6494,-1.6862,-1.7634,-1.757,-1.8014,-1.8935,-1.8135,-1.8256,-0.9877,-0.8856,-0.7782,-0.7679,-0.7432,-0.7115,-0.6953,-0.8245,-0.9422,-0.9111,-1.044,-1.1654,-1.1729,-1.1202,-1.1093,-1.2133,-1.0954,-1.0644,-1.2853,-1.307,-1.3124,-1.3332,-1.3232,-1.2684,-1.1571,-1.2295,-1.3427,-1.4825,-1.6202,-1.7479,-1.8683,-1.8752,-1.9056,-1.9594,-1.9521,-2.0237,-2.1743,-2.2307,-2.284,-2.3424,-2.3181,-2.268,-2.1912,-2.1094,-2.0111,-1.9041,-1.8497,0.0,-1.8396,-1.797,-1.7884,-1.8023,-1.797,-1.7744,-1.7359,-1.7301,-1.7165,-1.702,-1.7238,-1.7025,-1.6621,-1.6444,-1.6379,-1.6285,-1.5669,-1.5906,-1.6379,-1.6379,-1.681,-1.7279,-1.7279,-1.7279,-1.7279,-1.7279,-1.7279,-1.7279,-1.7279,-1.7279,-1.7239,-1.7019,-1.6965,-1.677,-1.6265,-1.6163,-1.6007,-1.5708,-1.6076,-1.6338,-1.6085,-1.7093,-1.7629,-1.7072,-1.7032,-1.6605,-1.5477,-1.5487,-1.5167,-1.425,-1.4453,-1.4663,-1.4824,-1.5041,-1.5298,-1.5624,-1.5458,-1.5541,-1.5873,-1.6353,-1.6796,-1.7147,-1.7715,-1.8037,-1.0358,-0.87,-0.7057,-0.7357,-0.6754,-0.6244,-0.6752,-0.8503,-1.0044,-1.0157,-1.1449,-1.2455,-1.2243,-1.1569,-1.1133,-1.1462,-1.0224,-0.978,-1.1243,-1.1369,-1.1444,-1.1773,-1.1751,-1.1442,-1.0784,-1.118,-1.2325,-1.4331,-1.5155,-1.6381,-1.8362,-1.8481,-1.8539,-1.8578,-1.9056,-1.9619,-2.0325,-2.1635,-2.2417,-2.2712,-2.2994,-2.274,-2.1944,-2.1326,-2.0515,-1.9554,-1.9273,-1.8978,-1.8781,-1.855,-1.8567,-1.8707,-1.8528,-1.8279,-1.7923,-1.7579,-1.7322,-1.7077,-1.6894,-1.6797,-1.6605,-1.6095,-1.5973,-1.5818,-1.4949,-1.514,-1.5622,-1.5622,-1.6143,-1.6716,-1.6716,-1.6998,-1.7279,-1.7279,-1.7279,-1.7279,-1.7279,-1.7279,-1.7286,-1.7153,-1.7466,-1.7458,-1.6541,-1.6716,-1.6596,-1.5576,-1.5545,-1.5501,-1.5151,-1.5433,-1.573,-1.5982,-1.6,-1.5684,-1.4783,-1.4699,-1.4573,-1.4286,-1.4363,-1.4566,-1.4908,-1.5048,-1.5173,-1.5389,-1.5049,-1.5007,-1.5389,-1.5446,-1.5889,-1.669,-1.6475,-1.6734,-1.0816,-0.8891,-0.6934,-0.7354,-0.6621,-0.5947,-0.6592,-0.8761,-1.071,-1.0914,-1.2099,-1.3037,-1.2753,-1.1925,-1.119,-1.1038,-0.9953,-0.9359,-0.9981,-1.007,-1.0229,-1.0711,-1.0741,-1.0721,-1.0721,-1.0889,-1.1969,-1.4275,-1.5011,-1.6212,-1.8081,-1.8094,-1.7907,-1.763,-1.8281,-1.8614,-1.8548,-2.0552,-2.1419,-2.123,-2.2088,-2.2122,-2.1396,-2.0951,-2.0399,-1.9737,-1.9637,-1.9417,-1.9104,-1.9012,-1.9126,-1.935,-1.899,-1.8698,-1.8441,-1.7743,-1.7326,-1.7097,-1.6565,-1.6491,-1.648,-1.5707,-1.5438,-1.5282,-1.4483,-1.4476,-1.4785,-1.4848,-1.5384,-1.6001,-1.6143,-1.6615,-1.7091,-1.7279,-1.7274,-1.7245,-1.7311,-1.7337,-1.7366,-1.7293,-1.7931,-1.8101,-1.6831,-1.7178,-1.7101,-1.5623,-1.515,-1.4901,-1.4556,-1.4305,-1.4412,-1.5103,-1.5186,-1.4943,-1.4292,-1.4208,-1.4243,-1.4398,-1.4398,-1.4566,-1.4915,-1.4999,-1.509,-1.5257,-1.4798,-1.4791,-1.534,-1.4832,-1.5198,-1.6302,-1.5409,-1.5497,-1.0941,-0.978,-0.8542,-0.8405,-0.7965,-0.7381,-0.6665,-0.8737,-1.0591,-0.9957,-1.1586,-1.3037,-1.2753,-1.2327,-1.1791,-1.1093,-1.0411,-1.0072,-1.0218,-1.0141,-1.027,-1.0789,-1.0739,-1.0721,-1.0721,-1.1635,-1.2755,-1.4066,-1.6812,-1.8274,-1.7949,-1.7461,-1.708,-1.6821,-1.6648,-1.6968,-1.7702,-1.9244,-2.0317,-2.0933,-2.1712,-2.1824,-2.1388,-2.0668,-2.0326,-2.0201,-1.9783,-1.9828,0.0,-1.9691,-1.9525,-1.9517,-1.9118,-1.8734,-1.8216,-1.7359,-1.6877,-1.6637,-1.647,-1.6067,-1.551,-1.4825,-1.4482,-1.4299,-1.3999,-1.3838,-1.3755,-1.3939,-1.4573,-1.5337,-1.6048,-1.6237,-1.6473,-1.7138,-1.7106,-1.702,-1.7267,-1.756,-1.7684,-1.7337,-1.7432,-1.7349,-1.6725,-1.6447,-1.6162,-1.5484,-1.515,-1.4901,-1.4556,-1.4419,-1.4398,-1.4482,-1.4475,-1.4524,-1.4657,-1.4482,-1.4398,-1.4398,-1.4398,-1.4433,-1.4482,-1.465,-1.4741,-1.4776,-1.4538,-1.4664,-1.5131,-1.4838,-1.4821,-1.5065,-1.5255,-1.524,-1.1215,-1.0184,-0.9012,-0.9282,-0.8332,-0.7583,-0.8556,-0.9758,-1.0831,-1.1352,-1.2565,-1.3462,-1.3006,-1.21,-1.1283,-1.0925,-0.9661,-0.8884,-0.9275,-0.9455,-0.9707,-1.0314,-1.0479,-1.0513,-1.0565,-1.1694,-1.3387,-1.5734,-1.7562,-1.8718,-1.9165,-1.835,-1.7446,-1.6471,-1.6356,-1.6459,-1.6823,-1.774,-1.8337,-1.857,-1.9216,-1.9654,-1.9819,-1.9532,-1.9729,-2.0292,-2.0102,-2.0147,0.0,-2.011,-1.9884,-1.9628,-1.9485,-1.8974,-1.8237,-1.7459,-1.7036,-1.672,-1.602,-1.5762,-1.5713,-1.543,-1.4861,-1.4167,-1.3233,-1.2817,-1.2748,-1.2953,-1.3647,-1.4466,-1.4916,-1.5524,-1.6104,-1.6793,-1.6951,-1.7132,-1.7792,-1.8021,-1.8072,-1.794,-1.777,-1.7539,-1.7129,-1.6864,-1.6497,-1.5899,-1.5625,-1.5289,-1.4808,-1.4588,-1.4475,-1.4587,-1.4566,-1.4608,-1.4692,-1.465,-1.4566,-1.4566,-1.4482,-1.444,-1.4566,-1.4524,-1.4566,-1.4692,-1.4469,-1.46,-1.509,-1.4807,-1.4832,-1.5192,-1.497,-1.4992,-1.12,-1.051,-0.9879,-1.0421,-0.9374,-0.8628,-1.0211,-1.0821,-1.1278,-1.197,-1.3077,-1.3756,-1.3302,-1.2303,-1.1402,-1.0972,-0.9813,-0.8858,-0.8738,-0.9137,-0.9561,-0.9822,-0.9998,-1.0272,-1.0767,-1.2264,-1.4343,-1.7129,-1.8253,-1.9027,-1.974,-1.9362,-1.8564,-1.7325,-1.6869,-1.6673,-1.658,-1.6964,-1.7034,-1.6766,-1.7526,-1.8045,-1.8373,-1.8373,-1.8742,-1.9446,-1.9729,-1.9874,0.0,-2.0036,-2.0064,-1.9974,-1.9739,-1.9264,-1.8625,-1.7879,-1.7297,-1.6806,-1.592,-1.5661,-1.5732,-1.5732,-1.5134,-1.422,-1.3227,-1.2642,-1.2308,-1.2562,-1.3178,-1.3855,-1.4107,-1.4796,-1.5588,-1.6104,-1.6481,-1.6959,-1.7689,-1.8158,-1.8386,-1.8196,-1.813,-1.7945,-1.7473,-1.7258,-1.6907,-1.6355,-1.5929,-1.5451,-1.4945,-1.4665,-1.4516,-1.4594,-1.4734,-1.4824,-1.4908,-1.4866,-1.4824,-1.4824,-1.4566,-1.4482,-1.4608,-1.4398,-1.4363,-1.4531,-1.44,-1.4524,-1.4999,-1.4726,-1.4813,-1.5228,-1.4721,-1.4757,-1.092,-1.0956,-1.1363,-1.1991,-1.1592,-1.1077,-1.1257,-1.175,-1.1945,-1.1161,-1.2551,-1.3795,-1.3554,-1.3281,-1.2651,-1.1377,-1.1424,-1.0888,-0.8962,-0.9613,-1.0135,-0.9658,-0.9479,-0.997,-1.1422,-1.3657,-1.5824,-1.7853,-1.897,-1.9466,-1.9205,-2.0277,-2.0475,-1.9582,-1.8252,-1.7442,-1.7179,-1.7224,-1.6884,-1.6224,-1.7368,-1.7666,-1.7343,-1.7343,-1.7343,-1.739,-1.8373,-1.8834,0.0,-1.9443,-2.0079,-2.0627,-1.9802,-1.9488,-1.9393,-1.8605,-1.7627,-1.6664,-1.6211,-1.5805,-1.5389,-1.5389,-1.4957,-1.4398,-1.4363,-1.3576,-1.2753,-1.3023,-1.3332,-1.3643,-1.3843,-1.4241,-1.4714,-1.5041,-1.5676,-1.6279,-1.6635,-1.7825,-1.8591,-1.7947,-1.8343,-1.8476,-1.7552,-1.7389,-1.7234,-1.6678,-1.5867,-1.5198,-1.4918,-1.4603,-1.4398,-1.4398,-1.4824,-1.5173,-1.5389,-1.5215,-1.509,-1.509,-1.4657,-1.4398,-1.4398,-1.4201,-1.4088,-1.413,-1.4321,-1.4517,-1.4692,-1.4638,-1.4698,-1.49,-1.4618,-1.464,-1.2052,-1.2148,-1.2234,-1.2192,-1.2072,-1.2032,-1.2451,-1.2678,-1.2851,-1.3002,-1.3783,-1.425,-1.3854,-1.2982,-1.2076,-1.1327,-1.0791,-0.9962,-0.8431,-1.023,-1.1411,-1.0488,-1.1319,-1.2768,-1.4855,-1.5439,-1.6954,-2.003,-2.0398,-2.079,-2.1514,-2.1586,-2.0835,-1.9045,-1.8591,-1.7932,-1.7072,-1.6677,-1.6249,-1.5735,-1.5522,-1.5851,-1.656,-1.6365,-1.664,-1.7343,-1.7623,-1.8011,-1.8393,-1.8604,-1.9141,-1.9871,-1.9619,-1.9624,-1.9727,-1.9201,-1.8678,-1.8207,-1.7755,-1.7432,-1.7074,-1.646,-1.6131,-1.5842,-1.5242,-1.4171,-1.3188,-1.3111,-1.328,-1.3396,-1.3225,-1.3348,-1.3774,-1.4442,-1.4887,-1.5388,-1.608,-1.655,-1.6981,-1.7344,-1.7394,-1.7415,-1.7659,-1.749,-1.7117,-1.6528,-1.629,-1.581,-1.49,-1.4744,-1.4644,-1.4419,-1.4524,-1.4783,-1.5173,-1.5264,-1.5257,-1.509,-1.4783,-1.4608,-1.4608,-1.4286,-1.4166,-1.4279,-1.4068,-1.4188,-1.4692,-1.4552,-1.4612,-1.4907,-1.5065,-1.5057,-1.2602,-1.249,-1.2715,-1.2841,-1.3028,-1.34,-1.4076,-1.3996,-1.3905,-1.4278,-1.4489,-1.4533,-1.4377,-1.3478,-1.2635,-1.2285,-1.1799,-1.0998,-0.9697,-1.1414,-1.2571,-1.1907,-1.3192,-1.4847,-1.6728,-1.7121,-1.8321,-2.0935,-2.0936,-2.1366,-2.2535,-2.2253,-2.1317,-1.9758,-1.9311,-1.8708,-1.7867,-1.6743,-1.5865,-1.5185,-1.4576,-1.4723,-1.548,-1.533,-1.5561,-1.6163,-1.6467,-1.6958,0.0,-1.8029,-1.8854,-1.987,-1.9997,-2.014,-2.0265,-2.0021,-1.959,-1.9067,-1.8709,-1.839,-1.8029,-1.7391,-1.6984,-1.6593,-1.5912,-1.4809,-1.3694,-1.3407,-1.3239,-1.3101,-1.2944,-1.2837,-1.285,-1.3375,-1.3951,-1.4477,-1.5022,-1.5441,-1.5836,-1.6213,-1.6524,-1.6856,-1.7177,-1.7377,-1.7333,-1.6806,-1.6478,-1.5974,-1.5,-1.4772,-1.4581,-1.4299,-1.4356,-1.4356,-1.4307,-1.4915,-1.5257,-1.5215,-1.4566,-1.4307,-1.4482,-1.373,-1.3425,-1.3651,-1.3442,-1.3532,-1.3943,-1.426,-1.4337,-1.4234,-1.5037,-1.5214,0.0,-1.2524,-1.3141,-1.3891,-1.4543,-1.5204,-1.5975,-1.561,0.0,-1.5099,-1.4907,-1.4818,-1.5061,-1.4448,-1.3896,-1.3855,-1.3926,-1.3536,-1.2273,-1.3043,-1.3796,-1.3943,-1.5169,-1.6409,-1.7391,-1.854,-1.9722,-2.0856,-2.0813,-2.1279,-2.2449,-2.2219,-2.1808,-2.1418,-2.0344,-1.9596,-1.9223,-1.728,-1.5851,-1.4879,-1.449,-1.4346,-1.4346,-1.4298,-1.4286,0.0,-1.5066,-1.5842,-1.6711,-1.7776,-1.9074,-2.0503,-2.0781,-2.0924,-2.0932,-2.0934,-2.0265,-1.934,-1.918,-1.8815,-1.8342,-1.8072,-1.7349,-1.6563,-1.623,-1.5353,-1.4368,-1.3844,-1.3212,-1.2783,-1.297,-1.253,-1.2029,-1.2062,-1.283,-1.3554,-1.3578,-1.4427,-1.5046,-1.483,-1.5785,-1.6615,-1.6325,-1.7104,-1.764,-1.7311,-1.6528,-1.5825,-1.5288,-1.476,-1.4356,-1.4124,-1.4237,-1.3922,-1.3057,-1.4265,-1.509,-1.5173,-1.4006,-1.3535,-1.4013,-1.2735,-1.2113,-1.2413,-1.2589,-1.2665,-1.2624,-1.3763,-1.3892,-1.3216,-1.4667,-1.518,-1.5616,0.0,-1.5747,-1.5721,-1.6261,-1.6791,0.0,-1.6818,-1.6675,-1.6259,-1.6027,-1.5697,-1.5147,-1.459,-1.3987,-1.3401,-1.4265,-1.4543,-1.3136,-1.4923,-1.6621,-1.7279,-1.7721,-1.8354,-1.9129,-1.9486,-2.0091,-2.1176,-2.1246,-2.1383,-2.167,-2.1346,-2.1284,-2.1555,-2.0383,-1.953,-1.919,-1.8107,-1.7189,-1.6433,-1.5207,-1.4694,-1.4885,-1.449,-1.4183,-1.4037,-1.4895,-1.5517,-1.6125,-1.7466,-1.8848,-2.0085,-2.0664,-2.0964,-2.1087,-2.1445,-2.0903,-1.9942,-2.0289,-1.9891,-1.9134,-1.8273,-1.7009,-1.5849,-1.577,-1.5471,-1.4963,-1.4117,-1.34,-1.2878,-1.2647,-1.1926,-1.137,-1.1693,-1.2002,-1.2225,-1.2413,-1.3095,-1.3756,-1.4235,-1.5007,-1.5763,-1.6294,-1.6773,-1.7013,-1.6645,-1.6425,-1.6126,-1.5555,-1.4972,-1.4566,-1.4363,-1.3591,-1.3075,-1.3014,-1.3837,-1.3971,-1.3082,-1.2735,-1.2784,-1.3252,-1.2443,-1.2197,-1.2614,-1.2472,-1.2246,-1.1924,-1.2874,-1.3491,-1.3788,-1.4358,-1.4873,-1.7816,-1.7397,-1.7101,-1.6942,-1.7578,-1.8245,-1.808,-1.7874,-1.7601,-1.7392,0.0,-1.6181,-1.5821,-1.5591,-1.5317,-1.505,-1.632,-1.7254,-1.7055,-1.7734,-1.8614,-1.9748,-1.931,-1.9372,-2.0434,-2.0531,-2.0706,-2.1135,-2.1096,-2.104,-2.09,-2.0704,-2.0667,-2.0887,-2.0351,-1.986,-1.9425,-1.8473,-1.7673,-1.7099,-1.6042,-1.5582,-1.5727,-1.5351,-1.5088,-1.4975,-1.5338,-1.5879,-1.6627,-1.7812,-1.8854,-1.981,-2.0669,-2.09,-2.0824,-2.1073,-2.0782,-2.0247,-2.043,-2.0078,-1.9499,-1.8912,-1.7813,-1.6682,-1.6521,-1.5994,-1.5328,-1.4431,-1.3701,-1.3077,-1.2583,-1.1858,-1.1216,-1.1192,-1.1209,-1.1359,-1.1947,-1.2348,-1.282,-1.3686,-1.4511,-1.5214,-1.5623,-1.6241,-1.6617,-1.6441,-1.625,-1.6017,-1.5627,-1.5198,-1.4783,-1.4566,-1.3499,-1.2729,-1.2419,-1.2467,-1.2473,-1.2473,-1.218,-1.2229,-1.2705,-1.1837,-1.1512,-1.1904,-1.1642,-1.1427,-1.1186,-1.2092,-1.2719,-1.3101,-1.4005,-1.4608,-1.9195,-1.8496,-1.7787,-1.7926,-1.8664,-1.9393,-1.9393,0.0,0.0,0.0,0.0,-1.6683,-1.6831,-1.6882,-1.7084,-1.749,-1.8999,-2.0483,-2.1635,-2.072,-2.0304,-2.1233,-2.0248,-1.9925,-2.099,-2.1109,-2.0989,-2.0643,-2.0536,-2.0416,-2.0296,-2.0122,-2.0056,-2.0132,-2.0278,-2.0139,-1.9748,-1.8694,-1.7937,-1.752,-1.6873,-1.658,-1.6536,-1.633,-1.6155,-1.6046,0.0,0.0,-1.7313,-1.8377,-1.9117,-1.9687,-2.0709,-2.0876,-2.0529,-2.0459,-2.04,-2.0334,-2.0062,-1.9772,-1.952,-1.9379,-1.8627,-1.7732,-1.7347,-1.6394,-1.531,-1.4691,-1.3951,-1.3224,-1.2706,-1.2049,-1.1408,-1.0929,-1.082,-1.1047,-1.1864,-1.2123,-1.2379,-1.3157,-1.4064,-1.4695,-1.4824,-1.5559,-1.6206,-1.6301,-1.6082,-1.5827,-1.5655,-1.5332,-1.4957,-1.465,-1.3578,-1.2547,-1.1692,-1.1015,-1.1101,-1.2291,-1.1794,-1.1634,-1.2106,-1.116,-1.0756,-1.0988,-1.0756,-1.0597,-1.0597,-1.1447,-1.1881,-1.2011,-1.3442,-1.4176,-1.8633,-1.8669,-1.8687,-1.9367,-1.9666,-1.9793,-1.9793,-1.9438,0.0,0.0,0.0,0.0,0.0,-1.7762,-1.8176,-1.8711,-2.0795,-2.2526,-2.3111,-2.2999,-2.2281,-2.074,-2.0666,-2.0461,-1.9861,-1.9809,-1.9705,-1.9488,-1.9419,-1.9661,-2.0122,-1.9627,-1.9624,-2.0155,-1.9837,-1.9711,-1.986,-1.9237,-1.8961,-1.8955,-1.7523,-1.6858,-1.6814,-1.6382,-1.5908,-1.5427,0.0,-1.6909,-1.6724,-1.8898,-1.9829,-1.9981,-2.0728,-2.1062,-2.1118,-2.0722,-2.0479,-2.0216,-1.9554,-1.9287,-1.9133,-1.8323,-1.7554,-1.6777,-1.6118,-1.5331,-1.4656,-1.4521,-1.3858,-1.3119,-1.3042,-1.2354,-1.1709,-1.1857,-1.1874,-1.1955,-1.2273,-1.2563,-1.282,-1.2946,-1.3348,-1.3796,-1.4382,-1.4848,-1.5316,-1.5893,-1.5943,-1.587,-1.587,-1.5417,-1.4873,-1.4265,-1.3118,-1.2137,-1.1408,-1.089,-1.0679,-1.089,-1.0511,-1.0467,-1.0852,-1.0926,-1.0978,-1.0982,-1.0756,-1.0597,-1.0597,-1.0952,-1.137,-1.1773,-1.2392,-1.3089,-1.7745,-1.8234,-1.8789,-1.9178,-1.9709,-2.0186,-2.0186,-1.9964,0.0,0.0,0.0,0.0,0.0,-1.8545,-1.9341,-2.1367,-2.3213,-2.4498,-2.4726,-2.4042,-2.2974,-2.1509,-2.0743,-2.0165,-1.9709,-2.0072,-1.9982,-1.9249,-1.9641,-1.9725,-1.9382,-1.9197,-1.9126,-1.9205,-1.9344,-1.9345,-1.9234,-1.939,-1.9548,-1.9613,-1.8423,-1.7862,-1.7862,-1.777,-1.7392,-1.6925,0.0,-1.8105,-1.7834,-1.9367,-1.9909,-1.9878,-2.0876,-2.0964,-2.0438,-2.0128,-1.9935,-1.981,-1.9463,-1.9294,-1.9145,-1.8715,-1.8198,-1.7657,-1.7005,-1.6218,-1.5514,-1.5177,-1.4495,-1.3846,-1.3727,-1.3078,-1.2432,-1.2284,-1.2074,-1.2005,-1.2412,-1.2512,-1.2683,-1.3316,-1.3315,-1.3333,-1.3782,-1.4302,-1.4731,-1.5043,-1.5389,-1.5481,-1.5128,-1.4874,-1.4447,-1.3808,-1.2656,-1.1843,-1.1542,-1.0766,-1.0467,-1.0949,-1.0781,-1.0781,-1.0949,-1.1107,-1.1139,-1.1139,-1.0945,-1.0891,-1.0978,-1.0999,-1.116,-1.1517,-1.2124,-1.2783,-1.6994,-1.7532,-1.8201,-1.8475,0.0,-2.0226,-2.0465,-2.0329,0.0,0.0,0.0,0.0,-1.9314,-1.9561,-2.0692,-2.3596,-2.4871,-2.5495,-2.5537,-2.4242,-2.293,-2.1725,-2.0558,-1.9769,-1.9629,-2.025,-2.0251,-1.9228,-1.9721,-1.9701,-1.8915,-1.8737,-1.8593,-1.8463,-1.8852,-1.9056,-1.8974,-1.9525,-1.9851,-1.9873,-1.9268,-1.8948,-1.8888,-1.8987,-1.8729,-1.827,-1.8836,-1.9035,-1.9018,-1.983,-2.0143,-2.0259,-2.1065,-2.0737,-1.9806,-1.979,-1.9685,-1.958,-1.958,-1.9454,-1.931,-1.9136,-1.8892,-1.857,-1.7918,-1.7154,-1.6409,-1.5901,-1.5251,-1.4631,-1.4345,-1.3839,-1.3297,-1.2778,-1.2373,-1.2213,-1.2622,-1.2357,-1.2325,-1.3307,-1.2935,-1.2583,-1.2993,-1.35,-1.3981,-1.4342,-1.4699,-1.479,-1.444,-1.4265,-1.3893,-1.3222,-1.2363,-1.1806,-1.1634,-1.0819,-1.0516,-1.0954,-1.0954,-1.0954,-1.0954,-1.0781,-1.0646,-1.0646,-1.0474,-1.0469,-1.0646,-1.073,-1.0794,-1.0914,-1.174,-1.2481,-1.6733,-1.6707,-1.675,-1.7775,-1.8734,-1.964,-2.074,-2.0359,0.0,-2.0521,0.0,0.0,0.0,-2.0844,-2.2308,-2.4249,-2.4553,-2.4616,-2.4691,-2.3451,-2.1968,-2.0264,-1.9948,-1.9661,-1.9119,-1.9395,-1.9459,-1.9115,-1.8817,-1.8873,-1.9402,-1.828,-1.7941,-1.8667,-1.852,-1.8857,-1.9704,-1.978,-1.9809,-1.9829,-1.9826,-1.9664,-1.9329,-1.9163,-1.8703,-1.8035,-1.8579,-1.9071,-1.9528,-2.0259,-2.1094,-2.188,-2.1263,-2.0587,-1.996,-2.0429,-2.0243,-1.9782,-1.9782,-1.9756,-1.9651,-1.8967,-1.8726,-1.8526,-1.7701,-1.6984,-1.6472,-1.629,-1.5809,-1.5217,-1.4616,-1.4453,-1.4247,-1.3575,-1.339,-1.3296,-1.3042,-1.2263,-1.174,-1.2158,-1.1453,-1.1055,-1.1969,-1.2135,-1.2671,-1.4183,-1.3899,-1.3773,-1.4314,-1.3857,-1.3222,-1.2534,-1.2406,-1.2069,-1.1392,-1.1262,-1.0868,-1.0033,-0.999,-0.999,-0.999,-0.9157,-0.8719,-0.8719,-0.8707,-0.8703,-0.8719,-0.9579,-0.9871,-0.9738,-1.085,-1.1649,-1.5848,-1.6439,-1.709,-1.7248,-1.8092,0.0,0.0,-2.0262,-2.0439,-2.0811,-2.1015,0.0,0.0,-2.1569,-2.2765,-2.3208,-2.3759,-2.3927,-2.3388,-2.2391,-2.1308,-2.0044,-1.9445,-1.907,-1.8845,-1.9156,-1.9132,-1.8517,-1.8911,-1.9347,-1.9731,-1.9119,-1.9053,-1.972,-1.9206,-1.9029,-1.9299,-1.9561,-1.962,-1.9497,-1.9566,-1.9518,-1.9393,-1.9347,-1.9023,-1.8562,-1.9599,-1.9975,-1.9933,-2.0569,-2.108,-2.1373,-2.0814,-2.0634,-2.0616,-2.0289,-1.9987,-1.9798,-1.9798,-1.9798,-1.9747,-1.9475,-1.9319,-1.9135,-1.8432,-1.7672,-1.6961,-1.6539,-1.5921,-1.54,-1.5467,-1.5106,-1.4591,-1.4017,-1.3664,-1.3279,-1.255,-1.2144,-1.1886,-1.1802,-1.1358,-1.0999,-1.1091,-1.1629,-1.2343,-1.3389,-1.3816,-1.3977,-1.3815,-1.3561,-1.2966,-1.186,-1.1731,-1.1381,-1.0516,-1.0429,-1.0033,-0.9069,-0.9593,-0.9641,-0.9069,-0.8675,-0.85,-0.85,-0.85,-0.85,-0.85,-0.8851,-0.9291,-0.978,-1.0113,-1.0877,-1.5643,-1.6328,-1.7081,-1.6953,0.0,0.0,-1.9358,-2.0024,-2.0674,-2.1271,-2.1221,-2.0956,-2.0744,0.0,-2.2038,-2.2451,-2.277,-2.2879,-2.2517,-2.171,-2.0879,-2.0088,-1.9305,-1.8807,-1.8676,-1.8822,-1.8682,-1.8221,-1.8688,-1.9131,-1.9455,-1.91,-1.9147,-1.9727,-1.9028,-1.8805,-1.9099,-1.9213,-1.9318,-1.9437,-1.9341,-1.9352,-1.9402,-1.9447,-1.9341,-1.9085,-2.0003,-2.04,-2.0416,-2.0793,-2.1017,-2.106,-2.071,-2.066,-2.0719,-2.0053,-1.9798,-1.9798,-1.9798,-1.9798,-1.9798,-1.9798,-1.9734,-1.9578,-1.9123,-1.8271,-1.7368,-1.6905,-1.6122,-1.5478,-1.5811,-1.5459,-1.4934,-1.4351,-1.3855,-1.3268,-1.2504,-1.2037,-1.1767,-1.1533,-1.1167,-1.0835,-1.0551,-1.1024,-1.1723,-1.2488,-1.3026,-1.3252,-1.3006,-1.2832,-1.224,-1.0997,-1.0868,-1.0472,-0.955,-0.9462,-0.9069,-0.8105,-0.8675,-0.8738,-0.8071,-0.7771,-0.7599,-0.7545,-0.7545,-0.757,-0.7621,-0.7876,-0.8356,-0.9021,-0.9426,-1.0216,-1.6291,-1.6291,-1.6394,-1.6787,0.0,0.0,-1.8956,-1.9687,-2.0499,-2.1881,-2.1284,-2.064,-2.1034,-2.0118,0.0,-2.212,-2.1646,-2.1292,-2.2213,-2.1453,-2.063,-2.0232,-1.9581,-1.9046,-1.8627,-1.8223,-1.8075,-1.8285,-1.7936,-1.7965,-1.8575,-1.7913,-1.776,-1.8308,-1.7791,-1.8082,-1.9281,-1.8833,-1.8977,-1.9688,-1.9287,-1.9202,-1.9408,-1.9376,-1.9447,-1.9606,-1.954,-2.0056,-2.0991,-2.0945,-2.1047,-2.1276,-2.0999,-2.0615,-2.0182,-1.9914,-1.9798,-1.9798,-1.9798,-1.9798,-1.9798,-1.9798,-1.9798,-1.9773,-1.963,-1.8673,-1.7578,-1.7435,-1.6454,-1.541,-1.541,-1.541,-1.5264,-1.4647,-1.3992,-1.3422,-1.3052,-1.2046,-1.1223,-1.1208,-1.0707,-1.0296,-1.0318,-1.0288,-1.06,-1.1547,-1.1314,-1.1227,-1.194,-1.1581,-1.0954,-0.999,-0.9903,-0.9506,-0.8588,-0.85,-0.8105,-0.7139,-0.7095,-0.7075,-0.7008,-0.6148,-0.5632,-0.551,-0.5508,-0.557,-0.5688,-0.656,-0.7037,-0.7136,-0.882,-0.9635,-1.5995,-1.6345,-1.6735,-1.6855,0.0,0.0,0.0,-1.9765,0.0,0.0,-2.1201,-2.0879,-2.0723,-2.0131,0.0,-2.0189,-1.976,-1.9389,-1.9374,-1.8983,-1.8651,-1.8523,-1.8205,-1.8069,-1.824,-1.7868,-1.7672,-1.7728,-1.7764,-1.8147,-1.9042,-1.8714,-1.8874,-1.9738,-1.8783,-1.8681,-1.9565,-1.8934,-1.877,-1.9137,-1.904,-1.9028,-1.9169,-1.8936,-1.887,-1.8927,-1.9618,-2.0087,-2.0405,-2.0841,-2.0935,-2.072,-2.0489,-2.0539,-2.0734,-2.0459,-2.0597,-2.0881,-2.0497,-2.0359,-2.0308,-1.9927,-1.9798,-1.9798,-1.9759,-1.9018,-1.8135,-1.7672,-1.68,-1.594,-1.5497,-1.541,-1.5264,-1.4647,-1.3992,-1.3354,-1.2771,-1.2172,-1.1661,-1.1276,-1.093,-1.0621,-1.0344,-1.0143,-1.0379,-1.1471,-1.1655,-1.1851,-1.2164,-1.1676,-1.0937,-1.0019,-0.9903,-0.9244,-0.7665,-0.7533,-0.7095,-0.6174,-0.613,-0.6113,-0.6075,-0.5847,-0.5672,-0.5637,-0.5634,-0.5653,-0.5688,-0.596,-0.6393,-0.702,-0.7365,-0.8151,-1.6129,-1.6576,-1.703,-1.7466,-1.8083,-1.8809,-1.9685,0.0,0.0,0.0,-2.0905,-2.0567,-2.0328,-1.9655,-1.9143,-1.9081,-1.8713,-1.8338,-1.8084,-1.8134,-1.8151,-1.8151,-1.803,-1.7882,-1.7747,-1.7295,-1.6935,-1.6806,-1.6892,-1.7316,-1.8194,-1.8063,-1.8368,-1.9183,-1.8306,-1.821,-1.9069,-1.8221,-1.8064,-1.8598,-1.8391,-1.844,-1.8701,-1.8592,-1.8613,-1.8857,-1.9686,-2.0045,-2.0095,-2.0543,-2.0643,-2.0486,-2.0296,-2.0485,-2.0894,-2.0734,-2.0993,-2.1345,-2.1042,-2.0919,-2.082,-2.0295,-2.0131,-2.008,-1.985,-1.9094,-1.8216,-1.8093,-1.7076,-1.6028,-1.5881,-1.5613,-1.5323,-1.4942,-1.4163,-1.3381,-1.2978,-1.2352,-1.1721,-1.129,-1.1096,-1.0831,-1.0266,-1.0083,-1.0234,-1.0822,-1.1283,-1.1655,-1.1834,-1.146,-1.0642,-0.9385,-0.9253,-0.8477,-0.6614,-0.6486,-0.6224,-0.5662,-0.5616,-0.5589,-0.5589,-0.5591,-0.5615,-0.5615,-0.5613,-0.5638,-0.5688,-0.564,-0.5909,-0.6483,-0.6573,-0.7089,-1.6499,-1.6879,-1.7162,-1.8252,-1.8645,-1.9038,-2.0165,-2.0881,-2.1219,-2.1083,0.0,-1.9829,-1.9829,-1.885,-1.8136,-1.8495,-1.8152,-1.7813,-1.7735,-1.8155,-1.8471,-1.8428,-1.8425,-1.8083,-1.7241,-1.6581,-1.6104,-1.5792,-1.5778,-1.6008,-1.6573,-1.6598,-1.6805,-1.7315,-1.689,-1.7097,-1.8028,-1.7108,-1.712,-1.8028,-1.7557,-1.7553,-1.797,-1.825,-1.8619,-1.9088,-1.9673,-1.9943,-1.9978,-2.0144,-2.0347,-2.0486,-2.0296,-2.0472,-2.082,-2.0795,-2.1091,-2.1465,-2.1417,-2.1441,-2.1369,-2.0792,-2.0595,-2.0497,-1.9889,-1.8904,-1.8051,-1.8453,-1.7227,-1.5915,-1.6336,-1.5914,-1.538,-1.5351,-1.4435,-1.3563,-1.3502,-1.2536,-1.1578,-1.1286,-1.1211,-1.0936,-1.0242,-1.0152,-1.0108,-0.9969,-1.0472,-1.0941,-1.1169,-1.1021,-1.0246,-0.8511,-0.8234,-0.7436,-0.567,-0.5502,-0.5502,-0.5502,-0.5409,-0.5394,-0.5394,-0.5469,-0.5491,-0.5491,-0.5436,-0.5496,-0.5672,-0.5561,-0.5559,-0.5695,-0.621,-0.642,-1.6139,-1.6551,-1.707,-1.7783,-1.8924,-2.0023,-2.0584,-2.0458,-2.03,-2.0561,-1.9998,-1.9439,-1.9439,-1.8449,-1.7559,-1.733,-1.6945,-1.6444,-1.5824,-1.6307,-1.6621,-1.6304,-1.6725,-1.6941,-1.6752,-1.6601,-1.6485,-1.6409,-1.6423,-1.6473,-1.6598,-1.6598,-1.6656,-1.6759,-1.6967,-1.7162,-1.7398,-1.7174,-1.7174,-1.7398,-1.6968,-1.6816,-1.6954,-1.779,-1.8357,-1.8713,-1.9176,-1.948,-1.9734,-2.022,-2.0461,-2.0486,-2.0461,-2.0661,-2.0944,-2.0845,-2.131,-2.1969,-2.1551,-2.167,-2.1852,-2.0793,-2.0523,-2.039,-1.9337,-1.8828,-1.8436,-1.766,-1.707,-1.6545,-1.6066,-1.5548,-1.5133,-1.5026,-1.4629,-1.4142,-1.3593,-1.2856,-1.2143,-1.1609,-1.1189,-1.0896,-1.093,-1.0415,-1.0045,-1.0258,-1.0567,-1.0846,-1.1163,-1.0975,-1.0181,-0.8568,-0.8168,-0.7364,-0.5643,-0.5405,-0.5325,-0.5325,-0.527,-0.5224,-0.5224,-0.5344,-0.5409,-0.5409,-0.5477,-0.5494,-0.5545,-0.5521,-0.5472,-0.5487,-0.5498,-0.6109,-1.6219,-1.6792,-1.7448,-1.8496,0.0,-2.0471,-2.0871,-2.0398,-1.9882,-1.9802,-1.9203,-1.8614,-1.8229,-1.7642,-1.6954,-1.6166,-1.5872,-1.5504,-1.4935,-1.5671,-1.6174,-1.6066,-1.6584,-1.6887,-1.6621,-1.6392,-1.6151,-1.5888,-1.5876,-1.5876,-1.5876,-1.5876,-1.5972,-1.6126,-1.6327,-1.6633,-1.7051,-1.6833,-1.6883,-1.7191,-1.6725,-1.6529,-1.6633,-1.7427,-1.799,-1.8371,-1.8827,-1.9026,-1.9129,-1.9927,-2.018,-2.011,-2.0458,-2.0711,-2.0894,-2.0894,-2.1455,-2.2147,-2.1874,-2.2123,-2.2317,-2.0937,-2.0657,-2.062,-1.9205,-1.8624,-1.842,-1.8359,-1.7497,-1.6641,-1.6756,-1.5957,-1.5081,-1.5003,-1.4564,-1.4059,-1.3708,-1.3035,-1.242,-1.2097,-1.1701,-1.1321,-1.1077,-1.0476,-1.0166,-1.0573,-1.0553,-1.0456,-1.0293,-1.0073,-0.9332,-0.7751,-0.7417,-0.6814,-0.5574,-0.5304,-0.519,-0.519,-0.5043,-0.4969,-0.4969,-0.5032,-0.5175,-0.5407,-0.5374,-0.5404,-0.5464,-0.5464,-0.5639,-0.5981,-0.585,-0.6343,-1.6475,-1.7268,-1.7973,-1.9377,-2.006,0.0,-2.075,-2.0261,-1.9514,-1.8826,-1.8286,-1.7724,-1.6936,-1.6743,-1.634,-1.5276,-1.5102,-1.5009,-1.4772,-1.5481,-1.6133,-1.6331,-1.6747,-1.6844,-1.638,-1.6003,-1.5613,-1.5142,-1.5108,-1.5108,-1.5108,-1.5153,-1.53,-1.5591,-1.5724,-1.6151,-1.686,-1.6485,-1.6575,-1.7099,-1.662,-1.6468,-1.667,-1.7099,-1.7523,-1.7875,-1.8286,-1.8377,-1.8302,-1.9283,-1.9604,-1.954,-2.0258,-2.0619,-2.0759,-2.082,-2.1334,-2.1969,-2.1834,-2.2108,-2.2306,-2.0858,-2.0588,-2.0564,-1.9168,-1.8349,-1.8076,-1.9011,-1.7843,-1.655,-1.7529,-1.6491,-1.5184,-1.5141,-1.4509,-1.3858,-1.3745,-1.3045,-1.2474,-1.2469,-1.2312,-1.1934,-1.1146,-1.0626,-1.0475,-1.0844,-1.0522,-1.0037,-0.9521,-0.9176,-0.8429,-0.7022,-0.6662,-0.6216,-0.537,-0.5188,-0.5091,-0.5034,-0.4834,-0.4693,-0.4657,-0.4679,-0.4951,-0.5438,-0.5248,-0.5175,-0.5317,-0.5501,-0.5914,-0.66,-0.6642,-0.6973,-1.6649,-1.7523,-1.8386,0.0,-1.9666,-1.9972,0.0,0.0,-1.859,-1.7647,-1.7372,-1.7125,-1.6511,-1.6101,-1.5689,-1.5184,-1.5102,-1.5151,-1.5274,-1.5122,-1.519,-1.5747,-1.5657,-1.551,-1.5315,-1.536,-1.5314,-1.5108,-1.5108,-1.5108,-1.5108,-1.5367,-1.5546,-1.5591,-1.6216,-1.6599,-1.6717,-1.6663,-1.6692,-1.6766,-1.6389,-1.6457,-1.6865,-1.6938,-1.6907,-1.6807,-1.7051,-1.7128,-1.7183,-1.8016,-1.8608,-1.9058,-1.9682,-2.0169,-2.0524,-2.0359,-2.066,-2.1059,-2.0372,-2.0543,-2.0917,-1.988,-1.9437,-1.9213,-1.8686,-1.8036,-1.7479,-1.7514,-1.7016,-1.6598,-1.715,-1.6412,-1.5498,-1.5319,-1.4786,-1.4133,-1.3431,-1.2807,-1.2402,-1.2401,-1.242,-1.2328,-1.1926,-1.13,-1.088,-1.0909,-1.0359,-1.0006,-1.0164,-0.9321,-0.8429,-0.756,-0.6746,-0.5905,-0.5046,-0.5035,-0.4986,-0.4674,-0.4696,-0.4635,-0.4528,-0.4632,-0.5008,-0.5659,-0.5133,-0.4852,-0.4868,-0.589,-0.6412,-0.6525,-0.7435,-0.809,-1.7335,-1.7853,-1.8301,0.0,-1.892,-1.8974,-1.8788,-1.8337,-1.7749,-1.6983,-1.6529,-1.615,-1.5703,-1.5487,-1.5262,-1.4939,-1.4823,-1.4781,-1.4767,-1.5063,-1.5311,-1.5465,-1.5642,-1.573,-1.5661,-1.5509,-1.5323,-1.5108,-1.5165,-1.5266,-1.5367,-1.5524,-1.579,-1.6194,-1.6518,-1.6786,-1.6976,-1.6976,-1.6892,-1.6689,-1.6362,-1.6129,-1.6,-1.6,-1.6251,-1.6729,-1.6795,-1.6596,-1.6284,-1.6977,-1.7359,-1.7591,-1.8493,-1.8933,-1.9113,-1.9663,-2.0165,-2.051,-2.0315,-2.0653,-2.0927,-1.9523,-1.9301,-1.9433,-1.841,-1.7875,-1.7684,-1.7961,-1.7307,-1.6626,-1.7167,-1.6467,-1.5558,-1.5406,-1.4706,-1.3955,-1.3511,-1.2885,-1.2301,-1.1971,-1.2062,-1.228,-1.2527,-1.2012,-1.1495,-1.1277,-1.055,-0.9773,-0.9152,-0.8212,-0.7381,-0.6657,-0.5914,-0.5361,-0.5036,-0.49,-0.491,-0.5103,-0.4961,-0.4995,-0.5321,-0.5386,-0.5629,-0.6089,-0.5561,-0.5496,-0.5934,-0.6526,-0.7126,-0.7684,-0.833,-0.878,-1.768,0.0,-1.8097,-1.8123,-1.8152,-1.8107,0.0,-1.7442,-1.6993,-1.6398,-1.5852,-1.5404,-1.513,-1.5038,-1.4958,-1.4801,-1.4704,-1.4636,-1.4698,-1.5151,-1.549,-1.5494,-1.5807,-1.5975,-1.594,-1.5704,-1.5424,-1.5176,-1.5323,-1.548,-1.5591,-1.5778,-1.6129,-1.6667,-1.6774,-1.6955,-1.7199,-1.7199,-1.706,-1.6829,-1.6439,-1.6023,-1.5558,-1.5421,-1.5678,-1.6238,-1.6151,-1.5888,-1.5545,-1.5932,-1.6206,-1.648,-1.7342,-1.7692,-1.7826,-1.8804,-1.9392,-1.9681,-1.9825,-2.0121,-2.0224,-1.8874,-1.8762,-1.8999,-1.8065,-1.7646,-1.7596,-1.8162,-1.7449,-1.6647,-1.7237,-1.6613,-1.5812,-1.5676,-1.4822,-1.3886,-1.3348,-1.2814,-1.2271,-1.1685,-1.1866,-1.2294,-1.2905,-1.2371,-1.1813,-1.1668,-1.0676,-0.962,-0.8598,-0.76,-0.6777,-0.627,-0.5538,-0.5099,-0.5135,-0.4846,-0.481,-0.514,-0.5182,-0.535,-0.5789,-0.599,-0.6298,-0.6662,-0.6321,-0.6351,-0.6701,-0.7124,-0.7812,-0.866,-0.909,-0.9369,-1.7072,-1.7432,0.0,-1.7542,-1.7636,-1.7658,-1.7021,-1.6691,-1.6379,-1.5761,-1.5413,-1.5185,-1.5038,-1.4842,-1.4773,-1.497,-1.497,-1.5157,-1.5727,-1.5471,-1.5429,-1.5989,-1.5846,-1.5684,-1.5538,-1.5638,-1.5582,-1.5312,-1.5592,-1.5714,-1.5613,-1.6259,-1.6646,-1.6689,-1.6997,-1.7178,-1.7199,-1.7199,-1.7199,-1.7165,-1.6636,-1.6375,-1.6323,-1.5749,-1.5209,-1.4696,-1.4377,-1.4544,-1.5018,-1.4805,-1.5363,-1.6402,-1.6474,-1.6794,-1.7295,-1.78,-1.8078,-1.8179,-1.7922,-1.7865,-1.7828,-1.7479,-1.7065,-1.6825,-1.7578,-1.7214,-1.6671,-1.7141,-1.6897,-1.6647,-1.7237,-1.6926,-1.6439,-1.6367,-1.5476,-1.419,-1.255,-1.2381,-1.2421,-1.1885,-1.2122,-1.2507,-1.294,-1.213,-1.156,-1.1929,-1.0638,-0.9606,-0.9518,-0.8316,-0.7451,-0.7422,-0.631,-0.5502,-0.5306,-0.5052,-0.472,-0.4285,-0.516,-0.5544,-0.5258,-0.5975,-0.6719,-0.7423,-0.7414,-0.7091,-0.6428,-0.7515,-0.8304,-0.8795,-0.9665,-0.9945,0.0,0.0,0.0,-1.706,-1.7063,-1.7026,-1.6455,-1.6297,-1.6227,-1.6077,-1.5586,-1.5205,-1.5254,-1.5049,-1.4931,-1.5098,-1.5068,-1.5022,-1.5077,-1.5444,-1.5595,-1.53,-1.5797,-1.6016,-1.565,-1.5703,-1.5659,-1.5458,-1.5856,-1.6107,-1.6051,-1.6603,-1.6921,-1.7018,-1.7136,-1.7199,-1.7199,-1.7199,-1.7029,-1.6676,-1.648,-1.5983,-1.5238,-1.5016,-1.4611,-1.4101,-1.4331,-1.4536,-1.4735,-1.4641,-1.5082,-1.5833,-1.6048,-1.6573,-1.7246,-1.7631,-1.8122,-1.858,-1.8311,-1.8222,-1.8117,-1.7489,-1.7366,-1.7462,-1.7413,-1.7199,-1.6976,-1.7157,-1.6863,-1.655,-1.6773,-1.6651,-1.6408,-1.5982,-1.5279,-1.4445,-1.3518,-1.3018,-1.2513,-1.1746,-1.2053,-1.236,-1.2245,-1.2127,-1.1949,-1.1646,-1.0977,-1.0217,-0.9448,-0.8426,-0.7623,-0.7291,-0.6488,-0.5984,-0.601,-0.5557,-0.5366,-0.5604,-0.5516,-0.5575,-0.5884,-0.6069,-0.6576,-0.7489,-0.7329,-0.7425,-0.7749,-0.8161,-0.8508,-0.8826,-0.9293,-0.9383,-1.8706,0.0,0.0,0.0,-1.7094,-1.696,-1.6493,-1.6389,-1.6361,-1.6265,-1.5874,-1.5536,-1.541,-1.5245,-1.5167,-1.5264,-1.5196,-1.5148,-1.5161,-1.5732,-1.6025,-1.5694,-1.6296,-1.6526,-1.6048,-1.6033,-1.5939,-1.5592,-1.6129,0.0,-1.6312,-1.6845,-1.7186,-1.7199,-1.7029,-1.6924,-1.6924,-1.6924,-1.6822,-1.6599,-1.6258,-1.5808,-1.5251,-1.4633,-1.4196,-1.3984,-1.4235,-1.4563,-1.4899,-1.4899,-1.5251,-1.5812,-1.5814,-1.6155,-1.669,-1.7109,-1.7604,-1.8057,-1.8062,-1.8025,-1.7895,-1.7353,-1.7338,-1.7469,-1.6881,-1.6814,-1.693,-1.6757,-1.6604,-1.65,-1.65,-1.65,-1.6315,-1.5555,-1.5085,-1.464,-1.3954,-1.3276,-1.2632,-1.2042,-1.2202,-1.2344,-1.2044,-1.2122,-1.2082,-1.1592,-1.1118,-1.0497,-0.9708,-0.8778,-0.8072,-0.7717,-0.6966,-0.6457,-0.6351,-0.5768,-0.5541,-0.5745,-0.5559,-0.561,-0.597,-0.6193,-0.6572,-0.7125,-0.6967,-0.7283,-0.8036,-0.8186,-0.8412,-0.8712,-0.8841,-0.888,0.0,0.0,0.0,0.0,-1.7767,-1.7503,-1.7108,-1.7039,-1.687,-1.6247,-1.6208,-1.6112,-1.5507,-1.5371,-1.541,-1.5391,-1.5371,-1.5604,-1.6197,-1.636,-1.6636,-1.7216,-1.7362,-1.7207,-1.6679,-1.6607,-1.6345,-1.5775,-1.6414,-1.6667,-1.6333,-1.7068,-1.7413,-1.722,-1.6689,-1.6421,-1.6408,-1.6421,-1.6618,-1.6949,-1.6008,-1.5905,-1.6494,-1.4678,-1.402,-1.4284,-1.397,-1.4459,-1.5461,-1.5487,-1.5853,-1.6336,-1.5767,-1.5558,-1.563,-1.6212,-1.6421,-1.6493,-1.7016,-1.7102,-1.6976,-1.6892,-1.6812,-1.6574,-1.591,-1.607,-1.6362,-1.5869,-1.6082,-1.645,-1.6475,-1.6475,-1.6225,-1.5186,-1.5028,-1.48,-1.3695,-1.3132,-1.2827,-1.2813,-1.2642,-1.2494,-1.2433,-1.2137,-1.1878,-1.1825,-1.1042,-1.0421,-1.0403,-0.9484,-0.883,-0.8804,-0.7797,-0.6891,-0.629,-0.5668,-0.5115,-0.4564,-0.5221,-0.5567,-0.5378,-0.6274,-0.6625,-0.6322,-0.6376,-0.6634,-0.7041,-0.7536,-0.7999,-0.8474,-0.8435,-0.8537,-2.097,0.0,0.0,0.0,0.0,0.0,-1.7799,-1.7722,-1.7501,-1.6989,-1.6585,-1.6038,-1.5123,-1.5205,-1.5312,-1.501,-1.5215,-1.5468,-1.5633,-1.6423,-1.6901,-1.6685,-1.7438,-1.7772,-1.7219,-1.6823,-1.6524,0.0,-1.68,-1.6955,-1.6689,-1.7193,-1.7413,-1.722,-1.7055,-1.6889,-1.6682,-1.7163,-1.6946,-1.5993,-1.6692,-1.6417,-1.53,-1.5266,-1.4905,-1.4327,-1.4604,-1.4791,-1.4872,-1.5317,-1.5853,-1.6402,-1.6425,-1.6818,-1.7332,-1.6851,-1.6818,-1.699,-1.7146,-1.693,-1.653,-1.6309,-1.6509,-1.6689,-1.5931,-1.5806,-1.5969,-1.6199,-1.5831,-1.5437,-1.5819,-1.5919,-1.5936,-1.6043,-1.5822,-1.5423,-1.4777,-1.4269,-1.38,-1.3324,-1.3025,-1.2813,-1.2698,-1.2478,-1.2246,-1.1921,-1.1639,-1.1217,-1.048,-1.0138,-0.9666,-0.8883,-0.8514,-0.7931,-0.6945,-0.6378,-0.592,-0.5456,-0.4735,-0.4339,-0.4399,-0.4033,-0.404,-0.4435,-0.4593,-0.4992,-0.5595,-0.6479,-0.73,-0.7988,-0.8162,-0.838,0.0,0.0,0.0,0.0,0.0,0.0,-1.9014,-1.8654,-1.8058,-1.7077,-1.6456,-1.5779,-1.4688,-1.4717,-1.4825,-1.4795,-1.499,-1.5291,-1.5718,-1.6613,-1.7175,-1.7117,-1.7958,-1.8326,-1.7796,-1.7243,-1.6835,-1.6619,-1.6976,-1.7248,-1.7372,-1.757,-1.755,-1.7344,-1.7276,-1.7142,-1.688,-1.7441,-1.7228,-1.626,-1.6892,-1.6624,-1.5597,-1.5446,-1.5131,-1.473,-1.4902,-1.4858,-1.4728,-1.5304,-1.5867,-1.6434,-1.6818,-1.728,-1.7673,-1.7337,-1.721,-1.718,-1.7149,-1.6884,-1.6474,-1.5905,-1.6163,-1.6565,-1.5678,-1.5525,-1.5718,-1.5806,-1.5387,-1.4959,-1.5286,-1.5517,-1.5727,-1.5851,-1.5828,-1.5611,-1.4937,-1.4663,-1.4362,-1.3763,-1.3515,-1.3338,-1.3088,-1.2963,-1.2706,-1.2224,-1.2002,-1.1694,-1.1108,-1.0659,-1.0164,-0.9536,-0.9066,-0.8428,-0.7524,-0.6759,-0.6137,-0.5746,-0.4497,-0.383,-0.3915,-0.3275,-0.302,-0.3245,-0.3342,-0.3716,-0.4427,-0.5787,-0.6951,-0.7941,-0.8216,-0.8592,0.0,0.0,0.0,0.0,-2.1499,0.0,-2.0345,-1.9597,-1.8548,-1.6835,-1.6204,-1.5618,-1.4493,-1.4374,-1.4586,-1.5012,-1.5184,-1.5495,-1.6193,-1.681,-1.7424,-1.8038,-1.8617,-1.8806,-1.8338,-1.7808,-1.7255,-1.6727,-1.7014,-1.7488,-1.8149,-1.8003,-1.7788,-1.7516,-1.7423,-1.7262,-1.706,-1.7455,-1.753,-1.724,-1.6921,-1.6742,-1.6681,-1.5554,-1.5129,-1.5285,-1.4995,-1.4825,-1.4835,-1.5378,-1.5909,-1.6474,-1.6967,-1.7237,-1.7372,-1.77,-1.7558,-1.7234,-1.7184,-1.699,-1.6634,-1.5719,-1.5909,-1.6276,-1.5274,-1.5253,-1.5452,-1.4859,-1.4758,-1.4815,-1.4815,-1.516,-1.5436,-1.5064,-1.5356,-1.5467,-1.4575,-1.4518,-1.4484,-1.4059,-1.3993,-1.3881,-1.3501,-1.3379,-1.3156,-1.2593,-1.215,-1.1877,-1.1852,-1.104,-1.048,-1.0403,-0.9484,-0.8633,-0.7953,-0.6843,-0.6023,-0.5629,-0.4391,-0.3687,-0.3714,-0.3214,-0.2774,-0.2417,-0.2439,-0.2867,-0.3696,-0.5426,-0.6872,-0.8061,-0.841,-0.8938,0.0,0.0,0.0,0.0,-2.205,0.0,-2.0354,-1.9668,-1.8768,-1.7339,-1.6974,-1.6629,-1.5654,-1.6081,-1.667,-1.6849,-1.7535,-1.7605,-1.6451,-1.681,-1.7424,-1.8038,-1.8617,-1.8951,-1.8843,-1.8362,-1.7832,-1.7279,-1.7219,-1.7488,-1.8149,-1.8003,-1.7788,-1.7516,-1.7619,-1.7611,-1.7399,-1.7863,-1.7917,-1.7601,-1.7697,-1.7417,-1.6849,-1.6607,-1.6083,-1.5374,-1.5254,-1.5042,-1.4835,-1.5378,-1.5978,-1.6577,-1.6794,-1.7452,-1.8206,-1.7908,-1.7687,-1.7598,-1.8051,-1.7525,-1.6605,-1.6344,-1.6259,-1.6082,-1.5064,-1.4779,-1.464,-1.3768,-1.3891,-1.4267,-1.4267,-1.4324,-1.4494,-1.4849,-1.5005,-1.494,-1.4433,-1.4178,-1.3995,-1.3796,-1.3883,-1.3916,-1.3623,-1.3292,-1.2953,-1.2554,-1.215,-1.1778,-1.1452,-1.1242,-1.0939,-1.0454,-0.9829,-0.9026,-0.7974,-0.6843,-0.6023,-0.5629,-0.3923,-0.2975,-0.3164,-0.2044,-0.138,-0.1249,-0.1909,-0.2943,-0.4319,-0.5811,-0.6959,-0.7786,-0.8234,-0.8854,0.0,0.0,0.0,-2.3918,0.0,0.0,0.0,-2.0324,-1.9448,-1.7705,-1.718,-1.6785,-1.5915,-1.6393,-1.6998,-1.7257,-1.773,-1.8037,-1.7986,-1.779,-1.7756,-1.8058,-1.8404,-1.8602,-1.8602,-1.8362,-1.8202,-1.8157,-1.7804,-1.7948,-1.8746,-1.8428,-1.8149,-1.7988,-1.8285,-1.8417,-1.8354,-1.8775,-1.8783,-1.8356,-1.8121,-1.7637,-1.694,-1.6562,-1.6128,-1.5653,-1.558,-1.5448,-1.5328,-1.5602,-1.6079,-1.6651,-1.6639,-1.701,-1.7492,-1.746,-1.7282,-1.7098,-1.7313,-1.6938,-1.6272,-1.5806,-1.5817,-1.583,-1.5011,-1.4563,-1.4215,-1.3612,-1.3542,-1.3664,-1.3723,-1.3943,-1.4221,-1.4481,-1.4771,-1.4833,-1.4398,-1.4304,-1.4106,-1.3426,-1.3593,-1.385,-1.3817,-1.384,-1.3647,-1.3045,-1.2623,-1.2181,-1.1669,-1.1427,-1.1167,-1.0888,-1.0344,-0.9762,-0.9202,-0.7847,-0.6971,-0.6756,-0.4745,-0.3595,-0.3685,-0.2502,-0.1762,-0.1587,-0.2584,-0.34,-0.4064,-0.5829,-0.7022,-0.7616,-0.8525,-0.9275,0.0,0.0,0.0,0.0,0.0,-2.3622,0.0,0.0,0.0,-1.8242,-1.7578,-1.713,-1.6423,-1.6776,0.0,-1.7763,0.0,0.0,0.0,-1.9068,0.0,-1.8747,-1.8606,-1.8532,-1.8662,-1.839,-1.84,-1.8858,-1.833,-1.8355,-1.9181,-1.8784,-1.8523,-1.8519,-1.8936,-1.918,-1.9244,-1.9522,-1.9509,-1.9169,-1.8413,-1.776,-1.7182,-1.6455,-1.6048,-1.5927,-1.5842,-1.5813,-1.5813,-1.5813,-1.6084,-1.6531,-1.6453,-1.654,-1.676,-1.7004,-1.6935,-1.6721,-1.6619,-1.6423,-1.6094,-1.54,-1.5391,-1.5562,-1.4982,-1.4498,-1.4087,-1.3795,-1.3514,-1.3306,-1.3374,-1.3704,-1.4011,-1.4047,-1.4372,-1.4595,-1.4228,-1.4291,-1.4123,-1.3108,-1.3283,-1.3674,-1.3822,-1.4138,-1.416,-1.3566,-1.3006,-1.2506,-1.2008,-1.1569,-1.1301,-1.1301,-1.0761,-1.0403,-1.0403,-0.896,-0.8,-0.7894,-0.5901,-0.4683,-0.4577,-0.3568,-0.2958,-0.2838,-0.3722,-0.414,-0.4103,-0.6018,-0.7166,-0.762,-0.8841,-0.9644,0.0,0.0,0.0,0.0,-2.3506,0.0,-2.1946,0.0,-2.0455,-1.924,0.0,-1.8846,-1.8501,0.0,0.0,0.0,0.0,0.0,-2.1002,-2.0103,-1.9853,-2.0991,-2.019,-1.9759,-2.0365,-1.9072,-1.8376,-1.8789,-1.8308,-1.8182,-1.8585,-1.8576,-1.8592,-1.8592,-1.9091,-1.9369,-1.9387,-1.9248,-1.9421,-1.9869,-1.8724,-1.8099,-1.7945,-1.7273,-1.6646,-1.6067,-1.5942,-1.59,-1.5885,-1.5813,-1.5844,-1.592,-1.6083,-1.6728,-1.7535,-1.7207,-1.7305,-1.7553,-1.7543,-1.7126,-1.662,-1.6514,-1.5885,-1.5128,-1.4877,-1.4594,-1.4262,-1.3828,-1.3682,-1.3615,-1.3442,-1.3356,-1.3338,-1.3463,-1.3531,-1.3569,-1.3586,-1.347,-1.3283,-1.2959,-1.3149,-1.333,-1.3305,-1.3249,-1.3329,-1.3692,-1.2899,-1.2242,-1.2169,-1.1651,-1.1301,-1.1301,-1.0761,-1.0403,-1.0403,-0.9299,-0.8416,-0.7921,-0.6645,-0.5707,-0.5206,-0.4556,-0.4398,-0.4787,-0.4803,-0.5152,-0.591,-0.6918,-0.7606,-0.7963,-0.8703,-0.9441,0.0,0.0,0.0,0.0,0.0,0.0,-2.2396,0.0,-2.1422,0.0,0.0,0.0,0.0,0.0,0.0,0.0,-2.0533,0.0,0.0,0.0,-1.9784,-2.058,0.0,0.0,-2.0089,-1.9787,-1.949,-1.9273,-1.9061,-1.9128,-1.9586,-1.908,-1.9013,-1.9522,-1.9557,-1.9657,-1.9803,-1.9721,-1.9857,-2.015,-1.9267,-1.8607,-1.8129,-1.7425,-1.6737,-1.6095,-1.5956,-1.59,-1.59,-1.5827,-1.5799,-1.5814,-1.5891,-1.6203,-1.6577,-1.641,-1.6456,-1.6608,-1.6608,-1.6413,-1.6159,-1.6085,-1.5623,-1.5104,-1.5134,-1.4657,-1.4146,-1.4305,-1.3898,-1.3459,-1.3698,-1.3564,-1.3408,-1.348,-1.3514,-1.3514,-1.3547,-1.3497,-1.3382,-1.3207,-1.3273,-1.3338,-1.3279,-1.3561,-1.364,-1.3178,-1.299,-1.2628,-1.19,-1.156,-1.1402,-1.1301,-1.1065,-1.0913,-1.0913,-1.0174,-0.9592,-0.9358,-0.8246,-0.7212,-0.6315,-0.6377,-0.6313,-0.609,-0.6677,-0.7058,-0.7202,-0.8151,-0.8599,-0.8587,-0.9102,-0.9511,-2.5236,0.0,0.0,0.0,0.0,0.0,0.0,0.0,0.0,0.0,0.0,0.0,0.0,0.0,0.0,0.0,0.0,-2.0625,0.0,-2.0538,0.0,0.0,0.0,0.0,0.0,-2.0726,-2.0572,-1.9794,-1.9809,-1.9889,-1.9978,-1.9454,-1.9441,-2.0076,-1.9947,-1.9957,-2.015,-2.015,-2.0202,-2.0289,-1.9626,-1.8916,-1.8192,-1.7455,-1.6766,-1.6109,-1.6012,-1.5942,-1.5927,-1.5926,-1.587,-1.5813,-1.5955,-1.5969,-1.5898,-1.5827,-1.5856,-1.5898,-1.5827,-1.5799,-1.577,-1.5624,-1.5448,-1.5314,-1.5359,-1.4792,-1.42,-1.4564,-1.4004,-1.3371,-1.3762,-1.3682,-1.3514,-1.3581,-1.3598,-1.3598,-1.3598,-1.3628,-1.3611,-1.3425,-1.3408,-1.3333,-1.3118,-1.3759,-1.403,-1.3221,-1.3276,-1.305,-1.2082,-1.1694,-1.1452,-1.1318,-1.1301,-1.1301,-1.1301,-1.0888,-1.0582,-1.0403,-0.9488,-0.8587,-0.7741,-0.8126,-0.812,-0.757,-0.8265,-0.8534,-0.8376,-0.8981,-0.9237,-0.9159,-0.9465,-0.9588,0.0,0.0,0.0,-2.3369,0.0,0.0,0.0,0.0,-2.2579,0.0,0.0,0.0,0.0,0.0,0.0,0.0,0.0,0.0,0.0,0.0,0.0,0.0,0.0,0.0,0.0,-2.1955,-2.1236,-2.0148,-2.0316,-2.0022,-1.9008,-1.9475,-1.9785,-1.98,-2.0115,-2.0287,-2.0287,-2.0287,-2.0304,-2.0289,-1.9626,-1.8916,-1.8192,-1.7485,-1.6824,-1.6194,-1.6109,-1.6053,-1.601,-1.6205,-1.608,-1.5856,-1.6369,-1.6421,-1.6148,-1.5898,-1.5954,-1.6148,-1.5884,-1.5799,-1.577,-1.558,-1.5624,-1.5726,-1.5403,-1.5008,-1.4627,-1.4377,-1.3915,-1.3496,-1.3506,-1.3514,-1.3514,-1.3581,-1.3598,-1.3598,-1.3598,-1.3695,-1.3708,-1.3442,-1.3408,-1.322,-1.2639,-1.3343,-1.4096,-1.4304,-1.3805,-1.3338,-1.317,-1.2172,-1.1452,-1.1318,-1.1301,-1.1301,-1.1301,-1.1276,-1.1015,-1.0454,-0.9873,-0.9562,-0.951,-0.9536,-0.9536,-0.951,-0.9157,-0.9164,-0.9536,-0.9185,-0.9211,-0.9588,-0.9588,-0.9588,0.0,0.0,-2.4736,-2.3692,0.0,0.0,0.0,0.0,0.0,0.0,0.0,0.0,0.0,0.0,0.0,0.0,0.0,0.0,0.0,0.0,0.0,0.0,0.0,0.0,0.0,0.0,-2.1412,-1.9772,-2.0103,-2.0211,-1.9841,-1.9811,-1.9999,-2.0448,-2.036,-2.0304,-2.0304,-2.0304,-2.0304,-2.0304,-2.0073,-1.9331,-1.8192,-1.7976,-1.7254,-1.6194,-1.6123,-1.6191,-1.6313,-1.6123,-1.6177,-1.6394,-1.6353,-1.6501,-1.6686,-1.6231,-1.612,-1.6162,-1.5884,-1.5799,-1.5784,-1.5726,-1.5741,-1.5755,-1.5566,-1.4935,-1.4312,-1.4414,-1.3978,-1.351,-1.3605,-1.3768,-1.3868,-1.3758,-1.3741,-1.3741,-1.3741,-1.3771,-1.3771,-1.3674,-1.3657,-1.3543,-1.3156,-1.3374,-1.3486,-1.3181,-1.32,-1.3073,-1.2536,-1.2141,-1.1753,-1.1352,-1.1301,-1.1402,-1.1669,-1.1952,-1.2002,-1.1794,-1.136,-1.0939,-1.0542,-1.0643,-1.0549,-1.0138,-1.0216,-1.0421,-1.0727,-0.9822,-0.9565,-0.9857,-0.9497,-0.9424,-2.4298,-2.4675,0.0,-2.3984,-2.4089,0.0,-2.3779,0.0,-2.3283,0.0,0.0,0.0,0.0,0.0,0.0,0.0,0.0,0.0,0.0,-2.2021,0.0,0.0,0.0,0.0,0.0,-2.2079,-2.1899,-2.0039,-2.0594,-2.0744,0.0,-2.0029,-2.0175,-2.0613,-2.0413,-2.0304,-2.0304,-2.0304,-2.0304,-2.0304,-2.0058,-1.9471,-1.8576,-1.8069,-1.7377,-1.6532,-1.6258,-1.622,-1.634,-1.6287,-1.6367,-1.6565,-1.663,-1.6799,-1.6955,-1.6499,-1.6285,-1.6162,-1.5884,-1.5842,-1.5885,-1.574,-1.5619,-1.5467,-1.5211,-1.4423,-1.3657,-1.3905,-1.3543,-1.308,-1.3143,-1.3454,-1.3693,-1.3494,-1.3585,-1.3741,-1.3788,-1.3888,-1.3974,-1.3974,-1.3941,-1.3828,-1.3585,-1.3396,-1.3208,-1.2957,-1.3032,-1.2945,-1.2599,-1.2421,-1.215,-1.1778,-1.1728,-1.1828,-1.2101,-1.2348,-1.2431,-1.2298,-1.2175,-1.1819,-1.1133,-1.136,-1.1267,-1.0735,-1.0845,-1.0947,-1.1023,-1.0063,-0.9628,-0.9702,-0.9365,-0.9195]},{"header":{"parameterUnit":"m.s-1","parameterCategory":1,"la1":30.6,"la2":29.2853,"lo1":-89.7004,"lo2":-87.6739,"dy":0.0162,"dx":0.0183,"nx":112,"ny":82,"refTime":"2023-09-01T06:00:00:Z","depth":0,"parameterNumber":3,"parameterNumberName":"V-component_of_WINDS"},"data":[0.0,0.0,0.0,0.0,0.0,0.0,0.0,0.0,0.0,0.0,0.0,0.0,0.0,0.0,0.0,0.0,0.0,0.0,0.0,0.0,0.0,0.0,0.0,0.0,0.0,0.0,0.0,0.0,0.0,0.0,0.0,0.0,0.0,0.0,0.0,0.0,0.0,0.0,0.0,0.0,0.0,0.0,0.0,0.0,0.0,0.0,0.0,0.0,0.0,0.0,0.0,0.0,0.0,0.0,0.0,0.0,0.0,0.0,0.0,0.0,0.0,0.0,0.0,0.0,0.0,0.0,0.0,0.0,0.0,0.0,0.0,0.0,0.0,0.0,0.0,0.0,0.0,0.0,0.0,0.0,0.0,0.0,0.0,0.0,0.0,0.0,0.0,0.0,0.0,0.0,3.8441,4.0338,4.5168,4.8079,4.7676,4.8064,4.5744,3.9644,0.0,0.0,0.0,0.0,0.0,0.0,0.0,0.0,0.0,0.0,0.0,0.0,0.0,0.0,0.0,0.0,0.0,0.0,0.0,0.0,0.0,0.0,0.0,0.0,0.0,0.0,0.0,0.0,0.0,0.0,0.0,0.0,0.0,0.0,0.0,0.0,0.0,0.0,0.0,0.0,0.0,0.0,0.0,0.0,0.0,0.0,0.0,0.0,0.0,0.0,0.0,0.0,0.0,0.0,0.0,0.0,0.0,0.0,0.0,0.0,0.0,0.0,0.0,0.0,0.0,0.0,0.0,0.0,0.0,0.0,0.0,0.0,0.0,0.0,0.0,0.0,0.0,0.0,0.0,0.0,0.0,0.0,0.0,0.0,0.0,0.0,0.0,0.0,0.0,0.0,0.0,0.0,0.0,0.0,0.0,0.0,0.0,0.0,0.0,0.0,0.0,0.0,0.0,0.0,3.8734,4.3375,4.5086,4.6439,4.774,4.6278,4.3779,4.0247,0.0,0.0,0.0,0.0,0.0,0.0,0.0,0.0,0.0,0.0,0.0,0.0,0.0,0.0,0.0,0.0,0.0,0.0,0.0,0.0,0.0,0.0,0.0,0.0,0.0,0.0,0.0,0.0,0.0,0.0,0.0,0.0,0.0,0.0,0.0,0.0,0.0,0.0,0.0,0.0,0.0,0.0,0.0,0.0,0.0,0.0,0.0,0.0,0.0,0.0,0.0,0.0,0.0,0.0,0.0,0.0,0.0,0.0,0.0,0.0,0.0,0.0,0.0,0.0,0.0,0.0,0.0,0.0,0.0,0.0,0.0,0.0,0.0,0.0,0.0,0.0,0.0,0.0,0.0,0.0,0.0,0.0,0.0,0.0,0.0,0.0,0.0,0.0,0.0,0.0,0.0,0.0,0.0,0.0,0.0,0.0,0.0,0.0,0.0,0.0,0.0,0.0,0.0,3.6874,3.9233,4.2405,4.4074,4.5291,4.6058,4.5551,4.361,3.9848,3.7989,0.0,0.0,0.0,0.0,0.0,0.0,0.0,0.0,0.0,0.0,0.0,0.0,0.0,0.0,0.0,0.0,0.0,0.0,0.0,0.0,0.0,0.0,0.0,0.0,0.0,0.0,0.0,0.0,0.0,0.0,0.0,0.0,0.0,0.0,0.0,0.0,0.0,0.0,0.0,0.0,0.0,0.0,0.0,0.0,0.0,0.0,0.0,0.0,0.0,0.0,0.0,0.0,0.0,0.0,0.0,0.0,0.0,0.0,0.0,0.0,0.0,0.0,0.0,0.0,0.0,0.0,0.0,0.0,0.0,0.0,0.0,0.0,0.0,0.0,0.0,0.0,0.0,0.0,0.0,0.0,0.0,0.0,0.0,0.0,0.0,0.0,0.0,0.0,0.0,0.0,0.0,0.0,0.0,0.0,0.0,0.0,0.0,0.0,0.0,0.0,0.0,0.0,3.8582,3.9817,4.1305,4.3014,4.4141,4.4282,4.4367,4.2898,3.9338,3.7291,0.0,0.0,0.0,0.0,0.0,0.0,0.0,0.0,0.0,0.0,0.0,0.0,0.0,0.0,0.0,0.0,0.0,0.0,0.0,0.0,0.0,0.0,0.0,0.0,0.0,0.0,0.0,0.0,0.0,0.0,0.0,0.0,0.0,0.0,0.0,0.0,0.0,0.0,0.0,0.0,0.0,0.0,0.0,0.0,0.0,0.0,0.0,0.0,0.0,0.0,0.0,0.0,0.0,0.0,0.0,0.0,0.0,0.0,0.0,0.0,0.0,0.0,0.0,0.0,0.0,0.0,0.0,0.0,0.0,0.0,0.0,0.0,0.0,0.0,0.0,0.0,0.0,0.0,0.0,0.0,0.0,0.0,0.0,0.0,0.0,0.0,0.0,0.0,0.0,0.0,0.0,0.0,0.0,0.0,0.0,0.0,0.0,0.0,0.0,0.0,0.0,0.0,3.8717,4.0595,4.2066,4.2354,4.2743,4.3426,4.1634,4.0138,3.9244,3.5883,0.0,0.0,0.0,0.0,0.0,0.0,0.0,0.0,0.0,0.0,0.0,0.0,0.0,0.0,0.0,0.0,0.0,0.0,0.0,0.0,0.0,0.0,0.0,0.0,0.0,0.0,0.0,0.0,0.0,0.0,0.0,0.0,0.0,0.0,0.0,0.0,0.0,0.0,0.0,0.0,0.0,0.0,0.0,0.0,0.0,0.0,0.0,0.0,0.0,0.0,0.0,0.0,0.0,0.0,0.0,0.0,0.0,0.0,0.0,0.0,0.0,0.0,0.0,0.0,0.0,0.0,0.0,0.0,0.0,0.0,0.0,0.0,0.0,0.0,0.0,0.0,0.0,0.0,0.0,0.0,0.0,0.0,0.0,0.0,0.0,0.0,0.0,0.0,0.0,0.0,0.0,0.0,0.0,0.0,0.0,0.0,0.0,0.0,0.0,0.0,0.0,0.0,3.8072,3.98,4.0823,4.1339,4.1728,4.2016,4.134,4.0092,3.8202,0.0,0.0,0.0,0.0,0.0,0.0,0.0,0.0,0.0,0.0,0.0,0.0,0.0,0.0,0.0,0.0,0.0,0.0,0.0,0.0,0.0,0.0,0.0,0.0,0.0,0.0,0.0,0.0,0.0,0.0,0.0,0.0,0.0,0.0,0.0,0.0,0.0,0.0,0.0,0.0,0.0,0.0,0.0,0.0,0.0,0.0,0.0,0.0,0.0,0.0,0.0,0.0,0.0,0.0,0.0,0.0,0.0,0.0,0.0,0.0,0.0,0.0,0.0,0.0,0.0,0.0,0.0,0.0,0.0,0.0,0.0,0.0,0.0,0.0,0.0,0.0,0.0,0.0,0.0,0.0,0.0,0.0,0.0,0.0,0.0,0.0,0.0,0.0,0.0,0.0,0.0,0.0,0.0,0.0,0.0,0.0,0.0,0.0,0.0,0.0,0.0,0.0,3.6117,3.8122,3.9678,4.017,4.0696,4.0977,4.0977,4.0407,3.9266,3.7477,0.0,0.0,0.0,0.0,0.0,0.0,0.0,0.0,0.0,0.0,0.0,0.0,0.0,0.0,0.0,0.0,0.0,0.0,0.0,0.0,0.0,0.0,0.0,0.0,0.0,0.0,0.0,0.0,0.0,0.0,0.0,0.0,0.0,0.0,0.0,0.0,0.0,0.0,0.0,0.0,0.0,0.0,0.0,0.0,0.0,0.0,0.0,0.0,0.0,0.0,0.0,0.0,0.0,0.0,0.0,0.0,0.0,0.0,0.0,0.0,0.0,0.0,0.0,0.0,0.0,0.0,0.0,0.0,0.0,0.0,0.0,0.0,0.0,0.0,0.0,0.0,0.0,0.0,0.0,0.0,0.0,0.0,0.0,0.0,0.0,0.0,0.0,0.0,0.0,0.0,0.0,0.0,0.0,0.0,0.0,0.0,0.0,0.0,0.0,0.0,0.0,0.0,3.6995,3.9084,4.051,4.051,4.051,4.051,4.051,3.8418,3.7182,0.0,0.0,0.0,0.0,0.0,0.0,0.0,0.0,0.0,0.0,0.0,0.0,0.0,0.0,0.0,0.0,0.0,0.0,0.0,0.0,0.0,0.0,0.0,0.0,0.0,0.0,0.0,0.0,0.0,0.0,0.0,0.0,0.0,0.0,0.0,0.0,0.0,0.0,0.0,0.0,0.0,0.0,0.0,0.0,0.0,0.0,0.0,0.0,0.0,0.0,0.0,0.0,0.0,0.0,0.0,0.0,0.0,0.0,0.0,0.0,0.0,0.0,0.0,0.0,0.0,0.0,0.0,0.0,0.0,0.0,0.0,0.0,0.0,0.0,0.0,0.0,0.0,0.0,0.0,0.0,0.0,0.0,0.0,0.0,0.0,0.0,0.0,0.0,0.0,0.0,0.0,0.0,0.0,0.0,0.0,0.0,0.0,0.0,0.0,0.0,0.0,0.0,0.0,3.6626,3.8925,4.051,4.051,4.051,4.051,4.051,3.8967,3.7914,3.7671,0.0,0.0,0.0,0.0,0.0,0.0,0.0,0.0,0.0,0.0,0.0,0.0,0.0,0.0,0.0,0.0,0.0,0.0,0.0,0.0,0.0,0.0,0.0,0.0,0.0,0.0,0.0,0.0,0.0,0.0,0.0,0.0,0.0,0.0,0.0,0.0,0.0,0.0,0.0,0.0,0.0,0.0,0.0,0.0,0.0,0.0,0.0,0.0,0.0,0.0,0.0,0.0,0.0,0.0,0.0,0.0,0.0,0.0,0.0,0.0,0.0,0.0,0.0,0.0,0.0,0.0,0.0,0.0,0.0,0.0,0.0,0.0,0.0,0.0,0.0,0.0,0.0,0.0,0.0,0.0,0.0,0.0,0.0,0.0,0.0,0.0,0.0,0.0,0.0,0.0,0.0,0.0,0.0,0.0,0.0,0.0,0.0,0.0,0.0,0.0,0.0,0.0,3.724,3.9279,4.0655,4.0655,4.0655,4.0655,4.0655,3.9587,3.8296,3.6842,0.0,0.0,0.0,0.0,0.0,0.0,0.0,0.0,0.0,0.0,0.0,0.0,0.0,0.0,0.0,0.0,0.0,0.0,0.0,0.0,0.0,0.0,0.0,0.0,0.0,0.0,0.0,0.0,0.0,0.0,0.0,0.0,0.0,0.0,0.0,0.0,0.0,0.0,0.0,0.0,0.0,0.0,0.0,0.0,0.0,0.0,0.0,0.0,0.0,0.0,0.0,0.0,0.0,0.0,0.0,0.0,0.0,0.0,0.0,0.0,0.0,0.0,0.0,0.0,0.0,0.0,0.0,0.0,0.0,0.0,0.0,0.0,0.0,0.0,0.0,0.0,0.0,0.0,0.0,0.0,0.0,0.0,0.0,0.0,0.0,0.0,0.0,0.0,0.0,0.0,0.0,0.0,0.0,0.0,0.0,0.0,0.0,0.0,0.0,0.0,0.0,0.0,3.8326,3.9847,4.0825,4.0894,4.0912,4.0912,4.0912,4.0146,3.8513,3.5742,0.0,0.0,0.0,0.0,0.0,0.0,0.0,0.0,0.0,0.0,0.0,0.0,0.0,0.0,0.0,0.0,0.0,0.0,0.0,0.0,0.0,0.0,0.0,0.0,0.0,0.0,0.0,0.0,0.0,0.0,0.0,0.0,0.0,0.0,0.0,0.0,0.0,0.0,0.0,0.0,0.0,0.0,0.0,0.0,0.0,0.0,0.0,0.0,0.0,0.0,0.0,0.0,0.0,0.0,0.0,0.0,0.0,0.0,0.0,0.0,3.8738,3.715,0.0,0.0,0.0,0.0,0.0,0.0,0.0,0.0,0.0,0.0,0.0,0.0,0.0,0.0,0.0,0.0,0.0,0.0,0.0,0.0,0.0,0.0,0.0,0.0,0.0,0.0,0.0,0.0,0.0,0.0,0.0,0.0,0.0,0.0,0.0,0.0,0.0,0.0,0.0,0.0,3.7757,3.9146,4.0198,4.0843,4.0912,4.0912,4.0912,4.0146,3.9321,3.8398,3.6548,0.0,0.0,0.0,0.0,0.0,0.0,0.0,0.0,0.0,0.0,0.0,0.0,0.0,0.0,0.0,0.0,0.0,0.0,0.0,0.0,0.0,0.0,0.0,0.0,0.0,0.0,0.0,0.0,0.0,0.0,0.0,0.0,0.0,0.0,0.0,0.0,0.0,0.0,0.0,0.0,0.0,0.0,0.0,0.0,0.0,0.0,0.0,0.0,0.0,0.0,0.0,0.0,0.0,0.0,0.0,0.0,0.0,0.0,0.0,4.2561,4.1198,0.0,0.0,0.0,0.0,0.0,0.0,0.0,0.0,0.0,0.0,0.0,0.0,0.0,0.0,0.0,0.0,0.0,0.0,0.0,0.0,0.0,0.0,0.0,0.0,0.0,0.0,0.0,0.0,0.0,0.0,0.0,0.0,0.0,0.0,0.0,0.0,0.0,0.0,0.0,0.0,3.802,3.9404,4.0446,4.086,4.0912,4.0989,4.1163,4.0803,4.0115,3.9065,3.8113,0.0,0.0,0.0,0.0,0.0,0.0,0.0,0.0,0.0,0.0,0.0,0.0,0.0,0.0,0.0,0.0,0.0,0.0,0.0,0.0,0.0,0.0,0.0,0.0,0.0,0.0,0.0,0.0,0.0,0.0,0.0,0.0,0.0,0.0,0.0,0.0,0.0,0.0,0.0,0.0,0.0,0.0,0.0,0.0,0.0,0.0,0.0,0.0,0.0,0.0,0.0,0.0,0.0,4.8446,4.792,4.6477,4.7179,4.7124,4.6539,4.7331,4.6473,4.4414,4.3406,0.0,0.0,0.0,0.0,0.0,0.0,0.0,0.0,0.0,0.0,0.0,0.0,0.0,0.0,0.0,0.0,0.0,0.0,0.0,0.0,0.0,0.0,0.0,0.0,4.1921,4.1698,3.725,0.0,0.0,0.0,0.0,0.0,0.0,0.0,0.0,0.0,0.0,0.0,3.8323,3.9756,4.0739,4.0894,4.0912,4.1065,4.1468,4.1494,4.0874,3.9387,3.986,3.8733,0.0,0.0,0.0,0.0,0.0,0.0,0.0,0.0,0.0,0.0,0.0,0.0,0.0,0.0,0.0,0.0,0.0,0.0,0.0,0.0,0.0,0.0,0.0,0.0,0.0,0.0,0.0,0.0,0.0,0.0,0.0,0.0,3.8083,3.9708,0.0,0.0,0.0,0.0,0.0,0.0,0.0,0.0,0.0,0.0,0.0,0.0,0.0,4.9483,5.0513,5.2621,5.2657,5.0707,5.2944,5.2857,5.0706,5.0918,5.0953,5.0902,5.1654,0.0,4.5328,4.6466,0.0,0.0,0.0,0.0,0.0,0.0,0.0,0.0,0.0,0.0,0.0,0.0,0.0,0.0,0.0,0.0,0.0,0.0,0.0,0.0,0.0,0.0,4.4011,4.3348,4.3454,4.3381,0.0,4.0476,3.8946,3.7995,3.6478,0.0,0.0,0.0,0.0,0.0,0.0,0.0,3.7547,3.8922,4.0112,4.0825,4.0912,4.1065,4.1468,4.1494,4.1421,4.1232,4.004,3.9,3.8187,3.6857,0.0,0.0,0.0,0.0,0.0,0.0,0.0,0.0,0.0,0.0,0.0,0.0,0.0,0.0,0.0,0.0,0.0,0.0,0.0,0.0,0.0,0.0,0.0,0.0,0.0,0.0,0.0,0.0,0.0,3.9007,4.0995,4.0713,4.1851,4.2321,0.0,0.0,0.0,0.0,0.0,0.0,0.0,0.0,0.0,5.2637,5.2773,5.3574,5.5183,5.6003,5.6102,5.5526,5.5859,5.5537,5.4611,5.4232,5.384,5.3521,5.385,5.254,5.0146,4.91,4.8072,4.6957,0.0,0.0,0.0,0.0,4.3763,4.4558,4.5511,4.535,4.4837,4.5542,0.0,0.0,0.0,0.0,0.0,0.0,0.0,0.0,0.0,0.0,4.5122,4.4359,4.5235,4.5942,4.4821,4.3297,4.1705,0.0,3.9382,3.8491,3.6904,0.0,0.0,0.0,0.0,3.787,3.8629,3.9704,4.0515,4.086,4.0912,4.1163,4.1842,4.1885,4.2119,4.2631,4.1573,4.0673,4.0068,3.8505,3.7441,0.0,0.0,0.0,0.0,0.0,0.0,0.0,0.0,0.0,0.0,0.0,0.0,0.0,0.0,0.0,0.0,0.0,0.0,0.0,0.0,0.0,0.0,0.0,0.0,0.0,0.0,0.0,0.0,4.2296,4.4223,4.2905,4.5814,4.67,0.0,0.0,0.0,0.0,0.0,0.0,5.17,5.281,5.4436,5.6663,5.6812,5.7657,5.9325,5.8963,5.9015,5.9364,5.795,5.7269,5.716,5.6208,5.5508,5.5026,5.5026,5.4769,5.4144,5.1408,5.0175,4.9667,4.6658,4.605,4.676,4.5574,4.5478,4.6102,4.7096,4.6971,4.6374,4.6607,4.5624,4.3923,4.1664,0.0,0.0,0.0,0.0,4.1364,4.3234,4.4705,4.5618,4.5258,4.6525,4.7461,4.6198,4.5217,4.4027,0.0,4.1733,4.1095,3.9198,0.0,0.0,0.0,0.0,3.9008,3.937,4.0383,4.1065,4.1065,4.1163,4.1552,4.2318,4.2378,4.2603,4.3151,4.2818,4.2066,4.0838,3.9643,3.8524,3.7529,0.0,0.0,0.0,0.0,0.0,0.0,0.0,0.0,0.0,0.0,0.0,0.0,0.0,0.0,0.0,0.0,0.0,0.0,0.0,0.0,0.0,0.0,0.0,0.0,0.0,0.0,0.0,0.0,0.0,4.8039,5.2212,0.0,0.0,0.0,0.0,5.1332,5.2654,5.4756,5.7797,5.872,5.9941,6.158,6.1643,6.1697,6.1815,6.1796,6.1417,6.0684,5.9271,5.8213,5.7435,5.6058,5.5402,5.5355,5.5355,5.5373,5.5196,5.3401,5.2238,5.1489,5.0464,4.9654,4.9029,4.8809,4.8748,4.8711,4.8248,4.7563,4.71,4.8001,4.6766,4.4663,4.3082,4.1946,0.0,0.0,4.2264,4.3453,4.4327,4.5111,4.5872,4.6532,4.6869,4.685,4.6085,4.5953,4.5607,0.0,4.2314,4.0687,3.9802,0.0,3.9112,3.7719,3.8715,3.9405,3.8732,4.0314,4.1468,4.1468,4.1864,4.2338,4.2825,4.2863,4.2723,4.2379,4.3039,4.2395,4.0047,3.9882,3.9108,3.7529,3.6684,0.0,0.0,0.0,0.0,0.0,0.0,0.0,0.0,0.0,0.0,0.0,0.0,0.0,0.0,0.0,0.0,0.0,0.0,0.0,0.0,0.0,0.0,0.0,0.0,0.0,0.0,0.0,0.0,5.1365,5.4535,0.0,5.2888,5.3482,5.4614,5.5956,5.7438,5.9216,6.1371,6.1281,6.1643,6.273,6.2277,6.1743,6.1218,6.1218,6.0828,6.0031,5.8969,5.8349,5.8042,5.702,5.6348,5.5978,5.5978,5.5762,5.5337,5.473,5.4056,5.3327,5.21,5.1466,5.1125,5.053,5.0292,5.0232,4.9901,4.8726,4.7243,4.6368,4.6024,4.5677,4.4234,4.3417,4.3037,4.3184,4.3563,4.4133,4.5089,4.5855,4.6346,4.6143,4.6476,4.6535,4.5332,4.5222,4.5244,4.4768,4.3752,4.2385,4.0648,4.041,4.0135,3.906,3.9353,3.9784,4.0066,4.0689,4.1117,4.1117,4.1277,4.1552,4.1969,4.1795,4.1733,4.1832,4.1931,4.157,4.0708,4.0175,3.9386,3.8285,3.6964,3.5781,0.0,0.0,0.0,0.0,0.0,0.0,0.0,0.0,0.0,0.0,0.0,0.0,0.0,0.0,0.0,0.0,0.0,0.0,0.0,0.0,0.0,0.0,0.0,0.0,0.0,5.1907,5.5062,5.4427,5.7801,5.9203,5.6722,5.7913,5.9271,6.0339,6.1915,6.3291,6.4359,6.4178,6.3907,6.3599,6.3092,6.235,6.1422,6.1131,6.0765,6.0354,5.9297,5.8786,5.875,5.7947,5.7277,5.6819,5.6819,5.651,5.5971,5.5508,5.5039,5.4525,5.3397,5.2772,5.2461,5.1889,5.1529,5.1188,5.0247,4.8872,4.7245,4.5725,4.5752,4.6196,4.5256,4.4823,4.4723,4.5142,4.505,4.5079,4.6082,4.6323,4.6198,4.5783,4.5872,4.5855,4.5111,4.4907,4.4886,4.4923,4.4719,4.3898,4.1886,4.1616,4.1412,4.0595,4.025,4.0388,4.117,4.1174,4.1094,4.1094,4.1255,4.1358,4.136,4.139,4.1232,4.0854,4.1103,4.0853,3.9921,3.9882,3.9386,3.8322,3.6982,3.6056,3.5565,0.0,0.0,0.0,0.0,0.0,0.0,0.0,0.0,0.0,0.0,0.0,0.0,0.0,0.0,0.0,0.0,0.0,0.0,0.0,0.0,0.0,0.0,0.0,5.1932,5.5058,5.7387,5.7424,6.2259,6.4088,6.0212,6.2621,6.445,6.4468,6.5917,6.6804,6.6804,6.7529,6.684,6.4468,6.4378,6.3784,6.253,6.1682,6.1441,6.1768,6.0217,5.9479,5.9442,5.8648,5.8119,5.7815,5.7815,5.7583,5.7134,5.5747,5.5169,5.5053,5.4402,5.3688,5.2958,5.2969,5.2488,5.1532,4.9214,4.7975,4.7219,4.6362,4.6133,4.6175,4.614,4.614,4.6305,4.7061,4.672,4.635,4.7348,4.6468,4.5385,4.5671,4.5173,4.4835,4.5517,4.5122,4.4654,4.4776,4.5113,4.488,4.3414,4.3172,4.2913,4.2102,4.136,0.0,4.1878,4.169,4.1472,4.1472,4.1885,4.1854,4.1127,4.1696,4.1303,3.9406,4.0655,4.0288,3.7643,3.9016,3.9108,3.7566,3.6758,3.634,3.634,0.0,0.0,0.0,0.0,0.0,0.0,0.0,0.0,0.0,0.0,0.0,0.0,0.0,0.0,0.0,0.0,0.0,0.0,0.0,0.0,0.0,5.0787,5.359,5.3231,5.7999,6.1752,6.2349,6.4305,6.5392,6.4867,6.5084,6.55,6.6098,6.6551,6.6804,6.6804,6.646,6.5681,6.4432,6.3816,6.2649,6.0822,6.0566,6.0065,5.9276,5.8833,5.8629,5.8611,5.8411,5.8235,5.8164,5.8164,5.8101,5.7914,5.6951,5.6209,5.5524,5.3939,5.2825,5.2116,5.1953,5.1362,5.0462,4.9412,4.8893,4.8387,4.666,4.6729,4.7388,4.6843,4.6954,4.7227,4.7043,4.6843,4.6779,4.7191,4.6734,4.6197,4.6275,4.5829,4.5314,4.4959,4.4834,4.4765,4.4776,4.4541,4.3871,4.2429,4.2752,4.2741,4.1412,4.1032,0.0,4.1188,4.1133,4.1065,4.1065,4.1163,4.0941,4.014,4.0059,3.9671,3.8831,3.8417,3.8251,3.8362,3.8245,3.8227,3.8377,3.7584,3.718,0.0,0.0,0.0,0.0,0.0,0.0,0.0,0.0,0.0,0.0,0.0,0.0,0.0,0.0,0.0,0.0,0.0,0.0,0.0,0.0,0.0,0.0,5.4207,5.7138,5.7609,6.0576,6.3128,6.4251,6.5102,6.5917,6.6732,6.6388,6.6297,6.6768,6.7112,6.7166,6.6822,6.637,6.5573,6.4432,6.3793,6.2623,6.086,6.0659,6.0122,5.9264,5.8892,5.8725,5.8725,5.8725,5.8642,5.8516,5.8516,5.8431,5.8227,5.7082,5.6325,0.0,0.0,0.0,0.0,0.0,5.1086,5.0466,4.9473,4.8887,4.837,4.7148,4.7025,4.7357,4.7272,4.745,4.7708,4.7737,4.7505,4.7357,4.7913,4.735,4.6679,4.676,4.6143,4.5576,4.5667,4.5072,4.4622,4.5045,4.4318,0.0,4.2001,4.2248,4.2297,4.1402,4.1054,4.0991,4.123,4.1054,4.0912,4.0912,4.0912,4.0584,3.9767,3.9669,0.0,0.0,0.0,3.8123,3.8673,3.7933,0.0,0.0,0.0,3.7991,3.7991,0.0,0.0,0.0,3.8355,3.8579,0.0,0.0,0.0,0.0,0.0,0.0,0.0,0.0,0.0,0.0,0.0,0.0,0.0,0.0,0.0,0.0,5.7804,6.1402,6.3011,6.2592,6.2758,6.4464,6.5343,6.6058,6.6664,6.6779,6.6834,6.6845,6.7515,6.7599,6.6841,6.6805,0.0,0.0,0.0,6.3105,6.1814,6.1336,6.0869,6.0454,5.9666,5.929,5.929,5.929,5.914,5.8848,5.8848,5.8686,5.828,5.6691,5.5858,5.5486,5.4572,5.3573,5.2526,5.1511,5.1048,5.0754,4.9409,0.0,0.0,4.7681,4.7174,4.6649,4.7464,4.7717,4.7862,4.8547,4.8239,4.7919,4.8803,4.7966,4.6954,4.7114,4.6263,4.5693,4.6753,4.549,4.4439,4.5233,4.4183,4.2895,4.2071,4.1845,4.1778,4.1717,4.123,4.1082,4.1638,4.1213,4.0912,4.0912,0.0,0.0,3.9767,4.007,3.9873,3.8804,3.9085,3.9067,3.8582,3.797,3.7955,3.8689,3.8707,3.8707,3.8707,3.8707,3.8707,3.8726,3.9423,3.9386,0.0,0.0,0.0,0.0,0.0,0.0,0.0,0.0,0.0,0.0,0.0,0.0,0.0,0.0,0.0,5.5863,5.8998,6.1698,6.3375,6.3191,6.3751,6.6062,6.6764,6.6856,6.6363,6.6609,6.6932,6.7248,6.7422,6.7314,6.6827,6.6817,6.6044,6.437,6.361,6.2627,6.136,6.0606,5.9992,5.9553,0.0,0.0,5.929,5.929,5.9253,5.9215,5.9215,5.9178,5.8989,5.7379,5.5526,5.3583,5.2233,5.117,5.0393,5.0169,4.9515,4.8764,4.9109,4.8125,4.6848,4.75,4.7174,4.6649,4.7464,4.7717,0.0,4.7877,4.7826,4.7729,4.7933,4.7447,4.6921,4.6949,4.644,4.5877,4.5556,4.5198,4.4751,4.4313,4.3529,4.2934,4.2778,4.2133,4.1498,4.1133,4.0879,4.082,4.1054,4.0974,4.0912,4.0912,4.0912,4.0584,3.9767,4.011,4.0161,3.959,3.9692,3.9158,3.7804,3.8212,3.8542,3.8707,3.8707,3.8707,3.8707,3.8707,3.8707,3.8707,3.8854,3.8854,0.0,0.0,0.0,0.0,0.0,0.0,0.0,0.0,0.0,0.0,0.0,4.9388,5.0328,0.0,5.6311,5.8934,6.1257,6.3177,6.443,6.4806,6.5097,6.549,6.5727,6.6003,6.6463,6.6681,6.6865,6.7087,6.7087,6.6633,6.5595,6.5158,6.4365,6.3128,6.2484,6.1645,6.0611,6.0402,5.9944,5.929,5.929,5.929,5.929,5.929,5.929,5.929,5.929,5.929,5.9178,5.7563,5.5441,5.3078,5.1908,5.1378,5.1121,5.0157,4.9616,4.9305,4.8864,4.7458,4.6033,4.6848,4.6558,4.6051,4.6866,4.7102,4.7192,4.7591,4.7428,4.7102,4.7102,4.6916,4.6618,4.6287,4.5797,4.5386,4.5366,4.4825,4.424,4.3871,4.3205,4.2671,4.2516,4.1852,4.1304,4.1129,4.0924,4.0793,4.0793,4.0864,4.0912,4.0912,4.0912,4.0739,4.0319,4.0539,4.0622,4.0456,4.0474,4.0139,3.9331,3.9294,3.9294,3.9294,3.8909,3.8707,3.8707,3.8707,3.8707,3.8707,3.8707,3.8707,0.0,0.0,0.0,0.0,0.0,0.0,0.0,4.711,4.7819,4.8138,5.0034,5.2118,5.3637,5.5816,5.8389,6.1524,6.3177,6.4397,6.5373,6.5843,6.5579,6.4234,6.4409,6.512,6.6297,6.6482,6.6574,6.6649,6.6519,6.5804,6.4372,6.3544,6.2729,6.1896,6.1199,6.0603,6.0118,6.0114,5.9853,5.929,5.929,5.929,5.929,5.929,5.929,5.929,5.929,5.9121,5.8727,5.7431,5.5329,5.2869,5.2125,5.1976,5.2008,5.0359,4.9972,5.0089,4.8689,4.6975,4.5535,4.6271,4.5852,4.5218,4.6015,4.6269,4.6413,4.7065,4.6776,4.6269,4.6289,4.6307,4.6166,4.563,4.5192,4.4978,4.5325,4.4551,4.3772,4.3668,4.3128,4.26,4.2304,4.181,4.1437,4.1348,4.1071,4.084,4.0745,4.084,4.0912,4.0912,4.0965,4.1088,4.1277,4.1339,4.1357,4.1337,4.1334,4.126,4.1113,4.0487,4.012,4.012,3.935,3.8927,3.8927,3.8781,3.8707,3.8707,3.8707,3.8707,4.5098,4.4221,4.4158,4.5527,4.5395,4.5874,0.0,5.0384,5.0726,5.221,5.3864,5.5366,5.6305,5.7882,5.9872,6.2463,6.3083,6.3759,6.5298,6.4359,6.3457,6.3264,6.4803,6.5682,6.5161,6.5451,6.5786,6.6142,6.5514,6.4867,6.4331,6.3525,6.2701,6.184,6.0322,5.9834,6.0528,5.9103,5.8689,5.929,5.929,5.929,5.929,5.929,5.929,5.929,5.929,5.8483,5.715,5.6962,5.4972,5.2011,5.168,5.1111,5.0403,4.9781,4.9384,4.9113,4.8679,4.7316,4.5844,4.6352,4.5472,4.4385,4.5182,4.5436,4.5454,4.5544,4.549,4.5456,4.5573,4.5611,4.5594,4.56,4.5544,4.5344,4.4839,4.4583,4.4273,4.3579,4.3412,4.3357,4.3269,4.2939,4.2418,4.1604,4.1047,4.0769,4.0847,4.0888,4.0912,4.0912,4.1214,4.1756,4.2614,4.2678,4.2541,4.2179,4.2176,4.1864,4.1132,4.1003,4.0967,4.0967,4.0175,3.9772,3.9753,3.9056,3.8707,3.8707,3.8707,3.8707,4.588,4.5678,4.6004,4.682,4.7864,4.9172,5.0932,5.1604,5.2208,5.3414,5.4975,5.6323,5.7003,5.8482,6.0185,6.2014,6.2745,6.3327,6.4021,6.3514,6.2745,6.1768,6.2813,6.3647,6.3834,6.4006,6.419,6.4339,6.404,6.3353,6.2219,6.1355,6.0511,5.9684,5.8971,5.8783,5.914,5.8915,5.8971,5.929,5.884,5.8614,5.8614,5.8614,5.8614,5.8577,5.8107,5.689,5.5192,5.5192,5.37,5.1321,5.0749,4.9989,4.9247,4.9055,4.91,4.9085,4.7997,4.6688,4.5469,4.5185,4.4639,4.415,4.4494,4.4603,4.4693,4.5164,4.4965,4.4622,4.4661,4.4738,4.4705,4.429,4.4273,4.4254,4.4014,4.3959,4.3867,4.3519,4.348,4.3497,4.3463,4.3142,4.2673,4.2011,4.149,4.1094,4.0918,4.0912,4.0912,4.0912,4.1041,4.1401,4.2032,4.2338,4.2548,4.2632,4.2829,4.2788,4.244,4.2,4.1744,4.1744,4.0987,4.0598,4.0598,3.9984,3.9683,3.9683,3.9443,3.9337,4.6512,4.7015,4.7808,4.8643,5.0407,5.1986,5.2238,5.2858,5.3607,5.4505,5.5453,5.6385,5.7251,5.8331,5.9624,6.1262,6.1994,6.2498,6.2928,6.2609,6.1878,6.0679,6.0867,6.1336,6.1955,6.2462,6.2745,6.2745,6.2538,6.1881,6.0661,5.9778,5.8933,5.8127,5.8089,5.7995,5.7769,5.8351,5.8633,5.8633,5.8051,5.7769,5.7769,5.7769,5.7657,5.7376,5.6793,5.5486,5.3755,5.344,5.2196,5.038,4.9418,4.8532,4.7813,4.7721,4.8032,4.8323,4.7055,4.5932,4.4992,4.4334,4.3951,4.3769,4.3769,4.3769,4.3878,4.4476,4.4222,4.3789,4.3808,4.3902,4.387,4.3378,4.334,4.3446,4.3497,4.3515,4.3515,4.3515,4.3515,4.3515,4.3515,4.3268,4.2864,4.2297,4.1906,4.149,4.0965,4.0912,4.0942,4.1065,4.1065,4.1232,4.1648,4.2115,4.2518,4.2825,4.3196,4.3323,4.316,4.2595,4.225,4.2141,4.1396,4.1048,4.1066,4.051,4.022,4.0238,3.9938,3.9927,4.6972,4.7707,4.8663,5.1154,5.2364,5.3196,5.4105,5.4678,5.5286,5.6236,5.5744,5.5666,5.7374,5.7453,5.8058,6.044,6.0623,6.0991,6.2498,6.1377,6.0389,6.0393,5.9758,5.929,5.9327,6.0847,6.1825,6.1825,6.113,6.0661,6.0604,5.9778,5.8933,5.8127,5.8089,5.7732,5.6943,5.6962,5.6962,5.6962,5.6943,5.6943,5.6943,5.6943,5.6493,5.5668,5.5649,5.4728,5.3134,5.2034,5.0625,4.901,4.7629,4.6579,4.5846,4.5521,4.579,4.6261,4.5938,4.5297,4.4565,4.4211,4.357,4.2955,4.2955,4.2955,4.2955,4.2973,4.2973,4.2974,4.3085,4.3178,4.3251,4.3376,4.3446,4.3497,4.3515,4.3515,4.3515,4.3515,4.3515,4.3515,4.3515,4.3497,4.3196,4.232,4.2195,4.1881,4.1012,4.0912,4.1041,4.1445,4.1472,4.167,4.2136,4.2614,4.2844,4.2711,4.3123,4.3142,4.2542,4.2505,4.2348,4.2006,4.1217,4.0867,4.1004,4.0216,3.9822,3.9802,3.982,4.0212,4.7056,4.8974,5.0874,5.2435,5.3889,5.4862,5.4603,5.4648,5.472,5.4481,5.3729,5.3171,5.341,5.422,5.5393,5.6961,5.9157,6.0774,6.1081,6.1297,6.0755,5.8894,5.8912,5.8856,5.8333,5.8877,5.9459,5.9906,5.9195,5.8989,5.9513,5.8803,5.8146,5.7635,5.7732,5.7204,5.599,5.7385,5.7485,5.6291,5.6125,5.5761,5.5216,5.469,5.4294,5.3977,5.3414,5.2113,5.0376,4.9818,4.8493,4.6746,4.5765,4.5104,4.463,4.4198,4.4035,4.4072,4.4524,4.4486,4.4158,4.35,4.3137,4.2901,4.2901,4.2901,4.2901,4.2901,4.2901,4.2901,4.2975,4.305,4.316,4.3251,4.3358,4.3429,4.3429,4.3429,4.3429,4.3429,4.3429,4.3446,4.3497,4.3515,4.3196,4.232,4.1709,4.1232,4.0942,4.0912,4.0942,4.1088,4.1094,4.126,4.1692,4.2157,4.2518,4.2692,4.2559,4.245,4.2422,4.1453,4.0937,4.1014,4.0349,4.006,4.0141,3.959,3.9379,3.9458,3.9066,3.9016,4.8457,5.0626,5.2597,5.3899,5.5056,5.5654,5.4786,5.4583,5.4246,5.3146,5.1989,5.1135,5.0998,5.1306,5.227,5.4279,5.6298,5.8009,5.915,5.9663,5.9515,5.8329,5.8645,5.8757,5.8253,5.7976,5.8164,5.8948,5.8518,5.8462,5.8985,5.8538,5.7954,5.7274,5.7375,5.6464,5.4496,5.6011,5.6019,5.4464,5.4575,5.4229,5.3457,5.323,5.2834,5.2285,5.1705,5.0359,4.8507,4.7657,4.6524,4.5204,4.4333,4.3858,4.3642,4.333,4.3066,4.2973,4.348,4.3661,4.3588,4.3082,4.2901,4.2901,4.2901,4.2901,4.2901,4.2901,4.2901,4.2901,4.2901,4.2994,4.3104,4.3142,4.3251,4.3323,4.3323,4.3323,4.3323,4.3323,4.3376,4.3394,4.3464,4.3357,4.3032,4.23,4.1578,4.1065,4.0935,4.0912,4.0791,4.0515,4.0457,4.0545,4.0661,4.1339,4.1761,4.1805,4.1905,4.1814,4.1479,4.053,3.9937,3.9859,3.9469,3.9244,3.9203,3.8963,3.889,3.8925,3.856,3.8397,5.09,5.2482,5.3764,5.5422,5.5778,5.5518,5.4718,5.442,5.3851,5.223,5.0545,4.9499,5.0015,4.8903,4.9046,5.2548,5.2661,5.3513,5.7089,5.6993,5.7126,5.8713,5.892,5.892,5.894,5.8137,5.8009,5.8948,5.8947,5.8947,5.8984,5.8984,5.8393,5.7119,5.7063,5.565,5.2707,5.3104,5.2806,5.1815,5.2543,5.2447,5.1692,5.2515,5.1986,5.0472,5.0509,4.9444,4.752,4.5714,4.4795,4.4419,4.3303,4.2882,4.29,4.2863,4.2882,4.2901,4.2901,4.2901,4.2901,4.2901,4.2901,4.2901,4.2901,4.2901,4.2901,4.2901,4.2901,4.2901,4.2901,4.2994,4.3086,4.3104,4.3142,4.3178,4.3178,4.3178,4.3178,4.3178,4.3305,4.3394,4.3394,4.3142,4.2769,4.2318,4.1807,4.1326,4.0896,4.0843,4.0549,3.9715,3.9629,3.9539,3.9245,4.0217,4.0663,4.0254,4.1216,4.1197,3.9878,3.9734,3.9381,3.869,3.8633,3.8479,3.8231,3.8294,3.8271,3.8208,3.8248,3.8225,5.0552,5.2438,5.4302,5.4744,5.483,5.4619,5.3743,5.2579,5.1174,4.947,4.8126,4.7042,4.6363,4.7896,4.9931,5.1905,5.5053,5.7613,5.8615,5.9362,5.964,5.9178,5.9102,5.9253,5.954,5.8574,5.8259,5.9103,5.8365,5.8148,5.8743,5.8881,5.8628,5.7987,5.7099,5.5779,5.3959,5.2737,5.2486,5.3191,5.2834,5.1669,4.9817,5.0781,4.9732,4.7179,4.793,4.7281,4.5658,4.498,4.4289,4.3542,4.2707,4.2595,4.2863,4.2498,4.2614,4.2901,4.2901,4.2901,4.2901,4.2901,4.2901,4.2901,4.2901,4.2901,4.2901,4.2901,4.2901,4.2901,4.2901,4.2938,4.2975,4.3086,4.3123,4.3141,4.3141,4.3141,4.3141,4.3141,4.3269,4.3429,4.3481,4.3392,4.3196,4.2769,4.1837,4.0909,4.0107,4.0008,3.9715,3.8957,3.887,3.9099,3.9662,3.9943,4.0269,4.0685,4.0478,4.0217,3.9957,3.8848,3.8228,3.8178,3.7636,3.7373,3.7408,3.7064,3.6938,3.7015,3.6627,3.6445,5.2056,5.3347,5.4545,5.4545,5.4275,5.36,5.199,5.075,4.9267,4.682,4.5453,4.4471,4.3705,4.588,4.8327,5.0,5.3684,5.6815,5.8157,5.8954,5.9401,5.9447,5.9467,5.9554,5.9774,5.9173,5.8888,5.9178,5.814,5.7862,5.8661,5.8758,5.8614,5.8127,5.712,5.5441,5.3015,5.1747,5.1251,5.1502,5.146,5.042,4.8516,4.9094,4.8099,4.5937,0.0,4.6007,4.4777,4.4252,4.3871,4.356,4.2799,4.2889,4.3352,4.274,4.2673,4.2901,4.2901,4.2901,4.2901,4.2901,4.2901,4.2901,4.2901,4.2901,4.2901,4.2901,4.2901,4.2901,4.2901,4.2901,4.2919,4.2994,4.3012,4.3012,4.3012,4.3012,4.303,4.3086,4.3012,4.3068,4.3393,4.3286,4.296,4.2412,4.1753,4.081,3.9406,3.922,3.9012,3.8447,3.8382,3.8582,3.9084,3.9372,3.9608,3.9781,3.971,3.9526,3.9211,3.8384,3.7882,3.7789,3.7382,3.7113,3.6995,3.6799,3.6618,3.6468,3.6406,3.6237,5.4054,5.4458,5.4583,5.4467,5.3752,5.2464,5.014,4.9028,4.7605,4.4468,4.3047,4.2236,4.1889,4.3646,4.591,4.823,5.109,5.4155,5.7403,5.7776,5.8273,5.9852,5.9947,5.9871,5.9918,5.9792,5.9555,5.9137,5.8144,5.7849,5.8512,5.8549,5.8153,5.7281,5.6587,5.4531,5.0963,5.0593,4.9859,4.8834,4.9492,4.8999,4.7494,4.7487,4.6708,4.5388,4.5553,4.5114,4.4236,4.3506,4.3469,4.3821,4.3116,4.3298,4.386,4.3173,4.2828,4.2755,4.2846,4.2847,4.2793,4.2902,4.2957,4.2957,4.2995,4.2976,4.2957,4.2957,4.292,4.2901,4.2901,4.2901,4.2901,4.2901,4.2901,4.2901,4.2901,4.2901,4.2938,4.3068,4.2786,4.2692,4.3305,4.3068,4.2537,4.1814,4.156,4.0781,3.8937,3.8638,3.8438,3.8063,3.8016,3.8046,3.8088,3.8685,3.8879,3.8469,3.9026,3.9017,3.826,3.8225,3.802,3.7614,3.7596,3.7432,3.7075,3.7148,3.6935,3.6471,3.6876,3.6816,5.3292,5.4005,5.4506,5.379,5.2464,5.103,4.9869,4.7671,4.53,4.333,4.2466,4.1845,4.1073,4.3119,4.6206,5.0054,5.2662,5.5731,6.0146,6.0199,6.0127,6.1081,6.0623,6.0321,6.0585,5.9764,5.9039,5.8643,5.8176,5.7847,5.7715,5.7713,5.6543,5.4017,5.3815,5.2379,4.9561,5.0102,5.0119,4.9525,4.9013,4.7954,4.6459,4.6021,4.4644,4.2641,4.3708,0.0,4.2689,4.2722,4.2779,4.2848,4.2722,4.2838,4.31,4.2955,4.2484,4.1994,4.2665,4.254,4.2196,4.2977,4.3232,4.3267,4.3494,4.3408,4.3232,4.3232,4.3087,4.2901,4.2901,4.2901,4.2901,4.2901,4.2901,4.2901,4.2901,4.2901,4.2938,4.3068,4.3068,4.3123,4.3358,4.3375,4.31,4.2294,4.134,4.0311,3.9317,3.8847,3.8349,3.768,3.7591,3.7739,3.8068,3.8211,3.8381,3.8627,3.8656,3.8577,3.8368,3.8305,3.8224,3.8071,3.8139,3.8105,3.7968,3.7721,3.7504,3.7302,3.7036,3.688,5.4234,5.4545,5.4526,5.3619,5.2182,5.0396,4.8043,4.5879,4.3724,4.151,4.1111,4.0899,4.0045,4.2618,4.5714,4.8207,5.0818,5.4084,5.852,5.8833,5.9217,6.0923,6.0808,6.0629,6.0769,6.032,5.9578,5.8565,5.8337,5.7842,5.6936,5.6878,5.6016,5.4147,5.3442,5.23,5.0623,5.0056,4.9475,4.8845,4.7804,4.6495,4.4992,4.4337,4.3253,4.1934,4.2537,4.2626,4.2308,4.2409,4.2701,4.3023,4.2611,4.2803,4.3271,4.2441,4.2209,4.2266,4.1814,4.1705,4.1887,4.2483,4.3008,4.3461,4.3726,4.366,4.3511,4.3511,4.332,4.3124,4.3124,4.3013,4.2901,4.2901,4.2901,4.2901,4.2901,4.2901,4.2919,4.2994,4.2825,4.2807,4.3233,4.3124,4.2814,4.2364,4.1438,4.0515,3.9728,3.9053,3.845,3.788,3.7808,3.7983,3.8385,3.8417,3.8465,3.8593,3.8544,3.8446,3.8336,3.8323,3.8274,3.8209,3.784,3.7856,3.8209,3.7637,3.7431,3.7487,3.7113,3.704,5.5001,5.4969,5.4502,5.3599,5.2041,4.9783,4.6172,4.4298,4.256,3.9861,3.9885,4.0123,3.925,4.1931,4.4674,4.5979,4.8381,5.1758,5.6607,5.7107,5.8011,6.0742,6.0916,6.08,6.08,6.0592,5.983,5.8337,5.7527,5.6773,5.6063,5.5689,5.5113,5.4258,5.3093,5.2024,5.1134,4.9771,4.8679,4.7824,4.657,4.5231,4.3869,4.2956,4.229,4.1849,4.1874,4.1998,4.2163,4.2205,4.2582,4.308,4.2279,4.2494,4.3052,4.1673,4.1573,4.1921,4.0872,4.0818,4.1307,4.1732,4.2415,4.3155,4.3759,4.3741,4.3555,4.374,4.3595,4.3373,4.332,4.3142,4.2976,4.2901,4.2755,4.2683,4.2846,4.3046,4.3118,4.2937,4.276,4.2773,4.3142,4.292,4.2594,4.2347,4.1625,4.0802,3.9992,3.9169,3.8546,3.8218,3.8185,3.8302,3.8611,3.8643,3.8609,3.851,3.851,3.8446,3.8354,3.8322,3.8307,3.8241,3.7687,3.7669,3.8207,3.7653,3.738,3.7381,3.7315,3.7299,5.408,5.4421,5.4313,5.3445,5.1378,4.8662,4.5274,4.3427,4.1703,3.9205,3.9589,4.0123,3.925,4.0795,4.3063,4.5765,4.7205,5.035,5.722,5.7511,5.8242,6.1581,6.1293,6.08,6.08,5.9856,5.8748,5.7484,5.4354,5.3261,5.5038,5.3738,5.2568,5.1769,5.086,4.9806,4.8636,4.8699,4.8155,4.7015,4.5776,4.4746,4.3851,4.2377,4.1674,4.1648,4.1827,4.1805,0.0,4.187,4.1991,4.1973,4.1233,4.1108,4.1276,4.0648,4.0003,3.9554,4.0257,4.0146,3.9883,4.0871,4.1325,4.1822,4.3568,4.3558,4.3133,4.3874,4.3873,4.3612,4.3355,4.3285,4.3196,4.2957,4.2339,4.1994,4.2737,4.3462,4.3769,4.3046,4.3555,4.3903,4.3287,4.3269,4.3084,4.2398,4.1625,4.0802,3.9992,3.9085,3.851,3.8478,3.846,3.8462,3.8433,3.8478,3.851,3.851,3.851,3.8476,3.8478,3.8415,3.8401,3.8366,3.8373,3.8326,3.829,3.8279,3.7867,3.7054,3.7757,3.7721,5.3625,5.4287,5.4217,5.3319,5.0469,4.7207,4.4537,4.2267,4.0248,3.8477,3.97,4.0826,4.003,4.1515,4.3239,4.4438,4.521,4.7357,5.2269,5.2614,5.4017,5.8492,5.8681,5.8873,5.9915,5.9466,5.7986,5.5326,5.2677,5.1426,5.1949,5.1641,5.1211,5.0692,5.0339,4.9915,4.9381,4.8248,4.746,4.6991,4.527,4.3886,4.2867,4.2246,4.1831,4.1604,4.1675,4.1653,0.0,4.1692,4.1454,4.1036,4.0736,4.0459,4.0133,3.9561,3.9532,3.9752,3.9281,3.9259,3.951,3.9935,3.988,4.0007,4.2131,4.2586,4.2525,4.3381,4.3782,4.4032,4.4418,4.4767,4.4853,4.4035,4.4017,4.4198,4.4315,4.4603,4.4729,4.4403,4.4261,4.4101,4.3906,4.3506,4.2977,4.2244,4.1929,4.1304,4.0004,3.9543,3.9106,3.8501,3.8446,3.843,3.8399,3.8415,3.8446,3.8446,3.8478,3.8494,3.8446,3.8462,3.8446,3.8399,3.794,3.7911,3.8307,3.7831,3.7653,3.772,3.7051,3.7105,5.241,5.3449,5.3629,5.2391,4.9372,4.5994,4.3365,4.1099,3.917,3.7819,3.9657,4.1263,4.0488,4.2208,4.3693,4.3601,4.4037,4.5573,4.8933,4.9297,5.0966,5.5703,5.5989,5.6456,5.8093,5.7695,5.5965,5.2717,5.1012,4.9893,4.9321,4.9471,4.9651,4.9786,4.9695,4.9473,4.9195,4.7739,4.6801,4.6379,4.4778,4.3431,4.238,4.238,4.2218,4.1941,4.1831,4.1784,0.0,4.1424,4.0911,4.0281,3.9808,3.9389,3.8939,3.8341,3.8735,3.9354,3.8435,3.852,3.906,3.906,3.8793,3.8805,4.041,4.1189,4.1718,4.258,4.3272,4.3942,4.4743,4.5034,4.4952,4.4396,4.4674,4.5059,4.505,4.5368,4.5508,4.5037,4.4874,4.4696,4.4358,4.3813,4.3196,4.2467,4.2044,4.1327,3.9973,3.9619,3.9216,3.8519,3.8382,3.8368,3.8336,3.8352,3.8368,3.8368,3.8446,3.8478,3.843,3.851,3.8544,3.8481,3.7883,3.7835,3.8322,3.7505,3.7366,3.781,3.6435,3.6526,5.0033,5.1544,5.2335,5.043,4.8055,4.5266,4.165,3.9989,3.8768,3.723,3.9356,4.123,4.0363,4.2443,4.412,4.3599,4.4172,4.5794,4.8952,4.9167,5.0377,5.4086,5.376,5.3791,5.5218,5.4023,5.2164,4.9724,4.9099,4.8484,4.7684,4.7196,4.7514,4.8774,4.8495,4.7921,4.7039,4.7002,4.6232,4.4726,4.4232,4.3587,4.2791,4.2791,4.2791,4.2772,4.238,4.2177,0.0,4.0994,4.0272,3.973,3.8244,3.7637,3.7554,3.7013,3.7164,3.7649,3.7846,3.8039,3.8209,3.8209,3.8338,3.851,3.8544,3.9427,4.0603,4.146,4.2284,4.3107,4.3904,4.3345,4.2733,4.3529,4.3512,4.3541,4.4346,4.5542,4.6015,4.4421,4.5399,4.6019,4.4558,4.4286,4.4033,4.3306,4.188,4.065,3.99,3.9058,3.851,3.851,3.8368,3.8274,3.8209,3.8257,3.8307,3.8307,3.8433,3.851,3.851,3.8624,3.8707,3.8692,3.8559,3.8444,3.8399,3.7519,3.7076,3.6995,3.6182,3.6236,4.6813,4.7615,4.7734,4.6515,4.3715,4.0782,3.8896,3.7752,3.6929,3.6338,3.8921,4.124,4.1107,4.2964,4.4484,4.4398,4.4732,4.5404,4.6627,4.7365,4.87,5.1262,5.2684,5.3437,5.3341,5.1913,5.0306,4.8656,4.7909,4.7249,4.6666,4.6029,4.6117,4.7138,4.7046,4.6715,4.6121,4.5663,4.5257,4.4901,4.4292,4.3698,4.3142,4.3195,4.3069,4.2791,4.2676,4.2174,4.1433,4.106,3.9905,3.8274,3.7789,3.7102,3.6427,3.6398,3.656,3.6818,3.7017,3.717,3.7357,3.7632,3.7774,3.7896,3.8204,3.8802,3.9703,4.1268,4.228,4.3144,4.4115,4.4527,4.4703,4.4779,4.5148,4.5495,4.5566,4.5938,4.603,4.533,4.5165,4.4926,4.4263,4.37,4.2903,4.156,4.1487,4.0919,3.9071,3.9173,3.9168,3.8564,3.8462,3.8385,3.8274,3.8259,3.8241,3.8307,3.8385,3.843,3.843,3.8593,3.8658,3.8575,3.8652,3.8588,3.8399,3.8159,3.7697,3.7013,3.7286,3.7268,4.3769,4.4288,4.398,4.3007,4.07,3.8372,3.7275,3.6699,3.6462,3.6716,3.9143,4.1328,4.1754,4.3241,4.443,4.4487,4.4618,4.4943,4.5621,4.6209,4.7121,4.8662,5.0553,5.1354,5.0361,4.9547,4.8678,4.7719,4.6886,4.6347,4.6204,4.5124,4.4817,4.5441,4.5633,4.5588,4.5358,4.4931,4.4648,4.4574,4.4202,4.3844,4.3562,4.3594,4.3491,4.323,4.2759,4.2104,0.0,4.0376,3.898,3.737,3.6925,3.6334,3.5727,3.5842,3.6079,3.6336,3.6522,3.6684,3.6862,3.7189,3.7377,3.7488,3.7485,3.8081,3.9076,4.0659,4.1514,4.2192,4.318,4.3863,4.4266,4.409,4.4587,4.5056,4.4897,4.5003,4.5031,4.4544,4.4491,4.4346,4.3887,4.3556,4.29,4.1596,4.1433,4.0813,3.9075,3.912,3.9129,3.863,3.8525,3.8525,3.8523,3.8354,3.8241,3.8257,3.8446,3.8523,3.8478,3.8773,3.8715,3.8283,3.8357,3.8346,3.8178,3.8394,3.7718,3.6251,3.7571,3.7774,0.0,4.145,4.1053,3.9918,3.8768,3.7631,3.6522,3.6552,0.0,3.7967,3.9737,4.1413,4.2239,4.3339,4.4072,4.3942,4.4001,4.4449,4.5604,4.5674,4.584,4.651,4.7746,4.7995,4.667,4.7066,4.7176,4.6707,4.5934,4.5634,4.6028,4.4443,4.3622,4.3793,4.413,4.4403,4.4609,4.458,4.43,4.3832,4.3942,4.3989,4.3989,4.4005,4.3968,0.0,4.2693,4.1952,4.1361,3.9119,3.7739,3.6893,3.5814,3.5345,3.5272,3.5362,3.5637,3.5993,3.6167,3.6336,3.6489,3.6646,3.6993,3.7202,3.6453,3.7295,3.8687,3.9644,4.0065,4.0389,4.1292,4.1632,4.1779,4.1892,4.2296,4.2664,4.2739,4.3119,4.3238,4.2465,4.3369,4.3999,4.3231,4.3559,4.3661,4.2846,4.156,4.0431,3.9697,3.8958,3.8525,3.8673,3.859,3.8643,3.8882,3.8538,3.8307,3.8274,3.8612,3.8759,3.8631,3.905,3.8859,3.7922,3.7761,3.7715,3.7729,3.8202,3.7281,3.5115,3.7235,3.7809,3.7355,0.0,3.8253,3.7375,3.6738,3.6111,0.0,3.5559,3.638,3.7506,3.9299,4.1025,4.2187,4.3291,4.3859,4.3326,4.342,4.3781,4.4345,4.5588,4.6452,4.6524,4.6775,4.6446,4.5201,4.5218,4.5124,4.4647,4.4418,4.4331,4.4431,4.3524,4.2923,4.2765,4.1907,4.1881,4.2724,4.2918,4.3084,4.3232,4.3699,4.3915,4.3851,4.3942,4.3652,4.3042,4.2505,4.1365,3.9786,3.866,3.7393,3.6142,3.5611,3.4889,3.4243,3.4825,3.4447,3.377,3.4359,3.4366,3.4167,3.4547,3.5165,3.5703,3.5524,3.6781,3.8231,3.801,3.8103,3.8489,3.9509,3.9468,3.9489,4.0778,4.1177,4.1437,4.2074,4.2174,4.2025,4.1638,4.1656,4.1606,4.1233,4.1778,4.1976,4.1198,4.0781,4.0291,3.9614,3.8877,3.8446,3.8544,3.8781,3.8937,3.8896,3.8673,3.8646,3.8956,3.905,3.9055,3.8898,3.9165,3.8833,3.7836,3.7141,3.6867,3.6972,3.7521,3.7448,3.6757,3.7898,3.8245,3.6227,3.6474,3.657,3.6127,3.6039,3.5904,3.5484,3.585,3.6592,3.7619,0.0,4.0816,4.1897,4.2546,4.2956,4.2947,4.2376,4.2173,4.2885,4.417,4.5077,4.5147,4.5081,4.4821,4.4325,4.428,4.4026,4.3453,4.3015,4.2782,4.2851,4.164,4.1113,4.144,4.0266,4.0162,4.1305,4.1248,4.1384,4.1667,4.2064,4.2237,4.2204,4.2321,4.2167,4.1709,4.1161,3.9927,3.8241,3.766,3.6315,3.466,3.4656,3.4106,3.3326,3.3723,3.3421,3.2879,3.3339,3.3416,3.3351,3.3598,3.4127,3.4585,3.4251,3.5402,3.6777,3.6635,3.6768,3.7057,3.7743,3.7752,3.7866,3.887,3.9089,3.9289,4.0012,4.0074,4.0049,4.0174,4.0278,4.0289,4.0175,4.0708,4.0999,4.0564,4.022,3.9893,3.9544,3.8831,3.8385,3.8446,3.8792,3.9031,3.909,3.9095,3.9114,3.9114,3.9227,3.9232,3.9101,3.9331,3.9021,3.8044,3.7205,3.6802,3.6876,3.7493,3.7739,3.7649,3.8218,3.843,3.6291,3.6105,3.5871,3.5955,3.6238,3.6473,3.6473,0.0,0.0,0.0,0.0,4.0402,4.127,4.1523,4.1758,4.2224,4.1094,4.0528,4.1561,4.2482,4.305,4.3057,4.3054,4.3097,4.3154,4.3161,4.2916,4.2324,4.1528,4.1173,4.1385,3.9813,3.9255,4.0049,3.9163,3.9103,3.9935,3.9749,3.9818,4.0174,4.0238,4.0275,4.0294,4.0419,4.0364,4.0092,0.0,0.0,3.6708,3.6165,3.4846,3.3172,3.3466,3.3086,3.238,3.2425,3.2254,3.1995,3.2028,3.2186,3.2407,3.2492,3.2839,3.3087,3.254,3.3335,3.4489,3.4821,3.5418,3.5966,3.6132,3.6274,3.646,3.6749,3.6822,3.6999,3.7627,3.7873,3.8098,3.8621,3.9173,3.9566,3.9518,4.0011,4.0364,4.0347,3.9804,3.9422,3.949,3.8799,3.8338,3.8415,3.8744,3.9049,3.9314,3.9549,3.9525,3.9131,3.9344,3.9433,3.929,3.9407,3.9114,3.8319,3.7512,3.711,3.711,3.7736,3.797,3.7806,3.8357,3.8425,3.6275,3.6542,3.6577,3.7105,3.7279,3.7323,3.7323,3.6847,0.0,0.0,0.0,0.0,0.0,4.0729,4.0824,3.9785,3.9841,4.0326,4.1163,4.214,4.2237,4.0814,4.1223,4.1151,3.9944,3.9839,3.9847,3.9845,3.9705,3.9869,4.0469,3.969,3.9146,3.9029,3.9038,3.8686,3.7949,3.8902,3.9752,4.0533,4.03,4.0202,4.022,4.042,3.9747,3.8425,0.0,3.6573,3.5063,3.3919,3.3247,3.2927,3.2694,3.1896,3.087,3.116,3.0218,2.8738,2.8319,2.8194,2.8299,2.883,2.9214,2.9577,2.9919,3.0417,3.09,3.0963,3.2946,3.5089,3.5117,3.4765,3.4616,3.5308,3.5488,3.5729,3.6549,3.7276,3.7766,3.7867,3.8493,3.8958,3.8724,3.9321,3.977,3.9585,3.946,3.9404,3.9404,3.8766,3.837,3.8538,3.8923,3.924,3.9458,3.9604,3.9682,3.9604,3.9747,3.9758,3.9635,3.8905,3.8444,3.83,3.7512,3.711,3.711,3.7882,3.7779,3.6918,3.8422,3.8149,3.4733,3.569,3.6678,3.6939,3.7962,3.8881,3.8881,3.8248,0.0,0.0,0.0,0.0,0.0,3.9884,3.9765,3.8647,3.8824,3.9206,3.957,4.0012,4.0095,3.9615,3.9846,3.9791,3.9103,3.8764,3.859,3.8503,3.8239,3.8196,3.8349,3.7983,3.7537,3.6991,3.7359,3.7161,3.627,3.6563,3.7451,3.8911,3.8516,3.8306,3.8306,3.8327,3.7727,3.6609,0.0,3.4966,3.3365,3.3043,3.233,3.1429,3.1317,3.0502,2.9393,2.9014,2.8339,2.7517,2.7286,2.7238,2.7342,2.7615,2.7889,2.8188,2.8654,2.9107,2.9488,2.9707,3.0997,3.2421,3.2937,3.299,3.3031,3.3523,3.4097,3.4618,3.493,3.5703,3.6574,3.7345,3.7864,3.8313,3.8651,3.8899,3.901,3.8933,3.8819,3.8803,3.89,3.8622,3.8512,3.8725,3.9096,3.935,3.9439,3.9658,3.9758,3.9649,3.9715,3.9715,3.9649,3.9219,3.9007,3.9007,3.8169,3.7981,3.8444,3.8357,3.8289,3.8265,3.8896,3.8623,3.3625,3.4688,3.6013,3.6554,0.0,3.9695,4.0274,3.9576,0.0,0.0,0.0,0.0,3.8951,3.8915,3.8813,3.8317,3.839,3.8518,3.849,3.8421,3.8447,3.8693,3.8663,3.859,3.8421,3.7787,3.7298,3.7134,3.6608,3.6285,3.6239,3.609,3.5812,3.5374,3.5832,3.5745,3.5036,3.4687,3.5266,3.6792,3.6142,3.5825,3.5901,3.5804,3.5411,3.4725,3.4422,3.3303,3.1729,3.1966,3.1166,2.9754,2.9669,2.8871,2.764,2.6806,2.6422,2.6281,2.6281,2.6351,2.6456,2.6582,2.6732,2.6957,2.7395,2.7857,2.8279,2.8613,2.8987,2.9588,3.0851,3.1359,3.1614,3.1827,3.2552,3.3216,3.3314,3.4183,3.5293,3.656,3.7169,3.7743,3.8553,3.8523,3.8414,3.8489,3.8417,3.8403,3.8494,3.8538,3.8695,3.895,3.921,3.9382,3.9433,3.9684,3.9766,3.9668,3.9668,3.9668,3.9668,3.9715,3.9731,3.9731,3.909,3.9071,3.9731,3.902,3.8922,3.9354,3.932,3.8845,3.4213,3.416,3.4248,3.6443,3.7472,3.8546,4.0704,4.0065,0.0,3.9631,0.0,0.0,0.0,3.7798,3.8156,3.8901,3.9102,3.9109,3.9038,3.8932,3.8533,3.7713,3.7616,3.737,3.6728,3.5629,3.5015,3.5115,3.4387,3.4223,3.4823,3.4654,3.4742,3.52,3.5388,3.5187,3.4563,3.452,3.4571,3.4694,3.3657,3.3299,3.3563,3.3613,3.3312,3.2789,3.2507,3.1583,3.0215,2.9824,2.9167,2.8386,2.7899,2.6769,2.5376,2.4949,2.4394,2.3838,2.3838,2.3859,2.3945,2.4441,2.4626,2.4753,2.5397,2.5905,2.6234,2.6324,2.6639,2.7451,2.9639,3.0217,3.0294,3.0579,3.0703,3.1042,3.2079,3.324,3.4338,3.5185,3.6323,3.7323,3.7962,3.8053,3.8146,3.8444,3.8713,3.8758,3.8541,3.8728,3.895,3.9156,3.9197,3.9322,3.9564,3.9602,3.9691,3.987,3.9881,3.9881,3.9881,4.006,4.0158,4.0158,4.0101,4.0082,4.0158,3.9901,3.9407,3.8696,3.9291,3.8103,3.2493,3.3705,3.5039,3.5461,3.6788,0.0,0.0,4.0639,4.055,4.0734,4.0695,0.0,0.0,3.8713,3.9134,3.9009,3.8676,3.8572,3.8924,3.8108,3.7471,3.7499,3.6667,3.5959,3.5725,3.4558,3.3989,3.4372,3.3172,3.301,3.4435,3.3367,3.3,3.3561,3.3947,3.3464,3.2039,3.2474,3.2095,3.0976,3.2402,3.3136,3.3254,3.3258,3.2949,3.2313,3.1672,3.0833,2.9832,2.8704,2.8038,2.7667,2.6344,2.5311,2.4515,2.4126,2.3819,2.3595,2.3595,2.3595,2.3638,2.3837,2.3964,2.411,2.4628,2.5179,2.5687,2.5961,2.6367,2.7012,2.8339,2.8864,2.9106,2.9387,2.9982,3.0539,3.0677,3.1949,3.3335,3.4275,3.5349,3.6402,3.7292,3.7741,3.7986,3.7941,3.8349,3.8664,3.8743,3.8833,3.9036,3.9406,3.9445,3.9527,3.9766,3.9789,3.987,4.008,3.9958,3.9967,4.008,4.0167,4.0205,4.0205,4.0205,4.0205,4.0205,4.0129,3.9849,3.941,3.9104,3.8249,3.2072,3.3476,3.5021,3.4758,0.0,0.0,3.9691,4.0604,4.1241,4.1859,4.1094,4.0043,3.9117,0.0,3.8853,3.8886,3.8178,3.7703,3.7942,3.6673,3.5802,3.5961,3.5189,3.4549,3.4308,3.3267,3.2605,3.2619,3.1334,3.1066,3.2219,3.1245,3.0941,3.157,3.1746,3.1219,2.998,3.0231,2.9676,2.8281,3.0359,3.1503,3.1816,3.1812,3.1716,3.1529,3.0582,2.9752,2.8956,2.7593,2.678,2.6298,2.5123,2.435,2.3887,2.3687,2.3595,2.3595,2.3595,2.3595,2.3595,2.3595,2.3674,2.3803,2.4095,2.4748,2.5389,2.5723,2.6244,2.681,2.7317,2.7674,2.7939,2.8242,2.8966,2.9626,2.9638,3.0755,3.2111,3.3376,3.4241,3.5165,3.6494,3.7067,3.7323,3.7322,3.7964,3.8485,3.859,3.8915,3.9269,3.9656,3.9691,3.9777,3.9969,3.9989,4.008,4.0286,4.0167,4.0034,3.9895,4.0213,4.0266,3.9978,3.9978,4.0112,4.0381,4.0053,3.9956,4.0071,3.9074,3.8128,3.3494,3.3494,3.3705,3.4513,0.0,0.0,3.8757,3.9812,4.0892,4.306,4.0886,3.8819,3.956,3.7836,0.0,3.8604,3.7682,3.6601,3.6072,3.4752,3.3583,3.2774,3.3076,3.3072,3.2344,3.1562,3.0608,2.9477,2.8704,2.8132,2.7733,2.8118,2.8699,2.937,2.8749,2.852,2.8788,2.8053,2.7483,2.7099,2.729,2.7874,2.8773,2.8795,2.9311,3.0118,2.9038,2.8182,2.7418,2.639,2.525,2.4101,2.4317,2.3925,2.3319,2.3523,2.3595,2.3595,2.3595,2.3595,2.3595,2.3595,2.3595,2.3616,2.376,2.4446,2.5221,2.5368,2.6015,2.6691,2.6691,2.6691,2.6775,2.7117,2.7461,2.7983,2.9059,2.9722,3.0626,3.2435,3.2953,3.3676,3.5544,3.5878,3.6073,3.6621,3.7592,3.8209,3.8013,3.8939,3.9668,3.9881,3.9903,3.9979,4.0186,4.0205,4.0286,4.0489,4.0496,4.0123,3.9242,4.0236,4.039,3.952,3.9501,3.9946,4.0797,3.9735,3.9654,4.0469,3.9176,3.7593,3.2704,3.3512,3.4408,3.4653,0.0,0.0,0.0,3.9752,0.0,0.0,4.051,3.9267,3.8974,3.7961,0.0,3.7087,3.6298,3.5433,3.4772,3.313,3.1901,3.1682,3.0599,2.9998,3.0282,2.9663,2.9051,2.8719,2.775,2.7548,2.8431,2.7356,2.727,2.8453,2.8111,2.7826,2.762,2.7679,2.7246,2.634,2.6387,2.6924,2.7825,2.8008,2.8241,2.8461,2.7631,2.7146,2.6834,2.5395,2.4243,2.3419,2.357,2.3266,2.2777,2.3024,2.2875,2.2589,2.2965,2.3113,2.3157,2.3486,2.3595,2.3595,2.3653,2.4178,2.4847,2.5179,2.5746,2.6333,2.6641,2.6691,2.6775,2.7117,2.7461,2.7842,2.835,2.9206,3.0084,3.0772,3.1518,3.2446,3.3702,3.4517,3.518,3.5702,3.6546,3.7303,3.7859,3.834,3.8942,3.9813,3.9903,4.004,4.0372,4.0397,4.0496,4.0706,4.0713,4.0597,4.0346,4.0636,4.0681,4.0429,4.041,4.0545,4.0797,4.0482,4.0079,3.9558,3.8561,3.7343,3.3161,3.3986,3.4916,3.5811,3.7075,3.8351,3.9268,0.0,0.0,0.0,3.9629,3.8681,3.8232,3.7064,3.6098,3.5887,3.4555,3.3425,3.2963,3.1095,2.9765,2.9765,2.8784,2.8069,2.7924,2.7677,2.7234,2.6508,2.5826,2.5732,2.641,2.5381,2.5282,2.6404,2.6023,2.5947,2.6246,2.5963,2.5739,2.5598,2.5313,2.5615,2.6461,2.6989,2.7401,2.7566,2.6543,2.583,2.5319,2.4321,2.3591,2.3105,2.3246,2.3001,2.2603,2.2777,2.2512,2.2151,2.2466,2.2581,2.2672,2.3143,2.3312,2.3355,2.3551,2.3844,2.4228,2.4733,2.5257,2.5775,2.63,2.6573,2.6741,2.6956,2.7352,2.7742,2.7911,2.8663,2.9473,2.9996,3.0589,3.1345,3.2437,3.3108,3.3736,3.4454,3.5516,3.6546,3.7391,3.763,3.8051,3.8903,3.9296,3.9671,4.0063,4.0104,4.0145,4.0288,3.9959,3.9765,3.9765,4.01,4.0274,4.0274,3.9939,4.0113,4.0797,4.0448,4.0134,3.9807,3.8505,3.7341,3.411,3.4511,3.509,3.7319,3.8018,3.8499,3.9791,4.0434,4.0545,3.9756,0.0,3.7392,3.7392,3.5545,3.4199,3.4783,3.2747,3.1009,3.0874,2.8913,2.745,2.7385,2.7316,2.6746,2.5382,2.5655,2.5218,2.3579,2.3447,2.3291,2.2916,2.2898,2.3183,2.3778,2.3193,2.3478,2.4756,2.3493,2.3509,2.4756,2.4109,2.416,2.4847,2.5823,2.659,2.7072,2.5697,2.4463,2.3443,2.3326,2.3201,2.3105,2.3246,2.3038,2.2672,2.2694,2.242,2.2035,2.2081,2.2058,2.2128,2.2591,2.2823,2.2965,2.3287,2.3345,2.3471,2.4048,2.4489,2.4922,2.558,2.6097,2.6438,2.6455,2.7076,2.7654,2.7683,2.8156,2.8837,2.9789,2.9984,3.0356,3.1522,3.1715,3.2057,3.3122,3.4521,3.5787,3.6677,3.6762,3.6945,3.7423,3.8125,3.8706,3.9103,3.9146,3.9146,3.9146,3.8489,3.8077,3.8077,3.8914,3.9385,3.9385,3.8682,3.9108,4.0681,3.9887,3.9868,4.052,3.8664,3.7362,3.2459,3.3105,3.3959,3.5764,3.7443,3.8877,3.9753,3.9091,3.838,3.8772,3.7611,3.6559,3.6559,3.4697,3.3024,3.2593,3.1537,3.0365,2.9145,2.7547,2.6279,2.5716,2.4622,2.3806,2.3485,2.3544,2.3435,2.3058,2.3024,2.2988,2.2898,2.2898,2.2977,2.3119,2.2773,2.2724,2.3035,2.2739,2.2739,2.3035,2.3088,2.3199,2.3388,2.4712,2.5266,2.5174,2.46,2.411,2.3674,2.3312,2.3127,2.3105,2.3127,2.2896,2.2558,2.2649,2.2212,2.1589,2.1978,2.186,2.1568,2.1626,2.2202,2.2745,2.1905,2.2241,2.2919,2.286,2.2964,2.3249,2.3819,2.423,2.4514,2.458,2.599,2.7384,2.7639,2.7968,2.8349,2.8824,2.9053,2.9435,3.0337,3.0683,3.1381,3.2911,3.3387,3.4139,3.5677,3.5347,3.536,3.6388,3.6099,3.5993,3.6401,3.6437,3.6449,3.6449,3.6911,3.7174,3.7174,3.8025,3.8489,3.8489,3.8972,3.9404,3.9771,3.9597,3.9249,3.8734,3.7628,3.6504,3.2266,3.3224,3.4337,3.6696,0.0,3.8908,3.9669,3.8262,3.681,3.6853,3.6021,3.5007,3.4283,3.3179,3.1886,3.0403,2.9851,2.9007,2.7294,2.6539,2.5821,2.4918,2.3961,2.3243,2.293,2.2613,2.2281,2.1918,2.1902,2.1902,2.1902,2.1902,2.1832,2.1694,2.1568,2.1579,2.1775,2.1449,2.1707,2.2506,2.2295,2.244,2.2946,2.3986,2.4591,2.4771,2.4426,2.3973,2.3413,2.3281,2.301,2.2681,2.2921,2.2851,2.2603,2.2603,2.2072,2.1434,2.1684,2.1458,2.1086,2.1213,2.1485,2.1682,2.1236,2.1283,2.1614,2.2074,2.2145,2.2285,2.3169,2.3657,2.3902,2.3951,2.5353,2.6722,2.6904,2.7561,2.8143,2.8326,2.8513,2.8833,2.943,3.0104,3.0828,3.1598,3.2119,3.2787,3.3799,3.3601,3.3652,3.4431,3.4525,3.4649,3.4949,3.4971,3.4988,3.4988,3.5049,3.5079,3.5079,3.5524,3.653,3.8174,3.8237,3.845,3.8876,3.8876,3.8594,3.8029,3.7199,3.6206,3.2421,3.3617,3.499,3.7826,3.833,0.0,3.9026,3.7315,3.5386,3.4583,3.4031,3.3246,3.1852,3.1489,3.0731,2.873,2.8403,2.7788,2.6044,2.5765,2.5385,2.4441,2.3752,2.313,2.2598,2.2027,2.1441,2.0842,2.0794,2.0794,2.0794,2.0761,2.0629,2.041,2.0308,2.0395,2.0728,2.0177,2.0606,2.1985,2.1417,2.1657,2.258,2.3161,2.3843,2.4602,2.4102,2.3416,2.2651,2.2778,2.2502,2.2038,2.2549,2.2749,2.2754,2.2672,2.2189,2.1589,2.1503,2.1164,2.0755,2.0767,2.0678,2.0564,2.0555,2.0378,2.0386,2.1254,2.136,2.1471,2.264,2.312,2.3325,2.3539,2.4571,2.559,2.585,2.682,2.7691,2.7843,2.8148,2.8458,2.8755,2.9596,3.0208,3.0202,3.0997,3.1711,3.2013,3.1869,3.1873,3.2172,3.2747,3.3133,3.3201,3.3467,3.3561,3.3432,3.3086,3.287,3.2875,3.303,3.4411,3.7222,3.6756,3.6826,3.7535,3.7647,3.7604,3.743,3.6728,3.5871,3.1561,3.2955,3.4398,0.0,3.6504,3.6405,0.0,0.0,3.371,3.2334,3.1994,3.1706,3.0971,3.0282,2.9506,2.8558,2.8403,2.7977,2.6724,2.5229,2.4133,2.3679,2.2155,2.1105,2.1079,2.0949,2.0837,2.0794,2.0794,2.0794,2.0794,2.0579,2.0444,2.041,1.9892,1.965,1.9704,1.9596,1.9674,1.9893,2.0104,2.0551,2.125,2.1341,2.2034,2.3133,2.1972,2.1389,2.122,2.0725,2.0802,2.1212,2.1859,2.2498,2.3045,2.3164,2.2844,2.2289,2.1942,2.1459,2.0735,1.9451,1.9866,2.0513,1.8768,1.9341,2.0466,1.971,1.9705,2.0135,2.0944,2.096,2.1041,2.2082,2.2769,2.3522,2.4866,2.5478,2.6002,2.6823,2.7651,2.8268,2.844,2.8779,2.9295,3.0075,3.0516,3.1024,3.1753,3.0727,3.0011,3.0181,2.9813,2.9353,2.88,3.0089,3.0612,2.993,3.1191,3.197,3.1966,3.2701,3.3258,3.3589,3.4345,3.48,3.4916,3.5432,3.5678,3.5638,3.5359,3.4694,3.168,3.2711,3.3445,0.0,3.4487,3.4055,3.4158,3.2912,3.1451,3.0402,2.9895,2.9591,2.9455,2.9127,2.8627,2.7803,2.7732,2.7223,2.5642,2.4946,2.4149,2.2928,2.1878,2.1258,2.131,2.0863,2.0661,2.0794,2.0777,2.0678,2.0579,2.0461,2.0256,1.9909,1.9642,1.9439,1.9273,1.9273,1.9347,1.9497,1.9848,1.9962,1.9891,1.9891,2.0615,2.1851,2.1305,2.054,1.971,1.979,1.9664,1.9537,2.0538,2.1166,2.1555,2.2372,2.2396,2.1947,2.1595,2.1108,2.0475,1.9395,1.9175,1.9181,1.841,1.8795,1.9426,1.9303,1.9476,1.9857,2.055,2.0518,2.046,2.106,2.1649,2.2279,2.3051,2.4361,2.5574,2.6117,2.6934,2.75,2.741,2.8043,2.8722,2.9186,2.9083,2.9209,2.9818,2.8996,2.8412,2.8551,2.8434,2.8405,2.8563,2.928,2.9536,2.9127,2.9844,3.0254,3.0179,3.0544,3.0937,3.1328,3.2793,3.3517,3.3442,3.4168,3.4446,3.4306,3.4698,3.4103,3.1489,0.0,3.2397,3.312,3.2747,3.2168,0.0,3.0906,2.9656,2.8983,2.8305,2.7861,2.8011,2.806,2.7837,2.7189,2.7153,2.6678,2.514,2.4846,2.4197,2.2649,2.1807,2.1393,2.1395,2.0839,2.0561,2.0745,2.0661,2.0543,2.041,2.0241,1.9962,1.9515,1.9424,1.9291,1.9101,1.9101,1.9199,1.9402,1.9504,1.9266,1.8789,1.8624,1.9019,1.9874,1.9945,1.9403,1.8444,1.8654,1.852,1.8303,1.9261,1.9735,2.006,2.1254,2.1489,2.1198,2.0983,2.07,2.0268,1.946,1.8885,1.8508,1.8503,1.8635,1.8869,1.9222,1.9507,1.9839,2.0543,2.0425,2.0239,2.0615,2.107,2.1536,2.1943,2.3601,2.509,2.5346,2.6037,2.6592,2.6606,2.7223,2.7831,2.8083,2.7722,2.7548,2.7905,2.7403,2.7055,2.7157,2.7375,2.7679,2.8049,2.8576,2.8741,2.8426,2.8835,2.9043,2.8938,2.9117,2.9471,3.0052,3.1421,3.2112,3.2041,3.281,3.3175,3.3186,3.3779,3.3358,3.033,3.0889,0.0,3.1566,3.1492,3.121,3.0627,2.9805,2.8949,2.8288,2.7521,2.6977,2.7059,2.7123,2.7138,2.7007,2.7007,2.6858,2.6369,2.4879,2.3702,2.3209,2.1561,2.0486,2.0573,2.0472,2.0491,2.0693,2.0458,2.034,2.0393,1.9856,1.9533,1.9497,1.9254,1.912,1.9101,1.9101,1.9101,1.9105,1.8557,1.8266,1.8208,1.7568,1.7003,1.6466,1.6796,1.7218,1.7584,1.6734,1.71,1.8216,1.8256,1.8651,1.9251,2.0031,2.0254,2.019,2.0392,2.0416,2.024,1.9243,1.9246,1.9483,1.8726,1.9035,1.9563,1.9205,1.9395,1.9839,2.0543,2.0217,1.9987,2.0996,2.1155,2.1337,2.2409,2.3346,2.4052,2.4234,2.4923,2.5713,2.6458,2.6238,2.6195,2.6951,2.6835,2.6662,2.6694,2.6274,2.5984,2.5992,2.6284,2.6166,2.5369,2.6932,2.7647,2.6867,2.8184,2.9026,2.9079,2.9698,2.9999,2.9913,3.0016,3.0114,3.0242,3.0856,3.1542,3.226,3.2112,3.2027,0.0,0.0,0.0,2.8962,2.8824,2.8619,2.7936,2.753,2.7208,2.6889,2.686,2.6876,2.6825,2.6941,2.7006,2.6959,2.6975,2.6755,2.6049,2.5079,2.4013,2.2898,2.1742,2.0872,2.0488,2.0373,2.0407,2.056,2.0204,1.998,2.0,1.957,1.9295,1.9236,1.9157,1.9101,1.9101,1.9101,1.8912,1.8521,1.8303,1.7751,1.6924,1.6677,1.6227,1.5661,1.6163,1.6503,1.6692,1.6332,1.675,1.7545,1.7322,1.8007,1.9111,1.9157,1.982,2.059,2.007,1.9886,1.9771,1.9128,1.8869,1.8808,1.8879,1.9101,1.9273,1.9139,1.9398,1.9768,1.9989,1.9887,1.986,2.0503,2.0838,2.1166,2.1792,2.2434,2.2987,2.3366,2.3977,2.4588,2.5037,2.5354,2.5698,2.6157,2.5703,2.5447,2.5784,2.5273,2.4935,2.5115,2.5315,2.5539,2.5773,2.7012,2.7608,2.7242,2.8375,2.902,2.8919,2.918,2.951,2.9897,2.9393,2.9369,2.983,3.0064,3.0293,3.0527,3.1,3.0932,2.6839,0.0,0.0,0.0,2.7158,2.7011,2.6267,2.6101,2.6119,2.6156,2.6418,2.664,2.6691,2.6808,2.6875,2.6842,2.6859,2.6639,2.5932,2.5176,2.4269,2.3103,2.2224,2.144,2.0773,2.0661,2.0586,2.0458,1.9962,0.0,1.9788,1.9336,1.9087,1.9101,1.8912,1.8796,1.8796,1.8796,1.852,1.7956,1.7898,1.7251,1.6142,1.597,1.5628,1.5161,1.5672,1.6139,1.6547,1.6547,1.6938,1.7485,1.7033,1.7515,1.8455,1.8468,1.9128,2.001,1.9582,1.9457,1.9444,1.9146,1.8921,1.8774,1.8914,1.913,1.9262,1.9024,1.9312,1.9708,1.9708,1.9708,1.9836,2.0364,2.0715,2.1055,2.1539,2.1986,2.2385,2.2708,2.3131,2.3586,2.4091,2.4379,2.4704,2.5217,2.4682,2.4358,2.4725,2.4448,2.43,2.4476,2.47,2.5081,2.5712,2.6429,2.6936,2.7173,2.8108,2.8695,2.8862,2.9134,2.9491,2.9965,2.916,2.8941,2.9349,2.9024,2.8979,2.9176,2.9729,2.986,0.0,0.0,0.0,0.0,2.6652,2.6569,2.5847,2.5682,2.5793,2.619,2.6191,2.6228,2.659,2.6691,2.6691,2.6657,2.6691,2.6556,2.6175,2.5193,2.4376,2.397,2.2989,2.2074,2.1396,2.1304,2.1062,2.0466,1.978,1.9515,1.977,1.9165,1.8879,1.9082,1.8535,1.8198,1.8183,1.8198,1.7938,1.7436,1.7279,1.676,1.5928,1.5501,1.51,1.4824,1.5146,1.6023,1.7171,1.72,1.7606,1.8143,1.7473,1.7241,1.7359,1.7966,1.8198,1.8317,1.8898,1.9161,1.9273,1.9347,1.9468,1.9492,1.8877,1.9151,1.9543,1.8912,1.9166,1.9648,1.9678,1.9678,1.9859,2.0664,2.0828,2.099,2.1705,2.2073,2.2274,2.2304,2.2402,2.2774,2.3694,2.3253,2.3124,2.4112,2.3815,2.3474,2.3504,2.3847,2.4097,2.4107,2.4451,2.4742,2.4881,2.505,2.5568,2.6564,2.7338,2.8146,2.9017,2.9676,3.004,3.0065,2.9214,2.8736,2.8639,2.7643,2.7554,2.8269,2.8362,2.8821,2.2985,0.0,0.0,0.0,0.0,0.0,2.5185,2.5192,2.5346,2.5668,2.5908,2.6044,2.5932,2.6336,2.6522,2.5998,2.6353,2.6657,2.6539,2.5779,2.4998,2.439,2.3566,2.2748,2.2089,2.1581,2.1245,0.0,1.9889,1.9291,1.9497,1.9053,1.8879,1.9082,1.8941,1.8512,1.7772,1.8205,1.7548,1.5854,1.6619,1.6203,1.4775,1.5034,1.5036,1.4836,1.5356,1.5931,1.6518,1.7011,1.7606,1.8136,1.7691,1.8233,1.9165,1.8149,1.8233,1.8869,1.9043,1.8844,1.852,1.8638,1.9033,1.9368,1.886,1.8837,1.9031,1.9348,1.8867,1.8356,1.8852,1.8972,1.9161,1.9856,2.0206,2.0513,2.1007,2.1355,2.1661,2.1957,2.2113,2.2304,2.2616,2.2627,2.2731,2.3146,2.3092,2.3126,2.347,2.3598,2.3774,2.4078,2.4211,2.4408,2.4727,2.5463,2.6295,2.7272,2.8298,2.925,3.011,3.0378,3.018,2.9453,2.8598,2.7778,2.7045,2.6605,2.6777,2.7516,2.8117,2.8867,0.0,0.0,0.0,0.0,0.0,0.0,2.3532,2.3769,2.4127,2.4332,2.4686,2.5008,2.5123,2.549,2.5743,2.5625,2.5964,2.6286,2.642,2.589,2.5285,2.4732,2.4104,2.3456,2.2778,2.212,2.1596,2.1319,1.992,1.903,1.8917,1.876,1.8779,1.8969,1.8527,1.8063,1.7557,1.7748,1.6967,1.5296,1.6135,1.5707,1.423,1.4594,1.4612,1.4381,1.4902,1.5219,1.5453,1.6092,1.709,1.8212,1.8233,1.8816,1.9542,1.8389,1.8455,1.9039,1.8592,1.8225,1.7939,1.7978,1.835,1.8724,1.8357,1.8461,1.8732,1.8837,1.8296,1.7788,1.8177,1.8493,1.8826,1.9358,1.9854,2.0345,2.0893,2.1087,2.1293,2.1708,2.184,2.1926,2.2053,2.2172,2.2343,2.2632,2.2751,2.2889,2.3157,2.3389,2.3587,2.3827,2.4009,2.422,2.4516,2.5223,2.6064,2.7033,2.7803,2.8612,2.9487,2.9899,2.9671,2.8763,2.824,2.7307,2.5933,2.5704,2.594,2.6594,2.7408,2.8213,0.0,0.0,0.0,0.0,2.1782,0.0,2.1486,2.1909,2.245,2.27,2.3035,2.3484,2.424,2.4402,2.4639,2.5295,2.5397,2.5597,2.604,2.5762,2.5351,2.4942,2.4538,2.4071,2.3471,2.2794,2.2135,2.1458,1.9964,1.8836,1.8228,1.84,1.8581,1.8784,1.7847,1.7375,1.7437,1.7041,1.6312,1.5354,1.5676,1.5207,1.4091,1.419,1.4047,1.3702,1.4075,1.4254,1.4357,1.4948,1.6295,1.8018,1.8679,1.8935,1.8917,1.8611,1.8664,1.8726,1.7834,1.7478,1.7414,1.7305,1.7476,1.7723,1.7493,1.7898,1.8293,1.7669,1.7549,1.7578,1.7578,1.8027,1.856,1.8938,1.9479,2.0111,2.0815,2.083,2.083,2.119,2.1444,2.1632,2.1711,2.1832,2.2058,2.2429,2.2672,2.2816,2.2829,2.3211,2.347,2.3504,2.3847,2.4127,2.4298,2.4674,2.5329,2.6339,2.6593,2.7094,2.7977,2.8766,2.8812,2.7982,2.7882,2.6997,2.5298,2.5124,2.5314,2.5863,2.6572,2.7305,0.0,0.0,0.0,0.0,2.0428,0.0,2.1262,2.1184,2.126,2.2194,2.2474,2.2731,2.3483,2.3785,2.3973,2.4063,2.4246,2.4796,2.5947,2.5762,2.5351,2.4942,2.4538,2.4256,2.4117,2.3502,2.2825,2.2166,2.0251,1.8836,1.8228,1.84,1.8581,1.8784,1.8445,1.7882,1.7098,1.6585,1.5886,1.4999,1.4916,1.455,1.3951,1.3966,1.3858,1.3632,1.3765,1.3997,1.4357,1.4948,1.5702,1.6541,1.7505,1.7955,1.8088,1.8383,1.7998,1.7369,1.7661,1.711,1.6318,1.6415,1.6581,1.6726,1.6476,1.6522,1.662,1.6263,1.6518,1.689,1.689,1.6995,1.7235,1.7855,1.8081,1.8286,1.864,1.8858,1.9043,1.9164,2.0485,2.1377,2.0729,2.1427,2.2155,2.2474,2.2672,2.2868,2.3033,2.3114,2.3259,2.3481,2.3728,2.3983,2.4271,2.4674,2.5329,2.6339,2.6646,2.7162,2.8045,2.8344,2.8091,2.7237,2.6474,2.5829,2.5298,2.5679,2.6201,2.6822,2.6933,2.7352,0.0,0.0,0.0,1.827,0.0,0.0,0.0,1.9413,1.9964,2.0322,2.0565,2.0914,2.1607,2.2104,2.2505,2.2848,2.3003,2.3506,2.4642,2.4543,2.4495,2.4855,2.4258,2.381,2.381,2.3502,2.2832,2.1734,2.0391,1.9289,1.8542,1.8308,1.8228,1.8305,1.8008,1.7592,1.7003,1.6537,1.5901,1.5132,1.4772,1.4314,1.3779,1.3592,1.3443,1.334,1.3425,1.3577,1.3771,1.4079,1.4542,1.5191,1.6423,1.6936,1.7003,1.7009,1.6799,1.6512,1.6286,1.583,1.5341,1.5263,1.5476,1.5796,1.5992,1.6245,1.6317,1.5728,1.5891,1.6249,1.6174,1.6397,1.6724,1.7067,1.741,1.7716,1.8021,1.8145,1.8177,1.8104,1.9189,2.0105,2.0151,2.096,2.1735,2.2147,2.2368,2.2611,2.2902,2.3045,2.3151,2.3283,2.3508,2.3714,2.3895,2.4332,2.4821,2.5325,2.5758,2.62,2.6641,2.7229,2.7346,2.6906,2.5946,2.5398,2.5301,2.5374,2.5536,2.5814,2.6043,2.6283,0.0,0.0,0.0,0.0,0.0,1.7559,0.0,0.0,0.0,1.8163,1.8403,1.89,1.9747,2.0215,0.0,2.1452,0.0,0.0,0.0,2.2524,0.0,2.4487,2.3707,2.3193,2.3514,2.338,2.2672,2.1129,2.0447,1.9684,1.8685,1.814,1.7848,1.7767,1.7352,1.7081,1.6951,1.6417,1.5975,1.5557,1.4877,1.4286,1.3821,1.3384,1.3141,1.3042,1.3146,1.3181,1.3181,1.3181,1.3496,1.4056,1.5376,1.5937,1.5905,1.5615,1.5689,1.5833,1.4964,1.4626,1.4555,1.4329,1.451,1.4897,1.548,1.5961,1.617,1.549,1.5477,1.5682,1.5624,1.601,1.6441,1.6411,1.6827,1.7278,1.7531,1.753,1.744,1.7317,1.7869,1.8649,1.9649,2.0476,2.1193,2.1763,2.2079,2.2388,2.2703,2.2952,2.3107,2.3107,2.3342,2.3504,2.3504,2.3966,2.4262,2.4296,2.4816,2.5114,2.5153,2.6006,2.6476,2.645,2.5669,2.5249,2.5195,2.4828,2.4684,2.4731,2.4965,2.5043,0.0,0.0,0.0,0.0,1.4939,0.0,1.5546,0.0,1.566,1.6688,0.0,1.7421,1.8951,0.0,0.0,0.0,0.0,0.0,2.0594,1.9669,2.0114,2.3518,2.2871,2.273,2.4216,2.3711,2.2692,2.119,2.0467,1.9498,1.8065,1.7821,1.772,1.772,1.7152,1.6837,1.6816,1.5831,1.5587,1.6089,1.4894,1.4332,1.4306,1.377,1.3271,1.2838,1.3025,1.3107,1.3124,1.3181,1.3235,1.3418,1.445,1.493,1.5076,1.5391,1.531,1.5025,1.4917,1.4563,1.4163,1.4136,1.4085,1.4076,1.4398,1.4657,1.4899,1.5224,1.5329,1.5389,1.5566,1.5742,1.586,1.5728,1.5773,1.5817,1.5802,1.5876,1.6007,1.6146,1.6867,1.781,1.8914,1.9969,2.0873,2.1544,2.2119,2.2489,2.2529,2.2867,2.3107,2.3107,2.3342,2.3504,2.3504,2.3836,2.41,2.4288,2.4586,2.4841,2.5031,2.5197,2.5265,2.5214,2.5151,2.5042,2.4854,2.4633,2.4879,2.5546,2.4662,2.4514,0.0,0.0,0.0,0.0,0.0,0.0,1.4063,0.0,1.5035,0.0,0.0,0.0,0.0,0.0,0.0,0.0,1.8206,0.0,0.0,0.0,1.8733,2.2069,0.0,0.0,2.2908,2.3066,2.242,2.0804,2.0441,1.9894,1.8997,1.8028,1.7614,1.781,1.7038,1.6531,1.6324,1.5899,1.576,1.5957,1.5121,1.457,1.4324,1.3829,1.3314,1.2803,1.3007,1.3107,1.3107,1.3163,1.3198,1.324,1.3663,1.3869,1.3941,1.4108,1.4054,1.3905,1.3905,1.3772,1.3589,1.3677,1.3792,1.3901,1.3898,1.4372,1.4875,1.4749,1.5134,1.5551,1.5314,1.5433,1.5595,1.5507,1.5477,1.5477,1.5448,1.5492,1.5565,1.574,1.6066,1.6693,1.7824,1.9188,2.0366,2.1038,2.1725,2.232,2.2738,2.2935,2.3057,2.3107,2.3199,2.3271,2.3271,2.354,2.3741,2.3834,2.4118,2.4446,2.4754,2.4657,2.4633,2.477,2.4598,2.4512,2.4511,2.4273,2.4367,2.4764,2.4184,2.4068,1.2548,0.0,0.0,0.0,0.0,0.0,0.0,0.0,0.0,0.0,0.0,0.0,0.0,0.0,0.0,0.0,0.0,1.7077,0.0,1.6968,0.0,0.0,0.0,0.0,0.0,2.2226,2.1916,2.0363,2.0158,1.9803,1.9125,1.7827,1.72,1.7452,1.6701,1.6197,1.5957,1.5957,1.5891,1.578,1.5265,1.4746,1.4277,1.3791,1.3277,1.2785,1.2938,1.3025,1.3042,1.3012,1.3082,1.3181,1.2978,1.296,1.3047,1.3163,1.3129,1.3047,1.3163,1.3198,1.3232,1.3374,1.3547,1.3698,1.3678,1.4006,1.4387,1.4438,1.4821,1.5213,1.5151,1.5329,1.5477,1.5418,1.5404,1.5404,1.5404,1.5403,1.5418,1.558,1.5595,1.5889,1.6866,1.8342,1.9669,2.0408,2.1298,2.2099,2.2664,2.2889,2.3033,2.3077,2.3107,2.3107,2.3107,2.3283,2.3424,2.3504,2.3783,2.4081,2.4366,2.4199,2.4181,2.4379,2.4173,2.41,2.4155,2.402,2.3986,2.4016,2.3876,2.3806,0.0,0.0,0.0,1.1209,0.0,0.0,0.0,0.0,1.2323,0.0,0.0,0.0,0.0,0.0,0.0,0.0,0.0,0.0,0.0,0.0,0.0,0.0,0.0,0.0,0.0,2.1435,2.119,1.993,1.9534,1.8794,1.7533,1.6744,1.6346,1.6358,1.6001,1.5814,1.5814,1.5814,1.5792,1.578,1.5265,1.4746,1.4277,1.3753,1.3204,1.2709,1.2785,1.2855,1.2878,1.2632,1.2791,1.3129,1.2419,1.2318,1.2673,1.3047,1.2948,1.2673,1.3064,1.3198,1.3232,1.3425,1.3374,1.3284,1.3687,1.322,1.2884,1.4377,1.4284,1.4037,1.5198,1.5477,1.5477,1.5418,1.5404,1.5404,1.5404,1.5344,1.5358,1.5566,1.5595,1.5755,1.625,1.7507,1.8749,1.9688,2.1006,2.1926,2.2027,2.2594,2.3033,2.3077,2.3107,2.3107,2.3107,2.3119,2.3223,2.3481,2.3689,2.3816,2.3837,2.3827,2.3827,2.3837,2.3933,2.3951,2.3827,2.4006,2.3996,2.3806,2.3806,2.3806,0.0,0.0,1.0151,1.0363,0.0,0.0,0.0,0.0,0.0,0.0,0.0,0.0,0.0,0.0,0.0,0.0,0.0,0.0,0.0,0.0,0.0,0.0,0.0,0.0,0.0,0.0,1.9535,1.7999,1.81,1.8039,1.7631,1.6771,1.6486,1.6893,1.6195,1.5792,1.5792,1.5792,1.5792,1.5792,1.5612,1.5103,1.4277,1.4108,1.3541,1.2709,1.2768,1.265,1.2461,1.2768,1.2668,1.2354,1.2407,1.221,1.1957,1.2567,1.2708,1.2656,1.3064,1.3198,1.3215,1.3284,1.3267,1.325,1.3472,1.3214,1.2915,1.3295,1.3557,1.3778,1.415,1.4668,1.5134,1.5313,1.5328,1.5328,1.5328,1.5328,1.5328,1.5388,1.5403,1.5477,1.5783,1.6814,1.8059,1.9404,2.0375,2.1333,2.2327,2.2655,2.2881,2.3082,2.3107,2.3057,2.2902,2.2777,2.2751,2.2838,2.3035,2.3194,2.3335,2.3353,2.3417,2.3598,2.3565,2.3474,2.3336,2.3138,2.295,2.2805,2.2999,2.3324,1.0189,0.9782,0.0,0.9721,0.9978,0.0,0.991,0.0,1.0795,0.0,0.0,0.0,0.0,0.0,0.0,0.0,0.0,0.0,0.0,1.4923,0.0,0.0,0.0,0.0,0.0,1.8322,1.8416,1.7077,1.7358,1.7483,0.0,1.6511,1.6301,1.6692,1.6128,1.5792,1.5792,1.5792,1.5792,1.5792,1.56,1.5178,1.4546,1.418,1.3638,1.2975,1.2817,1.2644,1.2425,1.2526,1.2389,1.209,1.2,1.1763,1.1571,1.218,1.2496,1.2656,1.3064,1.3146,1.3094,1.3237,1.3077,1.2864,1.3136,1.2761,1.227,1.252,1.2712,1.2938,1.3345,1.4023,1.4684,1.4921,1.5154,1.5328,1.5313,1.5222,1.5117,1.5117,1.5147,1.5224,1.5389,1.6142,1.729,1.8941,1.9972,2.1021,2.2269,2.2525,2.2672,2.2868,2.2893,2.2842,2.2699,2.2565,2.2542,2.2592,2.2659,2.2825,2.308,2.3035,2.3102,2.3354,2.3324,2.3277,2.3241,2.2736,2.2478,2.2446,2.261,2.2974]}]]